<?xml version="1.0" encoding="UTF-8" standalone="no" ?>
<gpx xmlns="http://www.topografix.com/GPX/1/1" xmlns:xsi="http://www.w3.org/2001/XMLSchema-instance" xsi:schemaLocation="http://www.topografix.com/GPX/1/1 http://www.topografix.com/GPX/1/1/gpx.xsd" version="1.1" creator="VisuGPX - https://www.visugpx.com">
  <metadata>
    <name>Le chasseral</name>
    <desc><![CDATA[Le chasseral par la combe grèbe]]></desc>
  </metadata>
  <trk>
    <name><![CDATA[27-MAI-12 15:30:14]]></name>
    <trkseg>
      <trkpt lat="47.15375" lon="7.02295">
        <ele>775.92</ele>
        <time>2012-05-27T07:43:33Z</time>
      </trkpt>
      <trkpt lat="47.15376" lon="7.02295">
        <ele>774.96</ele>
        <time>2012-05-27T07:43:56Z</time>
      </trkpt>
      <trkpt lat="47.15374" lon="7.02292">
        <ele>775.44</ele>
        <time>2012-05-27T07:44:15Z</time>
      </trkpt>
      <trkpt lat="47.15373" lon="7.02292">
        <ele>775.92</ele>
        <time>2012-05-27T07:44:16Z</time>
      </trkpt>
      <trkpt lat="47.15363" lon="7.02296">
        <ele>775.44</ele>
        <time>2012-05-27T07:44:29Z</time>
      </trkpt>
      <trkpt lat="47.15348" lon="7.02306">
        <ele>775.44</ele>
        <time>2012-05-27T07:44:44Z</time>
      </trkpt>
      <trkpt lat="47.15339" lon="7.02311">
        <ele>775.92</ele>
        <time>2012-05-27T07:44:54Z</time>
      </trkpt>
      <trkpt lat="47.15333" lon="7.02318">
        <ele>776.88</ele>
        <time>2012-05-27T07:45:00Z</time>
      </trkpt>
      <trkpt lat="47.1532" lon="7.02329">
        <ele>777.84</ele>
        <time>2012-05-27T07:45:12Z</time>
      </trkpt>
      <trkpt lat="47.15308" lon="7.02338">
        <ele>778.81</ele>
        <time>2012-05-27T07:45:22Z</time>
      </trkpt>
      <trkpt lat="47.15299" lon="7.02346">
        <ele>778.81</ele>
        <time>2012-05-27T07:45:31Z</time>
      </trkpt>
      <trkpt lat="47.15287" lon="7.02356">
        <ele>779.29</ele>
        <time>2012-05-27T07:45:42Z</time>
      </trkpt>
      <trkpt lat="47.15276" lon="7.02366">
        <ele>779.77</ele>
        <time>2012-05-27T07:45:53Z</time>
      </trkpt>
      <trkpt lat="47.15265" lon="7.02379">
        <ele>780.73</ele>
        <time>2012-05-27T07:46:06Z</time>
      </trkpt>
      <trkpt lat="47.15254" lon="7.02391">
        <ele>780.25</ele>
        <time>2012-05-27T07:46:17Z</time>
      </trkpt>
      <trkpt lat="47.15243" lon="7.02402">
        <ele>780.73</ele>
        <time>2012-05-27T07:46:29Z</time>
      </trkpt>
      <trkpt lat="47.15229" lon="7.02413">
        <ele>783.13</ele>
        <time>2012-05-27T07:46:42Z</time>
      </trkpt>
      <trkpt lat="47.15219" lon="7.02421">
        <ele>785.53</ele>
        <time>2012-05-27T07:46:53Z</time>
      </trkpt>
      <trkpt lat="47.15208" lon="7.02432">
        <ele>786.98</ele>
        <time>2012-05-27T07:47:04Z</time>
      </trkpt>
      <trkpt lat="47.15194" lon="7.0244">
        <ele>789.38</ele>
        <time>2012-05-27T07:47:17Z</time>
      </trkpt>
      <trkpt lat="47.15177" lon="7.02449">
        <ele>790.82</ele>
        <time>2012-05-27T07:47:30Z</time>
      </trkpt>
      <trkpt lat="47.15157" lon="7.02461">
        <ele>793.22</ele>
        <time>2012-05-27T07:47:44Z</time>
      </trkpt>
      <trkpt lat="47.15146" lon="7.02467">
        <ele>795.15</ele>
        <time>2012-05-27T07:47:53Z</time>
      </trkpt>
      <trkpt lat="47.15129" lon="7.02476">
        <ele>794.67</ele>
        <time>2012-05-27T07:48:08Z</time>
      </trkpt>
      <trkpt lat="47.1512" lon="7.02488">
        <ele>798.03</ele>
        <time>2012-05-27T07:48:20Z</time>
      </trkpt>
      <trkpt lat="47.15114" lon="7.02496">
        <ele>800.44</ele>
        <time>2012-05-27T07:48:28Z</time>
      </trkpt>
      <trkpt lat="47.15109" lon="7.02503">
        <ele>802.36</ele>
        <time>2012-05-27T07:48:35Z</time>
      </trkpt>
      <trkpt lat="47.15097" lon="7.02513">
        <ele>805.24</ele>
        <time>2012-05-27T07:48:50Z</time>
      </trkpt>
      <trkpt lat="47.15094" lon="7.02515">
        <ele>805.72</ele>
        <time>2012-05-27T07:48:52Z</time>
      </trkpt>
      <trkpt lat="47.15078" lon="7.02527">
        <ele>807.16</ele>
        <time>2012-05-27T07:49:06Z</time>
      </trkpt>
      <trkpt lat="47.15063" lon="7.02535">
        <ele>807.16</ele>
        <time>2012-05-27T07:49:16Z</time>
      </trkpt>
      <trkpt lat="47.15054" lon="7.0254">
        <ele>806.68</ele>
        <time>2012-05-27T07:49:22Z</time>
      </trkpt>
      <trkpt lat="47.15041" lon="7.02546">
        <ele>805.72</ele>
        <time>2012-05-27T07:49:35Z</time>
      </trkpt>
      <trkpt lat="47.15028" lon="7.02554">
        <ele>807.16</ele>
        <time>2012-05-27T07:49:48Z</time>
      </trkpt>
      <trkpt lat="47.15027" lon="7.02555">
        <ele>807.16</ele>
        <time>2012-05-27T07:49:49Z</time>
      </trkpt>
      <trkpt lat="47.15013" lon="7.02564">
        <ele>811.49</ele>
        <time>2012-05-27T07:50:04Z</time>
      </trkpt>
      <trkpt lat="47.15006" lon="7.02568">
        <ele>811.97</ele>
        <time>2012-05-27T07:50:16Z</time>
      </trkpt>
      <trkpt lat="47.14996" lon="7.02576">
        <ele>813.41</ele>
        <time>2012-05-27T07:50:32Z</time>
      </trkpt>
      <trkpt lat="47.14989" lon="7.0258">
        <ele>814.85</ele>
        <time>2012-05-27T07:50:41Z</time>
      </trkpt>
      <trkpt lat="47.14982" lon="7.02584">
        <ele>814.37</ele>
        <time>2012-05-27T07:50:46Z</time>
      </trkpt>
      <trkpt lat="47.1497" lon="7.02589">
        <ele>816.78</ele>
        <time>2012-05-27T07:51:00Z</time>
      </trkpt>
      <trkpt lat="47.14964" lon="7.02593">
        <ele>818.22</ele>
        <time>2012-05-27T07:51:07Z</time>
      </trkpt>
      <trkpt lat="47.14954" lon="7.02601">
        <ele>823.03</ele>
        <time>2012-05-27T07:51:19Z</time>
      </trkpt>
      <trkpt lat="47.14954" lon="7.02601">
        <ele>823.03</ele>
        <time>2012-05-27T07:51:20Z</time>
      </trkpt>
      <trkpt lat="47.14943" lon="7.0261">
        <ele>827.35</ele>
        <time>2012-05-27T07:51:30Z</time>
      </trkpt>
      <trkpt lat="47.14937" lon="7.02617">
        <ele>828.31</ele>
        <time>2012-05-27T07:51:41Z</time>
      </trkpt>
      <trkpt lat="47.14933" lon="7.02621">
        <ele>828.31</ele>
        <time>2012-05-27T07:51:52Z</time>
      </trkpt>
      <trkpt lat="47.14921" lon="7.02619">
        <ele>828.79</ele>
        <time>2012-05-27T07:52:03Z</time>
      </trkpt>
      <trkpt lat="47.1492" lon="7.02621">
        <ele>828.79</ele>
        <time>2012-05-27T07:52:06Z</time>
      </trkpt>
      <trkpt lat="47.14915" lon="7.02625">
        <ele>827.83</ele>
        <time>2012-05-27T07:52:13Z</time>
      </trkpt>
      <trkpt lat="47.14909" lon="7.02631">
        <ele>825.91</ele>
        <time>2012-05-27T07:52:20Z</time>
      </trkpt>
      <trkpt lat="47.14907" lon="7.02636">
        <ele>824.95</ele>
        <time>2012-05-27T07:52:24Z</time>
      </trkpt>
      <trkpt lat="47.14903" lon="7.02642">
        <ele>823.99</ele>
        <time>2012-05-27T07:52:31Z</time>
      </trkpt>
      <trkpt lat="47.14895" lon="7.02656">
        <ele>821.58</ele>
        <time>2012-05-27T07:52:44Z</time>
      </trkpt>
      <trkpt lat="47.14894" lon="7.02663">
        <ele>822.06</ele>
        <time>2012-05-27T07:52:50Z</time>
      </trkpt>
      <trkpt lat="47.14893" lon="7.02669">
        <ele>823.51</ele>
        <time>2012-05-27T07:52:55Z</time>
      </trkpt>
      <trkpt lat="47.14887" lon="7.02685">
        <ele>824.95</ele>
        <time>2012-05-27T07:53:07Z</time>
      </trkpt>
      <trkpt lat="47.14883" lon="7.027">
        <ele>827.83</ele>
        <time>2012-05-27T07:53:19Z</time>
      </trkpt>
      <trkpt lat="47.14885" lon="7.02711">
        <ele>832.16</ele>
        <time>2012-05-27T07:53:30Z</time>
      </trkpt>
      <trkpt lat="47.14883" lon="7.02715">
        <ele>835.52</ele>
        <time>2012-05-27T07:53:42Z</time>
      </trkpt>
      <trkpt lat="47.14874" lon="7.02717">
        <ele>837.93</ele>
        <time>2012-05-27T07:53:53Z</time>
      </trkpt>
      <trkpt lat="47.14864" lon="7.02723">
        <ele>839.85</ele>
        <time>2012-05-27T07:54:06Z</time>
      </trkpt>
      <trkpt lat="47.1486" lon="7.02727">
        <ele>841.29</ele>
        <time>2012-05-27T07:54:20Z</time>
      </trkpt>
      <trkpt lat="47.14855" lon="7.02731">
        <ele>842.73</ele>
        <time>2012-05-27T07:54:32Z</time>
      </trkpt>
      <trkpt lat="47.1485" lon="7.02732">
        <ele>842.25</ele>
        <time>2012-05-27T07:54:45Z</time>
      </trkpt>
      <trkpt lat="47.14843" lon="7.02735">
        <ele>842.25</ele>
        <time>2012-05-27T07:54:57Z</time>
      </trkpt>
      <trkpt lat="47.14835" lon="7.02741">
        <ele>842.73</ele>
        <time>2012-05-27T07:55:04Z</time>
      </trkpt>
      <trkpt lat="47.14823" lon="7.02753">
        <ele>843.69</ele>
        <time>2012-05-27T07:55:17Z</time>
      </trkpt>
      <trkpt lat="47.14809" lon="7.02754">
        <ele>843.69</ele>
        <time>2012-05-27T07:55:29Z</time>
      </trkpt>
      <trkpt lat="47.14798" lon="7.02763">
        <ele>844.18</ele>
        <time>2012-05-27T07:55:41Z</time>
      </trkpt>
      <trkpt lat="47.14793" lon="7.02765">
        <ele>846.58</ele>
        <time>2012-05-27T07:55:55Z</time>
      </trkpt>
      <trkpt lat="47.14788" lon="7.0278">
        <ele>847.06</ele>
        <time>2012-05-27T07:56:10Z</time>
      </trkpt>
      <trkpt lat="47.14785" lon="7.02794">
        <ele>848.5</ele>
        <time>2012-05-27T07:56:25Z</time>
      </trkpt>
      <trkpt lat="47.14781" lon="7.02806">
        <ele>849.94</ele>
        <time>2012-05-27T07:56:39Z</time>
      </trkpt>
      <trkpt lat="47.14776" lon="7.02818">
        <ele>852.35</ele>
        <time>2012-05-27T07:56:52Z</time>
      </trkpt>
      <trkpt lat="47.14762" lon="7.0283">
        <ele>857.15</ele>
        <time>2012-05-27T07:57:04Z</time>
      </trkpt>
      <trkpt lat="47.14752" lon="7.02841">
        <ele>859.08</ele>
        <time>2012-05-27T07:57:14Z</time>
      </trkpt>
      <trkpt lat="47.14735" lon="7.02853">
        <ele>858.59</ele>
        <time>2012-05-27T07:57:28Z</time>
      </trkpt>
      <trkpt lat="47.14726" lon="7.02861">
        <ele>860.52</ele>
        <time>2012-05-27T07:57:38Z</time>
      </trkpt>
      <trkpt lat="47.14721" lon="7.02865">
        <ele>861</ele>
        <time>2012-05-27T07:57:42Z</time>
      </trkpt>
      <trkpt lat="47.14714" lon="7.02872">
        <ele>861</ele>
        <time>2012-05-27T07:57:50Z</time>
      </trkpt>
      <trkpt lat="47.14699" lon="7.02876">
        <ele>860.04</ele>
        <time>2012-05-27T07:58:01Z</time>
      </trkpt>
      <trkpt lat="47.14699" lon="7.02877">
        <ele>860.52</ele>
        <time>2012-05-27T07:58:02Z</time>
      </trkpt>
      <trkpt lat="47.1469" lon="7.02875">
        <ele>858.59</ele>
        <time>2012-05-27T07:58:11Z</time>
      </trkpt>
      <trkpt lat="47.14678" lon="7.02879">
        <ele>855.71</ele>
        <time>2012-05-27T07:58:22Z</time>
      </trkpt>
      <trkpt lat="47.14672" lon="7.0288">
        <ele>855.71</ele>
        <time>2012-05-27T07:58:33Z</time>
      </trkpt>
      <trkpt lat="47.14665" lon="7.0288">
        <ele>854.27</ele>
        <time>2012-05-27T07:58:45Z</time>
      </trkpt>
      <trkpt lat="47.14653" lon="7.02883">
        <ele>852.83</ele>
        <time>2012-05-27T07:58:57Z</time>
      </trkpt>
      <trkpt lat="47.1465" lon="7.02884">
        <ele>852.35</ele>
        <time>2012-05-27T07:59:00Z</time>
      </trkpt>
      <trkpt lat="47.14645" lon="7.02884">
        <ele>852.35</ele>
        <time>2012-05-27T07:59:05Z</time>
      </trkpt>
      <trkpt lat="47.14642" lon="7.02894">
        <ele>853.31</ele>
        <time>2012-05-27T07:59:16Z</time>
      </trkpt>
      <trkpt lat="47.14636" lon="7.02903">
        <ele>852.35</ele>
        <time>2012-05-27T07:59:29Z</time>
      </trkpt>
      <trkpt lat="47.14618" lon="7.02898">
        <ele>859.56</ele>
        <time>2012-05-27T07:59:42Z</time>
      </trkpt>
      <trkpt lat="47.14607" lon="7.02909">
        <ele>876.38</ele>
        <time>2012-05-27T07:59:54Z</time>
      </trkpt>
      <trkpt lat="47.14601" lon="7.0292">
        <ele>877.82</ele>
        <time>2012-05-27T08:00:07Z</time>
      </trkpt>
      <trkpt lat="47.14599" lon="7.02924">
        <ele>878.78</ele>
        <time>2012-05-27T08:00:12Z</time>
      </trkpt>
      <trkpt lat="47.14596" lon="7.02928">
        <ele>880.22</ele>
        <time>2012-05-27T08:00:16Z</time>
      </trkpt>
      <trkpt lat="47.14593" lon="7.02943">
        <ele>886.47</ele>
        <time>2012-05-27T08:00:27Z</time>
      </trkpt>
      <trkpt lat="47.14586" lon="7.02957">
        <ele>899.93</ele>
        <time>2012-05-27T08:00:39Z</time>
      </trkpt>
      <trkpt lat="47.14584" lon="7.02961">
        <ele>901.85</ele>
        <time>2012-05-27T08:00:44Z</time>
      </trkpt>
      <trkpt lat="47.14579" lon="7.02969">
        <ele>905.22</ele>
        <time>2012-05-27T08:00:56Z</time>
      </trkpt>
      <trkpt lat="47.14574" lon="7.0297">
        <ele>907.14</ele>
        <time>2012-05-27T08:01:10Z</time>
      </trkpt>
      <trkpt lat="47.14567" lon="7.02972">
        <ele>907.62</ele>
        <time>2012-05-27T08:01:26Z</time>
      </trkpt>
      <trkpt lat="47.14565" lon="7.02972">
        <ele>907.14</ele>
        <time>2012-05-27T08:01:29Z</time>
      </trkpt>
      <trkpt lat="47.14554" lon="7.02975">
        <ele>910.03</ele>
        <time>2012-05-27T08:01:39Z</time>
      </trkpt>
      <trkpt lat="47.14547" lon="7.02987">
        <ele>912.43</ele>
        <time>2012-05-27T08:01:51Z</time>
      </trkpt>
      <trkpt lat="47.14536" lon="7.02994">
        <ele>909.06</ele>
        <time>2012-05-27T08:02:04Z</time>
      </trkpt>
      <trkpt lat="47.14521" lon="7.03001">
        <ele>909.54</ele>
        <time>2012-05-27T08:02:14Z</time>
      </trkpt>
      <trkpt lat="47.1452" lon="7.03002">
        <ele>910.03</ele>
        <time>2012-05-27T08:02:15Z</time>
      </trkpt>
      <trkpt lat="47.14509" lon="7.03007">
        <ele>912.43</ele>
        <time>2012-05-27T08:02:27Z</time>
      </trkpt>
      <trkpt lat="47.145" lon="7.03013">
        <ele>914.35</ele>
        <time>2012-05-27T08:02:36Z</time>
      </trkpt>
      <trkpt lat="47.14496" lon="7.03016">
        <ele>915.79</ele>
        <time>2012-05-27T08:02:41Z</time>
      </trkpt>
      <trkpt lat="47.14486" lon="7.03021">
        <ele>918.2</ele>
        <time>2012-05-27T08:02:49Z</time>
      </trkpt>
      <trkpt lat="47.14477" lon="7.03025">
        <ele>917.72</ele>
        <time>2012-05-27T08:02:58Z</time>
      </trkpt>
      <trkpt lat="47.14472" lon="7.03035">
        <ele>920.12</ele>
        <time>2012-05-27T08:03:11Z</time>
      </trkpt>
      <trkpt lat="47.14467" lon="7.0304">
        <ele>921.56</ele>
        <time>2012-05-27T08:03:17Z</time>
      </trkpt>
      <trkpt lat="47.14457" lon="7.03053">
        <ele>925.89</ele>
        <time>2012-05-27T08:03:29Z</time>
      </trkpt>
      <trkpt lat="47.14451" lon="7.03062">
        <ele>930.69</ele>
        <time>2012-05-27T08:03:40Z</time>
      </trkpt>
      <trkpt lat="47.14443" lon="7.03074">
        <ele>933.58</ele>
        <time>2012-05-27T08:03:53Z</time>
      </trkpt>
      <trkpt lat="47.14436" lon="7.03084">
        <ele>936.46</ele>
        <time>2012-05-27T08:04:05Z</time>
      </trkpt>
      <trkpt lat="47.14427" lon="7.03097">
        <ele>939.35</ele>
        <time>2012-05-27T08:04:17Z</time>
      </trkpt>
      <trkpt lat="47.14418" lon="7.03108">
        <ele>940.79</ele>
        <time>2012-05-27T08:04:30Z</time>
      </trkpt>
      <trkpt lat="47.1441" lon="7.03119">
        <ele>942.23</ele>
        <time>2012-05-27T08:04:42Z</time>
      </trkpt>
      <trkpt lat="47.14399" lon="7.03146">
        <ele>943.19</ele>
        <time>2012-05-27T08:04:59Z</time>
      </trkpt>
      <trkpt lat="47.14396" lon="7.03156">
        <ele>944.63</ele>
        <time>2012-05-27T08:05:10Z</time>
      </trkpt>
      <trkpt lat="47.14391" lon="7.03168">
        <ele>948.96</ele>
        <time>2012-05-27T08:05:21Z</time>
      </trkpt>
      <trkpt lat="47.14384" lon="7.0318">
        <ele>953.77</ele>
        <time>2012-05-27T08:05:32Z</time>
      </trkpt>
      <trkpt lat="47.14369" lon="7.03189">
        <ele>957.61</ele>
        <time>2012-05-27T08:05:46Z</time>
      </trkpt>
      <trkpt lat="47.14359" lon="7.03201">
        <ele>961.46</ele>
        <time>2012-05-27T08:06:00Z</time>
      </trkpt>
      <trkpt lat="47.14353" lon="7.03209">
        <ele>961.94</ele>
        <time>2012-05-27T08:06:14Z</time>
      </trkpt>
      <trkpt lat="47.14343" lon="7.03223">
        <ele>961.94</ele>
        <time>2012-05-27T08:06:27Z</time>
      </trkpt>
      <trkpt lat="47.14336" lon="7.03234">
        <ele>961.46</ele>
        <time>2012-05-27T08:06:39Z</time>
      </trkpt>
      <trkpt lat="47.14327" lon="7.03242">
        <ele>960.49</ele>
        <time>2012-05-27T08:06:52Z</time>
      </trkpt>
      <trkpt lat="47.14316" lon="7.03252">
        <ele>961.94</ele>
        <time>2012-05-27T08:07:05Z</time>
      </trkpt>
      <trkpt lat="47.14295" lon="7.03259">
        <ele>966.26</ele>
        <time>2012-05-27T08:07:20Z</time>
      </trkpt>
      <trkpt lat="47.14276" lon="7.03265">
        <ele>970.11</ele>
        <time>2012-05-27T08:07:32Z</time>
      </trkpt>
      <trkpt lat="47.14263" lon="7.03274">
        <ele>972.51</ele>
        <time>2012-05-27T08:07:46Z</time>
      </trkpt>
      <trkpt lat="47.14257" lon="7.03278">
        <ele>973.95</ele>
        <time>2012-05-27T08:08:01Z</time>
      </trkpt>
      <trkpt lat="47.14248" lon="7.03285">
        <ele>977.8</ele>
        <time>2012-05-27T08:08:16Z</time>
      </trkpt>
      <trkpt lat="47.14233" lon="7.03285">
        <ele>980.2</ele>
        <time>2012-05-27T08:08:32Z</time>
      </trkpt>
      <trkpt lat="47.14221" lon="7.03283">
        <ele>981.64</ele>
        <time>2012-05-27T08:08:46Z</time>
      </trkpt>
      <trkpt lat="47.1421" lon="7.03287">
        <ele>981.16</ele>
        <time>2012-05-27T08:09:01Z</time>
      </trkpt>
      <trkpt lat="47.14203" lon="7.0329">
        <ele>980.2</ele>
        <time>2012-05-27T08:09:14Z</time>
      </trkpt>
      <trkpt lat="47.14193" lon="7.03292">
        <ele>979.72</ele>
        <time>2012-05-27T08:09:27Z</time>
      </trkpt>
      <trkpt lat="47.14185" lon="7.03291">
        <ele>981.16</ele>
        <time>2012-05-27T08:09:42Z</time>
      </trkpt>
      <trkpt lat="47.1418" lon="7.03291">
        <ele>982.12</ele>
        <time>2012-05-27T08:09:58Z</time>
      </trkpt>
      <trkpt lat="47.14175" lon="7.0329">
        <ele>983.09</ele>
        <time>2012-05-27T08:10:14Z</time>
      </trkpt>
      <trkpt lat="47.14169" lon="7.03289">
        <ele>983.09</ele>
        <time>2012-05-27T08:10:29Z</time>
      </trkpt>
      <trkpt lat="47.14159" lon="7.03294">
        <ele>983.57</ele>
        <time>2012-05-27T08:10:42Z</time>
      </trkpt>
      <trkpt lat="47.14153" lon="7.03295">
        <ele>985.01</ele>
        <time>2012-05-27T08:10:50Z</time>
      </trkpt>
      <trkpt lat="47.14143" lon="7.03299">
        <ele>985.49</ele>
        <time>2012-05-27T08:11:02Z</time>
      </trkpt>
      <trkpt lat="47.14133" lon="7.03305">
        <ele>986.93</ele>
        <time>2012-05-27T08:11:18Z</time>
      </trkpt>
      <trkpt lat="47.14121" lon="7.03318">
        <ele>991.74</ele>
        <time>2012-05-27T08:11:32Z</time>
      </trkpt>
      <trkpt lat="47.14113" lon="7.03325">
        <ele>996.06</ele>
        <time>2012-05-27T08:11:44Z</time>
      </trkpt>
      <trkpt lat="47.14108" lon="7.03328">
        <ele>997.51</ele>
        <time>2012-05-27T08:11:55Z</time>
      </trkpt>
      <trkpt lat="47.14104" lon="7.03332">
        <ele>999.43</ele>
        <time>2012-05-27T08:12:09Z</time>
      </trkpt>
      <trkpt lat="47.141" lon="7.03337">
        <ele>1002.31</ele>
        <time>2012-05-27T08:12:24Z</time>
      </trkpt>
      <trkpt lat="47.14098" lon="7.03345">
        <ele>1003.27</ele>
        <time>2012-05-27T08:12:40Z</time>
      </trkpt>
      <trkpt lat="47.14096" lon="7.03352">
        <ele>1003.75</ele>
        <time>2012-05-27T08:12:54Z</time>
      </trkpt>
      <trkpt lat="47.14094" lon="7.03361">
        <ele>1003.27</ele>
        <time>2012-05-27T08:13:05Z</time>
      </trkpt>
      <trkpt lat="47.1409" lon="7.03372">
        <ele>1004.23</ele>
        <time>2012-05-27T08:13:17Z</time>
      </trkpt>
      <trkpt lat="47.14086" lon="7.03388">
        <ele>1007.6</ele>
        <time>2012-05-27T08:13:33Z</time>
      </trkpt>
      <trkpt lat="47.14083" lon="7.03395">
        <ele>1011.93</ele>
        <time>2012-05-27T08:13:47Z</time>
      </trkpt>
      <trkpt lat="47.14079" lon="7.03398">
        <ele>1013.37</ele>
        <time>2012-05-27T08:14:14Z</time>
      </trkpt>
      <trkpt lat="47.14076" lon="7.03404">
        <ele>1012.89</ele>
        <time>2012-05-27T08:14:30Z</time>
      </trkpt>
      <trkpt lat="47.14068" lon="7.03411">
        <ele>1015.29</ele>
        <time>2012-05-27T08:14:42Z</time>
      </trkpt>
      <trkpt lat="47.1406" lon="7.03413">
        <ele>1014.81</ele>
        <time>2012-05-27T08:14:48Z</time>
      </trkpt>
      <trkpt lat="47.14047" lon="7.0342">
        <ele>1014.33</ele>
        <time>2012-05-27T08:14:59Z</time>
      </trkpt>
      <trkpt lat="47.14038" lon="7.03424">
        <ele>1014.81</ele>
        <time>2012-05-27T08:15:11Z</time>
      </trkpt>
      <trkpt lat="47.14032" lon="7.03431">
        <ele>1019.13</ele>
        <time>2012-05-27T08:15:23Z</time>
      </trkpt>
      <trkpt lat="47.1403" lon="7.03434">
        <ele>1021.06</ele>
        <time>2012-05-27T08:15:27Z</time>
      </trkpt>
      <trkpt lat="47.1402" lon="7.03444">
        <ele>1024.42</ele>
        <time>2012-05-27T08:15:39Z</time>
      </trkpt>
      <trkpt lat="47.14008" lon="7.03452">
        <ele>1025.38</ele>
        <time>2012-05-27T08:15:51Z</time>
      </trkpt>
      <trkpt lat="47.14001" lon="7.03457">
        <ele>1030.19</ele>
        <time>2012-05-27T08:16:03Z</time>
      </trkpt>
      <trkpt lat="47.13995" lon="7.03461">
        <ele>1031.63</ele>
        <time>2012-05-27T08:16:13Z</time>
      </trkpt>
      <trkpt lat="47.13986" lon="7.03463">
        <ele>1032.59</ele>
        <time>2012-05-27T08:16:24Z</time>
      </trkpt>
      <trkpt lat="47.13979" lon="7.03469">
        <ele>1032.11</ele>
        <time>2012-05-27T08:16:37Z</time>
      </trkpt>
      <trkpt lat="47.13968" lon="7.03474">
        <ele>1034.52</ele>
        <time>2012-05-27T08:16:53Z</time>
      </trkpt>
      <trkpt lat="47.13958" lon="7.03475">
        <ele>1036.92</ele>
        <time>2012-05-27T08:17:07Z</time>
      </trkpt>
      <trkpt lat="47.13954" lon="7.03478">
        <ele>1038.36</ele>
        <time>2012-05-27T08:17:21Z</time>
      </trkpt>
      <trkpt lat="47.13948" lon="7.03479">
        <ele>1039.8</ele>
        <time>2012-05-27T08:17:35Z</time>
      </trkpt>
      <trkpt lat="47.1394" lon="7.03485">
        <ele>1041.73</ele>
        <time>2012-05-27T08:17:49Z</time>
      </trkpt>
      <trkpt lat="47.13931" lon="7.03486">
        <ele>1043.65</ele>
        <time>2012-05-27T08:18:03Z</time>
      </trkpt>
      <trkpt lat="47.13927" lon="7.03489">
        <ele>1045.57</ele>
        <time>2012-05-27T08:18:14Z</time>
      </trkpt>
      <trkpt lat="47.13919" lon="7.03492">
        <ele>1046.53</ele>
        <time>2012-05-27T08:18:25Z</time>
      </trkpt>
      <trkpt lat="47.13909" lon="7.03497">
        <ele>1048.94</ele>
        <time>2012-05-27T08:18:36Z</time>
      </trkpt>
      <trkpt lat="47.139" lon="7.03502">
        <ele>1052.3</ele>
        <time>2012-05-27T08:18:48Z</time>
      </trkpt>
      <trkpt lat="47.13892" lon="7.03505">
        <ele>1055.67</ele>
        <time>2012-05-27T08:19:00Z</time>
      </trkpt>
      <trkpt lat="47.1388" lon="7.0351">
        <ele>1058.55</ele>
        <time>2012-05-27T08:19:14Z</time>
      </trkpt>
      <trkpt lat="47.13868" lon="7.03504">
        <ele>1060.95</ele>
        <time>2012-05-27T08:19:27Z</time>
      </trkpt>
      <trkpt lat="47.13858" lon="7.03504">
        <ele>1059.51</ele>
        <time>2012-05-27T08:19:49Z</time>
      </trkpt>
      <trkpt lat="47.13855" lon="7.03511">
        <ele>1061.43</ele>
        <time>2012-05-27T08:20:08Z</time>
      </trkpt>
      <trkpt lat="47.13855" lon="7.03511">
        <ele>1060.95</ele>
        <time>2012-05-27T08:20:09Z</time>
      </trkpt>
      <trkpt lat="47.13854" lon="7.03516">
        <ele>1060.47</ele>
        <time>2012-05-27T08:20:22Z</time>
      </trkpt>
      <trkpt lat="47.13852" lon="7.03519">
        <ele>1060.95</ele>
        <time>2012-05-27T08:20:30Z</time>
      </trkpt>
      <trkpt lat="47.1385" lon="7.03519">
        <ele>1061.91</ele>
        <time>2012-05-27T08:20:43Z</time>
      </trkpt>
      <trkpt lat="47.13847" lon="7.03521">
        <ele>1062.39</ele>
        <time>2012-05-27T08:20:54Z</time>
      </trkpt>
      <trkpt lat="47.13838" lon="7.03524">
        <ele>1063.36</ele>
        <time>2012-05-27T08:21:05Z</time>
      </trkpt>
      <trkpt lat="47.13828" lon="7.03523">
        <ele>1067.2</ele>
        <time>2012-05-27T08:21:17Z</time>
      </trkpt>
      <trkpt lat="47.13826" lon="7.03527">
        <ele>1066.72</ele>
        <time>2012-05-27T08:21:30Z</time>
      </trkpt>
      <trkpt lat="47.13828" lon="7.03537">
        <ele>1066.72</ele>
        <time>2012-05-27T08:21:43Z</time>
      </trkpt>
      <trkpt lat="47.13826" lon="7.03542">
        <ele>1068.64</ele>
        <time>2012-05-27T08:21:55Z</time>
      </trkpt>
      <trkpt lat="47.13825" lon="7.03545">
        <ele>1069.6</ele>
        <time>2012-05-27T08:22:04Z</time>
      </trkpt>
      <trkpt lat="47.13823" lon="7.03544">
        <ele>1070.08</ele>
        <time>2012-05-27T08:22:11Z</time>
      </trkpt>
      <trkpt lat="47.13822" lon="7.03538">
        <ele>1070.57</ele>
        <time>2012-05-27T08:22:21Z</time>
      </trkpt>
      <trkpt lat="47.13822" lon="7.03555">
        <ele>1070.57</ele>
        <time>2012-05-27T08:22:30Z</time>
      </trkpt>
      <trkpt lat="47.13827" lon="7.03575">
        <ele>1076.33</ele>
        <time>2012-05-27T08:22:44Z</time>
      </trkpt>
      <trkpt lat="47.13831" lon="7.03586">
        <ele>1084.5</ele>
        <time>2012-05-27T08:22:57Z</time>
      </trkpt>
      <trkpt lat="47.13826" lon="7.03585">
        <ele>1090.75</ele>
        <time>2012-05-27T08:23:08Z</time>
      </trkpt>
      <trkpt lat="47.13813" lon="7.03585">
        <ele>1095.08</ele>
        <time>2012-05-27T08:23:18Z</time>
      </trkpt>
      <trkpt lat="47.13803" lon="7.03585">
        <ele>1099.89</ele>
        <time>2012-05-27T08:23:30Z</time>
      </trkpt>
      <trkpt lat="47.13791" lon="7.03588">
        <ele>1104.69</ele>
        <time>2012-05-27T08:23:45Z</time>
      </trkpt>
      <trkpt lat="47.13787" lon="7.03591">
        <ele>1105.65</ele>
        <time>2012-05-27T08:23:59Z</time>
      </trkpt>
      <trkpt lat="47.13787" lon="7.03599">
        <ele>1106.13</ele>
        <time>2012-05-27T08:24:13Z</time>
      </trkpt>
      <trkpt lat="47.13781" lon="7.03608">
        <ele>1109.5</ele>
        <time>2012-05-27T08:24:26Z</time>
      </trkpt>
      <trkpt lat="47.13778" lon="7.03611">
        <ele>1111.9</ele>
        <time>2012-05-27T08:24:39Z</time>
      </trkpt>
      <trkpt lat="47.13772" lon="7.03613">
        <ele>1114.31</ele>
        <time>2012-05-27T08:24:53Z</time>
      </trkpt>
      <trkpt lat="47.13771" lon="7.03612">
        <ele>1115.75</ele>
        <time>2012-05-27T08:25:00Z</time>
      </trkpt>
      <trkpt lat="47.13774" lon="7.03604">
        <ele>1118.15</ele>
        <time>2012-05-27T08:25:10Z</time>
      </trkpt>
      <trkpt lat="47.13773" lon="7.03588">
        <ele>1122</ele>
        <time>2012-05-27T08:25:22Z</time>
      </trkpt>
      <trkpt lat="47.13772" lon="7.03579">
        <ele>1123.92</ele>
        <time>2012-05-27T08:25:34Z</time>
      </trkpt>
      <trkpt lat="47.13773" lon="7.03572">
        <ele>1123.92</ele>
        <time>2012-05-27T08:25:48Z</time>
      </trkpt>
      <trkpt lat="47.13773" lon="7.0357">
        <ele>1124.4</ele>
        <time>2012-05-27T08:25:59Z</time>
      </trkpt>
      <trkpt lat="47.13773" lon="7.03573">
        <ele>1125.36</ele>
        <time>2012-05-27T08:26:13Z</time>
      </trkpt>
      <trkpt lat="47.13771" lon="7.03579">
        <ele>1125.36</ele>
        <time>2012-05-27T08:26:25Z</time>
      </trkpt>
      <trkpt lat="47.13769" lon="7.03582">
        <ele>1125.84</ele>
        <time>2012-05-27T08:26:36Z</time>
      </trkpt>
      <trkpt lat="47.13764" lon="7.03584">
        <ele>1125.84</ele>
        <time>2012-05-27T08:26:46Z</time>
      </trkpt>
      <trkpt lat="47.13762" lon="7.03581">
        <ele>1126.32</ele>
        <time>2012-05-27T08:26:59Z</time>
      </trkpt>
      <trkpt lat="47.13764" lon="7.03578">
        <ele>1126.8</ele>
        <time>2012-05-27T08:27:12Z</time>
      </trkpt>
      <trkpt lat="47.13763" lon="7.03577">
        <ele>1127.28</ele>
        <time>2012-05-27T08:27:26Z</time>
      </trkpt>
      <trkpt lat="47.13762" lon="7.03579">
        <ele>1127.76</ele>
        <time>2012-05-27T08:27:40Z</time>
      </trkpt>
      <trkpt lat="47.13763" lon="7.03579">
        <ele>1127.76</ele>
        <time>2012-05-27T08:27:54Z</time>
      </trkpt>
      <trkpt lat="47.13764" lon="7.03579">
        <ele>1128.73</ele>
        <time>2012-05-27T08:28:07Z</time>
      </trkpt>
      <trkpt lat="47.13768" lon="7.03583">
        <ele>1129.21</ele>
        <time>2012-05-27T08:28:19Z</time>
      </trkpt>
      <trkpt lat="47.13774" lon="7.03588">
        <ele>1129.69</ele>
        <time>2012-05-27T08:28:30Z</time>
      </trkpt>
      <trkpt lat="47.13779" lon="7.03596">
        <ele>1130.17</ele>
        <time>2012-05-27T08:28:47Z</time>
      </trkpt>
      <trkpt lat="47.13782" lon="7.03603">
        <ele>1130.17</ele>
        <time>2012-05-27T08:28:59Z</time>
      </trkpt>
      <trkpt lat="47.13782" lon="7.03607">
        <ele>1130.65</ele>
        <time>2012-05-27T08:29:11Z</time>
      </trkpt>
      <trkpt lat="47.13781" lon="7.0361">
        <ele>1131.13</ele>
        <time>2012-05-27T08:29:25Z</time>
      </trkpt>
      <trkpt lat="47.1378" lon="7.03613">
        <ele>1131.61</ele>
        <time>2012-05-27T08:29:38Z</time>
      </trkpt>
      <trkpt lat="47.1378" lon="7.03617">
        <ele>1131.61</ele>
        <time>2012-05-27T08:29:46Z</time>
      </trkpt>
      <trkpt lat="47.13775" lon="7.0362">
        <ele>1132.09</ele>
        <time>2012-05-27T08:29:57Z</time>
      </trkpt>
      <trkpt lat="47.13769" lon="7.03626">
        <ele>1132.57</ele>
        <time>2012-05-27T08:30:05Z</time>
      </trkpt>
      <trkpt lat="47.13763" lon="7.03633">
        <ele>1133.05</ele>
        <time>2012-05-27T08:30:14Z</time>
      </trkpt>
      <trkpt lat="47.13757" lon="7.03631">
        <ele>1133.05</ele>
        <time>2012-05-27T08:30:27Z</time>
      </trkpt>
      <trkpt lat="47.13748" lon="7.03629">
        <ele>1133.05</ele>
        <time>2012-05-27T08:30:40Z</time>
      </trkpt>
      <trkpt lat="47.13745" lon="7.03629">
        <ele>1133.05</ele>
        <time>2012-05-27T08:30:52Z</time>
      </trkpt>
      <trkpt lat="47.13742" lon="7.03628">
        <ele>1133.53</ele>
        <time>2012-05-27T08:31:04Z</time>
      </trkpt>
      <trkpt lat="47.1374" lon="7.03628">
        <ele>1133.53</ele>
        <time>2012-05-27T08:31:18Z</time>
      </trkpt>
      <trkpt lat="47.13739" lon="7.03628">
        <ele>1134.01</ele>
        <time>2012-05-27T08:31:31Z</time>
      </trkpt>
      <trkpt lat="47.13736" lon="7.03631">
        <ele>1134.49</ele>
        <time>2012-05-27T08:31:43Z</time>
      </trkpt>
      <trkpt lat="47.13735" lon="7.03634">
        <ele>1134.97</ele>
        <time>2012-05-27T08:31:54Z</time>
      </trkpt>
      <trkpt lat="47.13735" lon="7.03637">
        <ele>1134.97</ele>
        <time>2012-05-27T08:32:10Z</time>
      </trkpt>
      <trkpt lat="47.13738" lon="7.03644">
        <ele>1135.45</ele>
        <time>2012-05-27T08:32:24Z</time>
      </trkpt>
      <trkpt lat="47.13737" lon="7.03646">
        <ele>1135.94</ele>
        <time>2012-05-27T08:32:34Z</time>
      </trkpt>
      <trkpt lat="47.13733" lon="7.03651">
        <ele>1135.94</ele>
        <time>2012-05-27T08:32:45Z</time>
      </trkpt>
      <trkpt lat="47.1373" lon="7.03652">
        <ele>1136.42</ele>
        <time>2012-05-27T08:32:56Z</time>
      </trkpt>
      <trkpt lat="47.13716" lon="7.0364">
        <ele>1135.94</ele>
        <time>2012-05-27T08:33:10Z</time>
      </trkpt>
      <trkpt lat="47.13711" lon="7.03639">
        <ele>1136.42</ele>
        <time>2012-05-27T08:33:24Z</time>
      </trkpt>
      <trkpt lat="47.13696" lon="7.0363">
        <ele>1157.08</ele>
        <time>2012-05-27T08:33:35Z</time>
      </trkpt>
      <trkpt lat="47.13684" lon="7.03605">
        <ele>1219.57</ele>
        <time>2012-05-27T08:33:45Z</time>
      </trkpt>
      <trkpt lat="47.13681" lon="7.03613">
        <ele>1222.93</ele>
        <time>2012-05-27T08:33:56Z</time>
      </trkpt>
      <trkpt lat="47.13673" lon="7.03622">
        <ele>1226.3</ele>
        <time>2012-05-27T08:34:07Z</time>
      </trkpt>
      <trkpt lat="47.13669" lon="7.03628">
        <ele>1227.74</ele>
        <time>2012-05-27T08:34:19Z</time>
      </trkpt>
      <trkpt lat="47.13669" lon="7.03644">
        <ele>1215.72</ele>
        <time>2012-05-27T08:34:30Z</time>
      </trkpt>
      <trkpt lat="47.1367" lon="7.03647">
        <ele>1213.8</ele>
        <time>2012-05-27T08:34:39Z</time>
      </trkpt>
      <trkpt lat="47.13664" lon="7.03646">
        <ele>1215.72</ele>
        <time>2012-05-27T08:34:51Z</time>
      </trkpt>
      <trkpt lat="47.13676" lon="7.03645">
        <ele>1217.65</ele>
        <time>2012-05-27T08:35:07Z</time>
      </trkpt>
      <trkpt lat="47.13695" lon="7.03651">
        <ele>1218.13</ele>
        <time>2012-05-27T08:35:39Z</time>
      </trkpt>
      <trkpt lat="47.13693" lon="7.03642">
        <ele>1218.61</ele>
        <time>2012-05-27T08:35:50Z</time>
      </trkpt>
      <trkpt lat="47.13687" lon="7.03635">
        <ele>1218.61</ele>
        <time>2012-05-27T08:35:54Z</time>
      </trkpt>
      <trkpt lat="47.13683" lon="7.03628">
        <ele>1219.09</ele>
        <time>2012-05-27T08:35:59Z</time>
      </trkpt>
      <trkpt lat="47.13674" lon="7.03613">
        <ele>1222.45</ele>
        <time>2012-05-27T08:36:11Z</time>
      </trkpt>
      <trkpt lat="47.13675" lon="7.03598">
        <ele>1230.14</ele>
        <time>2012-05-27T08:36:21Z</time>
      </trkpt>
      <trkpt lat="47.13677" lon="7.03596">
        <ele>1238.8</ele>
        <time>2012-05-27T08:36:31Z</time>
      </trkpt>
      <trkpt lat="47.13679" lon="7.03598">
        <ele>1238.8</ele>
        <time>2012-05-27T08:36:45Z</time>
      </trkpt>
      <trkpt lat="47.13676" lon="7.036">
        <ele>1239.28</ele>
        <time>2012-05-27T08:37:01Z</time>
      </trkpt>
      <trkpt lat="47.13676" lon="7.03607">
        <ele>1238.8</ele>
        <time>2012-05-27T08:37:15Z</time>
      </trkpt>
      <trkpt lat="47.13676" lon="7.03616">
        <ele>1238.8</ele>
        <time>2012-05-27T08:37:29Z</time>
      </trkpt>
      <trkpt lat="47.13677" lon="7.03633">
        <ele>1238.32</ele>
        <time>2012-05-27T08:37:40Z</time>
      </trkpt>
      <trkpt lat="47.13676" lon="7.03655">
        <ele>1237.35</ele>
        <time>2012-05-27T08:37:55Z</time>
      </trkpt>
      <trkpt lat="47.13671" lon="7.03662">
        <ele>1240.24</ele>
        <time>2012-05-27T08:38:06Z</time>
      </trkpt>
      <trkpt lat="47.13665" lon="7.03672">
        <ele>1242.16</ele>
        <time>2012-05-27T08:38:21Z</time>
      </trkpt>
      <trkpt lat="47.13664" lon="7.03671">
        <ele>1247.45</ele>
        <time>2012-05-27T08:38:33Z</time>
      </trkpt>
      <trkpt lat="47.1367" lon="7.03675">
        <ele>1247.93</ele>
        <time>2012-05-27T08:38:46Z</time>
      </trkpt>
      <trkpt lat="47.13672" lon="7.03675">
        <ele>1247.93</ele>
        <time>2012-05-27T08:38:58Z</time>
      </trkpt>
      <trkpt lat="47.13676" lon="7.03675">
        <ele>1247.93</ele>
        <time>2012-05-27T08:39:11Z</time>
      </trkpt>
      <trkpt lat="47.13678" lon="7.03674">
        <ele>1248.41</ele>
        <time>2012-05-27T08:39:23Z</time>
      </trkpt>
      <trkpt lat="47.13676" lon="7.03674">
        <ele>1248.41</ele>
        <time>2012-05-27T08:39:38Z</time>
      </trkpt>
      <trkpt lat="47.13672" lon="7.03676">
        <ele>1248.41</ele>
        <time>2012-05-27T08:39:54Z</time>
      </trkpt>
      <trkpt lat="47.13632" lon="7.03618">
        <ele>1320.03</ele>
        <time>2012-05-27T08:40:11Z</time>
      </trkpt>
      <trkpt lat="47.13635" lon="7.03642">
        <ele>1356.56</ele>
        <time>2012-05-27T08:40:25Z</time>
      </trkpt>
      <trkpt lat="47.13649" lon="7.03652">
        <ele>1377.23</ele>
        <time>2012-05-27T08:40:39Z</time>
      </trkpt>
      <trkpt lat="47.13652" lon="7.03656">
        <ele>1381.55</ele>
        <time>2012-05-27T08:40:55Z</time>
      </trkpt>
      <trkpt lat="47.1365" lon="7.03682">
        <ele>1359.92</ele>
        <time>2012-05-27T08:41:11Z</time>
      </trkpt>
      <trkpt lat="47.13648" lon="7.03682">
        <ele>1342.14</ele>
        <time>2012-05-27T08:41:23Z</time>
      </trkpt>
      <trkpt lat="47.13653" lon="7.0368">
        <ele>1338.29</ele>
        <time>2012-05-27T08:41:39Z</time>
      </trkpt>
      <trkpt lat="47.13652" lon="7.0368">
        <ele>1327.24</ele>
        <time>2012-05-27T08:41:51Z</time>
      </trkpt>
      <trkpt lat="47.13651" lon="7.03682">
        <ele>1320.99</ele>
        <time>2012-05-27T08:42:07Z</time>
      </trkpt>
      <trkpt lat="47.13651" lon="7.0369">
        <ele>1310.41</ele>
        <time>2012-05-27T08:42:23Z</time>
      </trkpt>
      <trkpt lat="47.13646" lon="7.0371">
        <ele>1300.8</ele>
        <time>2012-05-27T08:42:40Z</time>
      </trkpt>
      <trkpt lat="47.13645" lon="7.03731">
        <ele>1289.75</ele>
        <time>2012-05-27T08:42:53Z</time>
      </trkpt>
      <trkpt lat="47.13642" lon="7.03739">
        <ele>1286.38</ele>
        <time>2012-05-27T08:42:58Z</time>
      </trkpt>
      <trkpt lat="47.13637" lon="7.03755">
        <ele>1282.54</ele>
        <time>2012-05-27T08:43:12Z</time>
      </trkpt>
      <trkpt lat="47.13628" lon="7.03775">
        <ele>1275.81</ele>
        <time>2012-05-27T08:43:26Z</time>
      </trkpt>
      <trkpt lat="47.13623" lon="7.03788">
        <ele>1276.77</ele>
        <time>2012-05-27T08:43:40Z</time>
      </trkpt>
      <trkpt lat="47.13621" lon="7.03795">
        <ele>1276.29</ele>
        <time>2012-05-27T08:43:52Z</time>
      </trkpt>
      <trkpt lat="47.13618" lon="7.03796">
        <ele>1275.33</ele>
        <time>2012-05-27T08:44:08Z</time>
      </trkpt>
      <trkpt lat="47.13611" lon="7.03801">
        <ele>1277.25</ele>
        <time>2012-05-27T08:44:22Z</time>
      </trkpt>
      <trkpt lat="47.13603" lon="7.03808">
        <ele>1275.81</ele>
        <time>2012-05-27T08:44:35Z</time>
      </trkpt>
      <trkpt lat="47.13598" lon="7.03822">
        <ele>1274.85</ele>
        <time>2012-05-27T08:44:48Z</time>
      </trkpt>
      <trkpt lat="47.13592" lon="7.0383">
        <ele>1274.36</ele>
        <time>2012-05-27T08:44:58Z</time>
      </trkpt>
      <trkpt lat="47.13592" lon="7.03838">
        <ele>1274.36</ele>
        <time>2012-05-27T08:45:12Z</time>
      </trkpt>
      <trkpt lat="47.13587" lon="7.03844">
        <ele>1274.36</ele>
        <time>2012-05-27T08:45:39Z</time>
      </trkpt>
      <trkpt lat="47.13587" lon="7.03843">
        <ele>1274.36</ele>
        <time>2012-05-27T08:45:53Z</time>
      </trkpt>
      <trkpt lat="47.13588" lon="7.03843">
        <ele>1274.36</ele>
        <time>2012-05-27T08:46:04Z</time>
      </trkpt>
      <trkpt lat="47.13614" lon="7.03846">
        <ele>1421.93</ele>
        <time>2012-05-27T08:46:22Z</time>
      </trkpt>
      <trkpt lat="47.13589" lon="7.03847">
        <ele>1411.35</ele>
        <time>2012-05-27T08:46:47Z</time>
      </trkpt>
      <trkpt lat="47.13588" lon="7.0384">
        <ele>1382.03</ele>
        <time>2012-05-27T08:47:03Z</time>
      </trkpt>
      <trkpt lat="47.13587" lon="7.0384">
        <ele>1359.92</ele>
        <time>2012-05-27T08:47:21Z</time>
      </trkpt>
      <trkpt lat="47.13594" lon="7.03827">
        <ele>1319.07</ele>
        <time>2012-05-27T08:47:45Z</time>
      </trkpt>
      <trkpt lat="47.1359" lon="7.03822">
        <ele>1308.97</ele>
        <time>2012-05-27T08:48:10Z</time>
      </trkpt>
      <trkpt lat="47.13584" lon="7.03822">
        <ele>1294.07</ele>
        <time>2012-05-27T08:48:33Z</time>
      </trkpt>
      <trkpt lat="47.13585" lon="7.03821">
        <ele>1290.71</ele>
        <time>2012-05-27T08:48:45Z</time>
      </trkpt>
      <trkpt lat="47.13585" lon="7.03818">
        <ele>1289.27</ele>
        <time>2012-05-27T08:49:04Z</time>
      </trkpt>
      <trkpt lat="47.13584" lon="7.03811">
        <ele>1287.82</ele>
        <time>2012-05-27T08:49:36Z</time>
      </trkpt>
      <trkpt lat="47.13586" lon="7.03811">
        <ele>1287.34</ele>
        <time>2012-05-27T08:49:49Z</time>
      </trkpt>
      <trkpt lat="47.13589" lon="7.0381">
        <ele>1287.82</ele>
        <time>2012-05-27T08:50:03Z</time>
      </trkpt>
      <trkpt lat="47.13596" lon="7.03807">
        <ele>1288.3</ele>
        <time>2012-05-27T08:50:15Z</time>
      </trkpt>
      <trkpt lat="47.13601" lon="7.03808">
        <ele>1286.86</ele>
        <time>2012-05-27T08:50:27Z</time>
      </trkpt>
      <trkpt lat="47.1361" lon="7.03809">
        <ele>1286.38</ele>
        <time>2012-05-27T08:50:42Z</time>
      </trkpt>
      <trkpt lat="47.13622" lon="7.03805">
        <ele>1284.46</ele>
        <time>2012-05-27T08:50:56Z</time>
      </trkpt>
      <trkpt lat="47.13635" lon="7.03805">
        <ele>1286.38</ele>
        <time>2012-05-27T08:51:10Z</time>
      </trkpt>
      <trkpt lat="47.13648" lon="7.03796">
        <ele>1286.38</ele>
        <time>2012-05-27T08:51:24Z</time>
      </trkpt>
      <trkpt lat="47.13657" lon="7.0379">
        <ele>1283.98</ele>
        <time>2012-05-27T08:51:34Z</time>
      </trkpt>
      <trkpt lat="47.1367" lon="7.03787">
        <ele>1284.46</ele>
        <time>2012-05-27T08:51:47Z</time>
      </trkpt>
      <trkpt lat="47.13681" lon="7.03784">
        <ele>1285.9</ele>
        <time>2012-05-27T08:51:59Z</time>
      </trkpt>
      <trkpt lat="47.13689" lon="7.03777">
        <ele>1287.82</ele>
        <time>2012-05-27T08:52:11Z</time>
      </trkpt>
      <trkpt lat="47.13696" lon="7.03775">
        <ele>1288.78</ele>
        <time>2012-05-27T08:52:23Z</time>
      </trkpt>
      <trkpt lat="47.13719" lon="7.03776">
        <ele>1301.76</ele>
        <time>2012-05-27T08:52:52Z</time>
      </trkpt>
      <trkpt lat="47.13725" lon="7.03777">
        <ele>1305.61</ele>
        <time>2012-05-27T08:53:04Z</time>
      </trkpt>
      <trkpt lat="47.13732" lon="7.03782">
        <ele>1306.09</ele>
        <time>2012-05-27T08:53:17Z</time>
      </trkpt>
      <trkpt lat="47.13737" lon="7.03784">
        <ele>1307.53</ele>
        <time>2012-05-27T08:53:27Z</time>
      </trkpt>
      <trkpt lat="47.13744" lon="7.03786">
        <ele>1309.45</ele>
        <time>2012-05-27T08:53:40Z</time>
      </trkpt>
      <trkpt lat="47.1375" lon="7.03791">
        <ele>1312.34</ele>
        <time>2012-05-27T08:53:52Z</time>
      </trkpt>
      <trkpt lat="47.13757" lon="7.03795">
        <ele>1315.22</ele>
        <time>2012-05-27T08:54:05Z</time>
      </trkpt>
      <trkpt lat="47.13762" lon="7.03798">
        <ele>1316.18</ele>
        <time>2012-05-27T08:54:17Z</time>
      </trkpt>
      <trkpt lat="47.13766" lon="7.03798">
        <ele>1318.59</ele>
        <time>2012-05-27T08:54:29Z</time>
      </trkpt>
      <trkpt lat="47.1378" lon="7.03801">
        <ele>1324.83</ele>
        <time>2012-05-27T08:54:44Z</time>
      </trkpt>
      <trkpt lat="47.13789" lon="7.038">
        <ele>1329.64</ele>
        <time>2012-05-27T08:54:57Z</time>
      </trkpt>
      <trkpt lat="47.13794" lon="7.03799">
        <ele>1331.08</ele>
        <time>2012-05-27T08:55:08Z</time>
      </trkpt>
      <trkpt lat="47.13803" lon="7.03795">
        <ele>1333.97</ele>
        <time>2012-05-27T08:55:21Z</time>
      </trkpt>
      <trkpt lat="47.1381" lon="7.03792">
        <ele>1333.97</ele>
        <time>2012-05-27T08:55:33Z</time>
      </trkpt>
      <trkpt lat="47.13815" lon="7.03789">
        <ele>1336.37</ele>
        <time>2012-05-27T08:55:44Z</time>
      </trkpt>
      <trkpt lat="47.13819" lon="7.03787">
        <ele>1338.77</ele>
        <time>2012-05-27T08:55:54Z</time>
      </trkpt>
      <trkpt lat="47.13826" lon="7.03785">
        <ele>1341.18</ele>
        <time>2012-05-27T08:56:08Z</time>
      </trkpt>
      <trkpt lat="47.1383" lon="7.03784">
        <ele>1341.66</ele>
        <time>2012-05-27T08:56:18Z</time>
      </trkpt>
      <trkpt lat="47.13835" lon="7.03783">
        <ele>1341.66</ele>
        <time>2012-05-27T08:56:29Z</time>
      </trkpt>
      <trkpt lat="47.1384" lon="7.03783">
        <ele>1341.18</ele>
        <time>2012-05-27T08:56:41Z</time>
      </trkpt>
      <trkpt lat="47.13847" lon="7.0378">
        <ele>1345.5</ele>
        <time>2012-05-27T08:56:51Z</time>
      </trkpt>
      <trkpt lat="47.13855" lon="7.03778">
        <ele>1348.87</ele>
        <time>2012-05-27T08:57:04Z</time>
      </trkpt>
      <trkpt lat="47.13858" lon="7.03777">
        <ele>1352.23</ele>
        <time>2012-05-27T08:57:14Z</time>
      </trkpt>
      <trkpt lat="47.13863" lon="7.03777">
        <ele>1355.12</ele>
        <time>2012-05-27T08:57:23Z</time>
      </trkpt>
      <trkpt lat="47.13868" lon="7.03783">
        <ele>1357.04</ele>
        <time>2012-05-27T08:57:33Z</time>
      </trkpt>
      <trkpt lat="47.13871" lon="7.03789">
        <ele>1356.56</ele>
        <time>2012-05-27T08:57:43Z</time>
      </trkpt>
      <trkpt lat="47.13877" lon="7.03801">
        <ele>1356.08</ele>
        <time>2012-05-27T08:57:54Z</time>
      </trkpt>
      <trkpt lat="47.13886" lon="7.03803">
        <ele>1357.52</ele>
        <time>2012-05-27T08:58:11Z</time>
      </trkpt>
      <trkpt lat="47.13894" lon="7.03807">
        <ele>1359.92</ele>
        <time>2012-05-27T08:58:24Z</time>
      </trkpt>
      <trkpt lat="47.13897" lon="7.0381">
        <ele>1360.88</ele>
        <time>2012-05-27T08:58:34Z</time>
      </trkpt>
      <trkpt lat="47.13897" lon="7.03807">
        <ele>1361.84</ele>
        <time>2012-05-27T08:58:37Z</time>
      </trkpt>
      <trkpt lat="47.13905" lon="7.03796">
        <ele>1360.88</ele>
        <time>2012-05-27T08:58:48Z</time>
      </trkpt>
      <trkpt lat="47.13909" lon="7.03783">
        <ele>1363.77</ele>
        <time>2012-05-27T08:59:00Z</time>
      </trkpt>
      <trkpt lat="47.13912" lon="7.03783">
        <ele>1360.88</ele>
        <time>2012-05-27T08:59:19Z</time>
      </trkpt>
      <trkpt lat="47.13913" lon="7.03783">
        <ele>1359.92</ele>
        <time>2012-05-27T08:59:25Z</time>
      </trkpt>
      <trkpt lat="47.13916" lon="7.03784">
        <ele>1359.92</ele>
        <time>2012-05-27T08:59:38Z</time>
      </trkpt>
      <trkpt lat="47.13917" lon="7.03787">
        <ele>1359.44</ele>
        <time>2012-05-27T08:59:50Z</time>
      </trkpt>
      <trkpt lat="47.13922" lon="7.03806">
        <ele>1358</ele>
        <time>2012-05-27T09:00:03Z</time>
      </trkpt>
      <trkpt lat="47.13924" lon="7.03821">
        <ele>1356.08</ele>
        <time>2012-05-27T09:00:15Z</time>
      </trkpt>
      <trkpt lat="47.13929" lon="7.03839">
        <ele>1354.15</ele>
        <time>2012-05-27T09:00:26Z</time>
      </trkpt>
      <trkpt lat="47.13932" lon="7.03856">
        <ele>1354.63</ele>
        <time>2012-05-27T09:00:40Z</time>
      </trkpt>
      <trkpt lat="47.1394" lon="7.03871">
        <ele>1354.15</ele>
        <time>2012-05-27T09:00:51Z</time>
      </trkpt>
      <trkpt lat="47.13948" lon="7.0389">
        <ele>1354.63</ele>
        <time>2012-05-27T09:01:03Z</time>
      </trkpt>
      <trkpt lat="47.13953" lon="7.03899">
        <ele>1355.12</ele>
        <time>2012-05-27T09:01:09Z</time>
      </trkpt>
      <trkpt lat="47.1396" lon="7.0392">
        <ele>1354.15</ele>
        <time>2012-05-27T09:01:22Z</time>
      </trkpt>
      <trkpt lat="47.13965" lon="7.03939">
        <ele>1355.12</ele>
        <time>2012-05-27T09:01:34Z</time>
      </trkpt>
      <trkpt lat="47.13967" lon="7.03942">
        <ele>1355.12</ele>
        <time>2012-05-27T09:01:36Z</time>
      </trkpt>
      <trkpt lat="47.13974" lon="7.03958">
        <ele>1355.6</ele>
        <time>2012-05-27T09:01:47Z</time>
      </trkpt>
      <trkpt lat="47.13979" lon="7.03966">
        <ele>1355.6</ele>
        <time>2012-05-27T09:01:53Z</time>
      </trkpt>
      <trkpt lat="47.13981" lon="7.03976">
        <ele>1356.56</ele>
        <time>2012-05-27T09:01:59Z</time>
      </trkpt>
      <trkpt lat="47.13992" lon="7.03996">
        <ele>1357.52</ele>
        <time>2012-05-27T09:02:12Z</time>
      </trkpt>
      <trkpt lat="47.14002" lon="7.04018">
        <ele>1358.96</ele>
        <time>2012-05-27T09:02:27Z</time>
      </trkpt>
      <trkpt lat="47.14011" lon="7.04037">
        <ele>1358.96</ele>
        <time>2012-05-27T09:02:39Z</time>
      </trkpt>
      <trkpt lat="47.14013" lon="7.0404">
        <ele>1359.92</ele>
        <time>2012-05-27T09:02:42Z</time>
      </trkpt>
      <trkpt lat="47.14022" lon="7.04057">
        <ele>1360.4</ele>
        <time>2012-05-27T09:02:54Z</time>
      </trkpt>
      <trkpt lat="47.14033" lon="7.04081">
        <ele>1359.44</ele>
        <time>2012-05-27T09:03:08Z</time>
      </trkpt>
      <trkpt lat="47.14037" lon="7.04093">
        <ele>1360.4</ele>
        <time>2012-05-27T09:03:15Z</time>
      </trkpt>
      <trkpt lat="47.14045" lon="7.04115">
        <ele>1359.92</ele>
        <time>2012-05-27T09:03:28Z</time>
      </trkpt>
      <trkpt lat="47.14055" lon="7.04135">
        <ele>1359.92</ele>
        <time>2012-05-27T09:03:42Z</time>
      </trkpt>
      <trkpt lat="47.14064" lon="7.04155">
        <ele>1359.44</ele>
        <time>2012-05-27T09:03:55Z</time>
      </trkpt>
      <trkpt lat="47.14075" lon="7.04172">
        <ele>1361.84</ele>
        <time>2012-05-27T09:04:08Z</time>
      </trkpt>
      <trkpt lat="47.14085" lon="7.04191">
        <ele>1364.25</ele>
        <time>2012-05-27T09:04:21Z</time>
      </trkpt>
      <trkpt lat="47.14095" lon="7.0421">
        <ele>1364.25</ele>
        <time>2012-05-27T09:04:34Z</time>
      </trkpt>
      <trkpt lat="47.14106" lon="7.04231">
        <ele>1363.77</ele>
        <time>2012-05-27T09:04:48Z</time>
      </trkpt>
      <trkpt lat="47.1411" lon="7.0424">
        <ele>1364.25</ele>
        <time>2012-05-27T09:04:54Z</time>
      </trkpt>
      <trkpt lat="47.14114" lon="7.0425">
        <ele>1364.73</ele>
        <time>2012-05-27T09:05:09Z</time>
      </trkpt>
      <trkpt lat="47.14113" lon="7.0425">
        <ele>1363.77</ele>
        <time>2012-05-27T09:05:29Z</time>
      </trkpt>
      <trkpt lat="47.14112" lon="7.04246">
        <ele>1366.17</ele>
        <time>2012-05-27T09:06:06Z</time>
      </trkpt>
      <trkpt lat="47.14121" lon="7.04259">
        <ele>1367.13</ele>
        <time>2012-05-27T09:06:18Z</time>
      </trkpt>
      <trkpt lat="47.14137" lon="7.04274">
        <ele>1366.17</ele>
        <time>2012-05-27T09:06:32Z</time>
      </trkpt>
      <trkpt lat="47.14148" lon="7.04284">
        <ele>1367.61</ele>
        <time>2012-05-27T09:06:42Z</time>
      </trkpt>
      <trkpt lat="47.14152" lon="7.04292">
        <ele>1368.09</ele>
        <time>2012-05-27T09:06:47Z</time>
      </trkpt>
      <trkpt lat="47.14162" lon="7.04305">
        <ele>1366.65</ele>
        <time>2012-05-27T09:06:59Z</time>
      </trkpt>
      <trkpt lat="47.14164" lon="7.04306">
        <ele>1366.17</ele>
        <time>2012-05-27T09:07:00Z</time>
      </trkpt>
      <trkpt lat="47.14178" lon="7.04326">
        <ele>1365.69</ele>
        <time>2012-05-27T09:07:15Z</time>
      </trkpt>
      <trkpt lat="47.14194" lon="7.04345">
        <ele>1364.73</ele>
        <time>2012-05-27T09:07:31Z</time>
      </trkpt>
      <trkpt lat="47.14211" lon="7.04368">
        <ele>1364.25</ele>
        <time>2012-05-27T09:07:48Z</time>
      </trkpt>
      <trkpt lat="47.14223" lon="7.04392">
        <ele>1361.84</ele>
        <time>2012-05-27T09:08:03Z</time>
      </trkpt>
      <trkpt lat="47.14233" lon="7.04415">
        <ele>1359.92</ele>
        <time>2012-05-27T09:08:17Z</time>
      </trkpt>
      <trkpt lat="47.14245" lon="7.04441">
        <ele>1358.48</ele>
        <time>2012-05-27T09:08:33Z</time>
      </trkpt>
      <trkpt lat="47.14252" lon="7.04467">
        <ele>1358.48</ele>
        <time>2012-05-27T09:08:47Z</time>
      </trkpt>
      <trkpt lat="47.14258" lon="7.0449">
        <ele>1356.56</ele>
        <time>2012-05-27T09:09:01Z</time>
      </trkpt>
      <trkpt lat="47.14263" lon="7.04517">
        <ele>1355.6</ele>
        <time>2012-05-27T09:09:16Z</time>
      </trkpt>
      <trkpt lat="47.14264" lon="7.04539">
        <ele>1354.63</ele>
        <time>2012-05-27T09:09:28Z</time>
      </trkpt>
      <trkpt lat="47.14265" lon="7.04567">
        <ele>1355.12</ele>
        <time>2012-05-27T09:09:43Z</time>
      </trkpt>
      <trkpt lat="47.14271" lon="7.04598">
        <ele>1352.71</ele>
        <time>2012-05-27T09:10:01Z</time>
      </trkpt>
      <trkpt lat="47.1428" lon="7.0462">
        <ele>1353.19</ele>
        <time>2012-05-27T09:10:15Z</time>
      </trkpt>
      <trkpt lat="47.14288" lon="7.04641">
        <ele>1352.23</ele>
        <time>2012-05-27T09:10:28Z</time>
      </trkpt>
      <trkpt lat="47.14297" lon="7.04666">
        <ele>1350.79</ele>
        <time>2012-05-27T09:10:44Z</time>
      </trkpt>
      <trkpt lat="47.14306" lon="7.04694">
        <ele>1349.35</ele>
        <time>2012-05-27T09:11:00Z</time>
      </trkpt>
      <trkpt lat="47.14311" lon="7.0471">
        <ele>1348.87</ele>
        <time>2012-05-27T09:11:10Z</time>
      </trkpt>
      <trkpt lat="47.1432" lon="7.04731">
        <ele>1347.91</ele>
        <time>2012-05-27T09:11:25Z</time>
      </trkpt>
      <trkpt lat="47.14328" lon="7.04748">
        <ele>1347.43</ele>
        <time>2012-05-27T09:11:36Z</time>
      </trkpt>
      <trkpt lat="47.14329" lon="7.0475">
        <ele>1347.43</ele>
        <time>2012-05-27T09:11:37Z</time>
      </trkpt>
      <trkpt lat="47.14342" lon="7.04768">
        <ele>1347.91</ele>
        <time>2012-05-27T09:11:52Z</time>
      </trkpt>
      <trkpt lat="47.14355" lon="7.04788">
        <ele>1348.39</ele>
        <time>2012-05-27T09:12:06Z</time>
      </trkpt>
      <trkpt lat="47.14365" lon="7.04808">
        <ele>1346.94</ele>
        <time>2012-05-27T09:12:20Z</time>
      </trkpt>
      <trkpt lat="47.14374" lon="7.04829">
        <ele>1345.5</ele>
        <time>2012-05-27T09:12:34Z</time>
      </trkpt>
      <trkpt lat="47.1438" lon="7.04841">
        <ele>1344.54</ele>
        <time>2012-05-27T09:12:42Z</time>
      </trkpt>
      <trkpt lat="47.1438" lon="7.04843">
        <ele>1344.54</ele>
        <time>2012-05-27T09:12:43Z</time>
      </trkpt>
      <trkpt lat="47.14381" lon="7.04844">
        <ele>1344.06</ele>
        <time>2012-05-27T09:12:44Z</time>
      </trkpt>
      <trkpt lat="47.14382" lon="7.04846">
        <ele>1344.06</ele>
        <time>2012-05-27T09:12:45Z</time>
      </trkpt>
      <trkpt lat="47.14383" lon="7.04848">
        <ele>1344.06</ele>
        <time>2012-05-27T09:12:46Z</time>
      </trkpt>
      <trkpt lat="47.14384" lon="7.0485">
        <ele>1343.58</ele>
        <time>2012-05-27T09:12:47Z</time>
      </trkpt>
      <trkpt lat="47.14384" lon="7.04852">
        <ele>1343.58</ele>
        <time>2012-05-27T09:12:48Z</time>
      </trkpt>
      <trkpt lat="47.14385" lon="7.04853">
        <ele>1343.58</ele>
        <time>2012-05-27T09:12:49Z</time>
      </trkpt>
      <trkpt lat="47.14393" lon="7.04878">
        <ele>1343.58</ele>
        <time>2012-05-27T09:13:05Z</time>
      </trkpt>
      <trkpt lat="47.14402" lon="7.04906">
        <ele>1342.62</ele>
        <time>2012-05-27T09:13:21Z</time>
      </trkpt>
      <trkpt lat="47.14409" lon="7.04926">
        <ele>1344.54</ele>
        <time>2012-05-27T09:13:34Z</time>
      </trkpt>
      <trkpt lat="47.14423" lon="7.04949">
        <ele>1343.58</ele>
        <time>2012-05-27T09:13:51Z</time>
      </trkpt>
      <trkpt lat="47.14434" lon="7.04971">
        <ele>1342.14</ele>
        <time>2012-05-27T09:14:05Z</time>
      </trkpt>
      <trkpt lat="47.14442" lon="7.04992">
        <ele>1343.1</ele>
        <time>2012-05-27T09:14:18Z</time>
      </trkpt>
      <trkpt lat="47.14447" lon="7.05014">
        <ele>1344.54</ele>
        <time>2012-05-27T09:14:31Z</time>
      </trkpt>
      <trkpt lat="47.14455" lon="7.05039">
        <ele>1345.5</ele>
        <time>2012-05-27T09:14:45Z</time>
      </trkpt>
      <trkpt lat="47.14464" lon="7.05059">
        <ele>1346.94</ele>
        <time>2012-05-27T09:14:58Z</time>
      </trkpt>
      <trkpt lat="47.14472" lon="7.05076">
        <ele>1347.43</ele>
        <time>2012-05-27T09:15:10Z</time>
      </trkpt>
      <trkpt lat="47.14478" lon="7.05085">
        <ele>1348.39</ele>
        <time>2012-05-27T09:15:17Z</time>
      </trkpt>
      <trkpt lat="47.14478" lon="7.05087">
        <ele>1348.39</ele>
        <time>2012-05-27T09:15:18Z</time>
      </trkpt>
      <trkpt lat="47.14486" lon="7.05104">
        <ele>1347.91</ele>
        <time>2012-05-27T09:15:29Z</time>
      </trkpt>
      <trkpt lat="47.1449" lon="7.05113">
        <ele>1348.39</ele>
        <time>2012-05-27T09:15:36Z</time>
      </trkpt>
      <trkpt lat="47.1449" lon="7.05115">
        <ele>1348.39</ele>
        <time>2012-05-27T09:15:37Z</time>
      </trkpt>
      <trkpt lat="47.1449" lon="7.05117">
        <ele>1348.39</ele>
        <time>2012-05-27T09:15:38Z</time>
      </trkpt>
      <trkpt lat="47.1449" lon="7.05119">
        <ele>1348.39</ele>
        <time>2012-05-27T09:15:39Z</time>
      </trkpt>
      <trkpt lat="47.14495" lon="7.05133">
        <ele>1348.87</ele>
        <time>2012-05-27T09:15:51Z</time>
      </trkpt>
      <trkpt lat="47.14499" lon="7.05152">
        <ele>1349.83</ele>
        <time>2012-05-27T09:16:06Z</time>
      </trkpt>
      <trkpt lat="47.14503" lon="7.05163">
        <ele>1349.35</ele>
        <time>2012-05-27T09:16:12Z</time>
      </trkpt>
      <trkpt lat="47.14504" lon="7.05165">
        <ele>1349.35</ele>
        <time>2012-05-27T09:16:13Z</time>
      </trkpt>
      <trkpt lat="47.1451" lon="7.05188">
        <ele>1349.83</ele>
        <time>2012-05-27T09:16:25Z</time>
      </trkpt>
      <trkpt lat="47.14516" lon="7.05215">
        <ele>1351.27</ele>
        <time>2012-05-27T09:16:39Z</time>
      </trkpt>
      <trkpt lat="47.14523" lon="7.05237">
        <ele>1351.27</ele>
        <time>2012-05-27T09:16:52Z</time>
      </trkpt>
      <trkpt lat="47.14532" lon="7.05263">
        <ele>1351.27</ele>
        <time>2012-05-27T09:17:06Z</time>
      </trkpt>
      <trkpt lat="47.14541" lon="7.05285">
        <ele>1351.75</ele>
        <time>2012-05-27T09:17:19Z</time>
      </trkpt>
      <trkpt lat="47.14548" lon="7.05307">
        <ele>1352.71</ele>
        <time>2012-05-27T09:17:33Z</time>
      </trkpt>
      <trkpt lat="47.14557" lon="7.05328">
        <ele>1353.19</ele>
        <time>2012-05-27T09:17:46Z</time>
      </trkpt>
      <trkpt lat="47.14569" lon="7.05351">
        <ele>1353.67</ele>
        <time>2012-05-27T09:18:01Z</time>
      </trkpt>
      <trkpt lat="47.14581" lon="7.05365">
        <ele>1352.71</ele>
        <time>2012-05-27T09:18:14Z</time>
      </trkpt>
      <trkpt lat="47.14586" lon="7.05378">
        <ele>1353.67</ele>
        <time>2012-05-27T09:18:22Z</time>
      </trkpt>
      <trkpt lat="47.14586" lon="7.0538">
        <ele>1353.67</ele>
        <time>2012-05-27T09:18:23Z</time>
      </trkpt>
      <trkpt lat="47.14587" lon="7.05382">
        <ele>1353.67</ele>
        <time>2012-05-27T09:18:24Z</time>
      </trkpt>
      <trkpt lat="47.14587" lon="7.05384">
        <ele>1354.15</ele>
        <time>2012-05-27T09:18:25Z</time>
      </trkpt>
      <trkpt lat="47.14592" lon="7.05402">
        <ele>1357.04</ele>
        <time>2012-05-27T09:18:37Z</time>
      </trkpt>
      <trkpt lat="47.14597" lon="7.05419">
        <ele>1359.44</ele>
        <time>2012-05-27T09:18:48Z</time>
      </trkpt>
      <trkpt lat="47.14602" lon="7.05434">
        <ele>1361.36</ele>
        <time>2012-05-27T09:18:59Z</time>
      </trkpt>
      <trkpt lat="47.14607" lon="7.05453">
        <ele>1363.29</ele>
        <time>2012-05-27T09:19:11Z</time>
      </trkpt>
      <trkpt lat="47.14612" lon="7.05471">
        <ele>1364.73</ele>
        <time>2012-05-27T09:19:23Z</time>
      </trkpt>
      <trkpt lat="47.14619" lon="7.05496">
        <ele>1364.73</ele>
        <time>2012-05-27T09:19:37Z</time>
      </trkpt>
      <trkpt lat="47.14622" lon="7.05514">
        <ele>1365.21</ele>
        <time>2012-05-27T09:19:49Z</time>
      </trkpt>
      <trkpt lat="47.14622" lon="7.05516">
        <ele>1365.21</ele>
        <time>2012-05-27T09:19:50Z</time>
      </trkpt>
      <trkpt lat="47.14613" lon="7.05529">
        <ele>1365.69</ele>
        <time>2012-05-27T09:20:01Z</time>
      </trkpt>
      <trkpt lat="47.14605" lon="7.05537">
        <ele>1363.77</ele>
        <time>2012-05-27T09:20:10Z</time>
      </trkpt>
      <trkpt lat="47.14601" lon="7.05538">
        <ele>1363.29</ele>
        <time>2012-05-27T09:20:23Z</time>
      </trkpt>
      <trkpt lat="47.14598" lon="7.0554">
        <ele>1369.05</ele>
        <time>2012-05-27T09:20:53Z</time>
      </trkpt>
      <trkpt lat="47.14599" lon="7.0554">
        <ele>1368.57</ele>
        <time>2012-05-27T09:21:06Z</time>
      </trkpt>
      <trkpt lat="47.14595" lon="7.05544">
        <ele>1368.09</ele>
        <time>2012-05-27T09:21:10Z</time>
      </trkpt>
      <trkpt lat="47.14593" lon="7.05553">
        <ele>1366.65</ele>
        <time>2012-05-27T09:21:16Z</time>
      </trkpt>
      <trkpt lat="47.14592" lon="7.05561">
        <ele>1366.17</ele>
        <time>2012-05-27T09:21:21Z</time>
      </trkpt>
      <trkpt lat="47.1459" lon="7.05563">
        <ele>1365.69</ele>
        <time>2012-05-27T09:21:24Z</time>
      </trkpt>
      <trkpt lat="47.14588" lon="7.05569">
        <ele>1365.69</ele>
        <time>2012-05-27T09:21:29Z</time>
      </trkpt>
      <trkpt lat="47.14586" lon="7.05577">
        <ele>1365.21</ele>
        <time>2012-05-27T09:21:34Z</time>
      </trkpt>
      <trkpt lat="47.14582" lon="7.05597">
        <ele>1364.73</ele>
        <time>2012-05-27T09:21:46Z</time>
      </trkpt>
      <trkpt lat="47.14582" lon="7.05602">
        <ele>1364.73</ele>
        <time>2012-05-27T09:21:49Z</time>
      </trkpt>
      <trkpt lat="47.14578" lon="7.05623">
        <ele>1366.17</ele>
        <time>2012-05-27T09:22:02Z</time>
      </trkpt>
      <trkpt lat="47.14573" lon="7.05645">
        <ele>1367.13</ele>
        <time>2012-05-27T09:22:18Z</time>
      </trkpt>
      <trkpt lat="47.14571" lon="7.05656">
        <ele>1367.13</ele>
        <time>2012-05-27T09:22:27Z</time>
      </trkpt>
      <trkpt lat="47.14568" lon="7.05676">
        <ele>1366.17</ele>
        <time>2012-05-27T09:22:40Z</time>
      </trkpt>
      <trkpt lat="47.14565" lon="7.05691">
        <ele>1366.17</ele>
        <time>2012-05-27T09:22:51Z</time>
      </trkpt>
      <trkpt lat="47.14564" lon="7.05706">
        <ele>1366.65</ele>
        <time>2012-05-27T09:23:03Z</time>
      </trkpt>
      <trkpt lat="47.14562" lon="7.05712">
        <ele>1368.57</ele>
        <time>2012-05-27T09:23:20Z</time>
      </trkpt>
      <trkpt lat="47.14561" lon="7.05712">
        <ele>1370.02</ele>
        <time>2012-05-27T09:23:53Z</time>
      </trkpt>
      <trkpt lat="47.14561" lon="7.05712">
        <ele>1370.02</ele>
        <time>2012-05-27T09:23:54Z</time>
      </trkpt>
      <trkpt lat="47.14562" lon="7.0573">
        <ele>1368.57</ele>
        <time>2012-05-27T09:24:06Z</time>
      </trkpt>
      <trkpt lat="47.14563" lon="7.05748">
        <ele>1369.05</ele>
        <time>2012-05-27T09:24:17Z</time>
      </trkpt>
      <trkpt lat="47.14564" lon="7.05765">
        <ele>1369.05</ele>
        <time>2012-05-27T09:24:28Z</time>
      </trkpt>
      <trkpt lat="47.14563" lon="7.0578">
        <ele>1369.05</ele>
        <time>2012-05-27T09:24:39Z</time>
      </trkpt>
      <trkpt lat="47.14563" lon="7.05784">
        <ele>1369.54</ele>
        <time>2012-05-27T09:24:42Z</time>
      </trkpt>
      <trkpt lat="47.14561" lon="7.05797">
        <ele>1370.98</ele>
        <time>2012-05-27T09:24:53Z</time>
      </trkpt>
      <trkpt lat="47.14558" lon="7.0581">
        <ele>1373.38</ele>
        <time>2012-05-27T09:25:04Z</time>
      </trkpt>
      <trkpt lat="47.14556" lon="7.05819">
        <ele>1376.75</ele>
        <time>2012-05-27T09:25:14Z</time>
      </trkpt>
      <trkpt lat="47.14555" lon="7.0583">
        <ele>1378.19</ele>
        <time>2012-05-27T09:25:25Z</time>
      </trkpt>
      <trkpt lat="47.14553" lon="7.05842">
        <ele>1380.59</ele>
        <time>2012-05-27T09:25:36Z</time>
      </trkpt>
      <trkpt lat="47.14552" lon="7.05855">
        <ele>1382.51</ele>
        <time>2012-05-27T09:25:48Z</time>
      </trkpt>
      <trkpt lat="47.14552" lon="7.05865">
        <ele>1383.96</ele>
        <time>2012-05-27T09:25:59Z</time>
      </trkpt>
      <trkpt lat="47.1455" lon="7.05873">
        <ele>1384.44</ele>
        <time>2012-05-27T09:26:13Z</time>
      </trkpt>
      <trkpt lat="47.1455" lon="7.05877">
        <ele>1384.92</ele>
        <time>2012-05-27T09:26:34Z</time>
      </trkpt>
      <trkpt lat="47.14549" lon="7.05885">
        <ele>1387.32</ele>
        <time>2012-05-27T09:26:44Z</time>
      </trkpt>
      <trkpt lat="47.14548" lon="7.05895">
        <ele>1388.76</ele>
        <time>2012-05-27T09:26:54Z</time>
      </trkpt>
      <trkpt lat="47.14548" lon="7.05908">
        <ele>1390.68</ele>
        <time>2012-05-27T09:27:06Z</time>
      </trkpt>
      <trkpt lat="47.14548" lon="7.0592">
        <ele>1392.61</ele>
        <time>2012-05-27T09:27:17Z</time>
      </trkpt>
      <trkpt lat="47.14549" lon="7.05935">
        <ele>1394.53</ele>
        <time>2012-05-27T09:27:30Z</time>
      </trkpt>
      <trkpt lat="47.14547" lon="7.05948">
        <ele>1395.49</ele>
        <time>2012-05-27T09:27:42Z</time>
      </trkpt>
      <trkpt lat="47.14546" lon="7.05957">
        <ele>1398.37</ele>
        <time>2012-05-27T09:27:54Z</time>
      </trkpt>
      <trkpt lat="47.14546" lon="7.05963">
        <ele>1399.82</ele>
        <time>2012-05-27T09:28:06Z</time>
      </trkpt>
      <trkpt lat="47.14548" lon="7.05975">
        <ele>1401.74</ele>
        <time>2012-05-27T09:28:16Z</time>
      </trkpt>
      <trkpt lat="47.14549" lon="7.05976">
        <ele>1401.74</ele>
        <time>2012-05-27T09:28:17Z</time>
      </trkpt>
      <trkpt lat="47.14547" lon="7.05987">
        <ele>1403.66</ele>
        <time>2012-05-27T09:28:31Z</time>
      </trkpt>
      <trkpt lat="47.14545" lon="7.05994">
        <ele>1405.1</ele>
        <time>2012-05-27T09:28:41Z</time>
      </trkpt>
      <trkpt lat="47.14545" lon="7.06">
        <ele>1406.55</ele>
        <time>2012-05-27T09:28:55Z</time>
      </trkpt>
      <trkpt lat="47.14546" lon="7.06016">
        <ele>1407.99</ele>
        <time>2012-05-27T09:29:08Z</time>
      </trkpt>
      <trkpt lat="47.14547" lon="7.06021">
        <ele>1409.43</ele>
        <time>2012-05-27T09:29:19Z</time>
      </trkpt>
      <trkpt lat="47.14548" lon="7.06035">
        <ele>1411.35</ele>
        <time>2012-05-27T09:29:33Z</time>
      </trkpt>
      <trkpt lat="47.14547" lon="7.06044">
        <ele>1413.28</ele>
        <time>2012-05-27T09:29:44Z</time>
      </trkpt>
      <trkpt lat="47.14547" lon="7.06048">
        <ele>1414.72</ele>
        <time>2012-05-27T09:29:57Z</time>
      </trkpt>
      <trkpt lat="47.14546" lon="7.06055">
        <ele>1415.2</ele>
        <time>2012-05-27T09:30:09Z</time>
      </trkpt>
      <trkpt lat="47.14545" lon="7.06059">
        <ele>1416.16</ele>
        <time>2012-05-27T09:30:22Z</time>
      </trkpt>
      <trkpt lat="47.14545" lon="7.06064">
        <ele>1417.6</ele>
        <time>2012-05-27T09:30:34Z</time>
      </trkpt>
      <trkpt lat="47.14545" lon="7.06066">
        <ele>1418.56</ele>
        <time>2012-05-27T09:30:41Z</time>
      </trkpt>
      <trkpt lat="47.14543" lon="7.0607">
        <ele>1419.04</ele>
        <time>2012-05-27T09:30:53Z</time>
      </trkpt>
      <trkpt lat="47.14543" lon="7.06074">
        <ele>1420.49</ele>
        <time>2012-05-27T09:31:05Z</time>
      </trkpt>
      <trkpt lat="47.1454" lon="7.06078">
        <ele>1420.97</ele>
        <time>2012-05-27T09:31:20Z</time>
      </trkpt>
      <trkpt lat="47.14538" lon="7.06085">
        <ele>1422.41</ele>
        <time>2012-05-27T09:31:34Z</time>
      </trkpt>
      <trkpt lat="47.14536" lon="7.06089">
        <ele>1422.89</ele>
        <time>2012-05-27T09:31:47Z</time>
      </trkpt>
      <trkpt lat="47.14533" lon="7.06095">
        <ele>1423.37</ele>
        <time>2012-05-27T09:31:59Z</time>
      </trkpt>
      <trkpt lat="47.14531" lon="7.06101">
        <ele>1423.85</ele>
        <time>2012-05-27T09:32:11Z</time>
      </trkpt>
      <trkpt lat="47.1453" lon="7.06107">
        <ele>1425.29</ele>
        <time>2012-05-27T09:32:24Z</time>
      </trkpt>
      <trkpt lat="47.14526" lon="7.06114">
        <ele>1425.77</ele>
        <time>2012-05-27T09:32:42Z</time>
      </trkpt>
      <trkpt lat="47.14522" lon="7.0612">
        <ele>1426.25</ele>
        <time>2012-05-27T09:32:57Z</time>
      </trkpt>
      <trkpt lat="47.1452" lon="7.06128">
        <ele>1427.7</ele>
        <time>2012-05-27T09:33:12Z</time>
      </trkpt>
      <trkpt lat="47.14518" lon="7.06134">
        <ele>1429.62</ele>
        <time>2012-05-27T09:33:26Z</time>
      </trkpt>
      <trkpt lat="47.14515" lon="7.06138">
        <ele>1431.06</ele>
        <time>2012-05-27T09:33:38Z</time>
      </trkpt>
      <trkpt lat="47.14514" lon="7.06142">
        <ele>1432.02</ele>
        <time>2012-05-27T09:33:49Z</time>
      </trkpt>
      <trkpt lat="47.14512" lon="7.06147">
        <ele>1434.42</ele>
        <time>2012-05-27T09:34:01Z</time>
      </trkpt>
      <trkpt lat="47.14508" lon="7.06155">
        <ele>1435.87</ele>
        <time>2012-05-27T09:34:14Z</time>
      </trkpt>
      <trkpt lat="47.14506" lon="7.06161">
        <ele>1437.79</ele>
        <time>2012-05-27T09:34:27Z</time>
      </trkpt>
      <trkpt lat="47.14505" lon="7.06169">
        <ele>1440.19</ele>
        <time>2012-05-27T09:34:38Z</time>
      </trkpt>
      <trkpt lat="47.14504" lon="7.06178">
        <ele>1442.6</ele>
        <time>2012-05-27T09:34:51Z</time>
      </trkpt>
      <trkpt lat="47.14501" lon="7.06189">
        <ele>1445.48</ele>
        <time>2012-05-27T09:35:05Z</time>
      </trkpt>
      <trkpt lat="47.14499" lon="7.062">
        <ele>1447.88</ele>
        <time>2012-05-27T09:35:16Z</time>
      </trkpt>
      <trkpt lat="47.14496" lon="7.06214">
        <ele>1451.25</ele>
        <time>2012-05-27T09:35:27Z</time>
      </trkpt>
      <trkpt lat="47.14494" lon="7.0622">
        <ele>1453.17</ele>
        <time>2012-05-27T09:35:39Z</time>
      </trkpt>
      <trkpt lat="47.14493" lon="7.06225">
        <ele>1455.09</ele>
        <time>2012-05-27T09:35:51Z</time>
      </trkpt>
      <trkpt lat="47.14491" lon="7.0623">
        <ele>1456.05</ele>
        <time>2012-05-27T09:36:07Z</time>
      </trkpt>
      <trkpt lat="47.1449" lon="7.06235">
        <ele>1457.5</ele>
        <time>2012-05-27T09:36:19Z</time>
      </trkpt>
      <trkpt lat="47.14485" lon="7.06241">
        <ele>1456.05</ele>
        <time>2012-05-27T09:36:33Z</time>
      </trkpt>
      <trkpt lat="47.14479" lon="7.06246">
        <ele>1455.57</ele>
        <time>2012-05-27T09:36:51Z</time>
      </trkpt>
      <trkpt lat="47.14476" lon="7.06249">
        <ele>1456.05</ele>
        <time>2012-05-27T09:37:03Z</time>
      </trkpt>
      <trkpt lat="47.14474" lon="7.06253">
        <ele>1459.42</ele>
        <time>2012-05-27T09:37:17Z</time>
      </trkpt>
      <trkpt lat="47.14472" lon="7.06259">
        <ele>1462.78</ele>
        <time>2012-05-27T09:37:26Z</time>
      </trkpt>
      <trkpt lat="47.1447" lon="7.06265">
        <ele>1465.67</ele>
        <time>2012-05-27T09:37:36Z</time>
      </trkpt>
      <trkpt lat="47.14467" lon="7.06272">
        <ele>1468.07</ele>
        <time>2012-05-27T09:37:47Z</time>
      </trkpt>
      <trkpt lat="47.14462" lon="7.06275">
        <ele>1469.99</ele>
        <time>2012-05-27T09:38:01Z</time>
      </trkpt>
      <trkpt lat="47.14452" lon="7.06271">
        <ele>1473.36</ele>
        <time>2012-05-27T09:38:15Z</time>
      </trkpt>
      <trkpt lat="47.14444" lon="7.06265">
        <ele>1478.65</ele>
        <time>2012-05-27T09:38:27Z</time>
      </trkpt>
      <trkpt lat="47.14442" lon="7.06264">
        <ele>1479.61</ele>
        <time>2012-05-27T09:38:30Z</time>
      </trkpt>
      <trkpt lat="47.14437" lon="7.06259">
        <ele>1483.93</ele>
        <time>2012-05-27T09:38:41Z</time>
      </trkpt>
      <trkpt lat="47.14432" lon="7.06252">
        <ele>1487.78</ele>
        <time>2012-05-27T09:38:51Z</time>
      </trkpt>
      <trkpt lat="47.14428" lon="7.06245">
        <ele>1491.14</ele>
        <time>2012-05-27T09:39:03Z</time>
      </trkpt>
      <trkpt lat="47.14422" lon="7.0624">
        <ele>1494.99</ele>
        <time>2012-05-27T09:39:14Z</time>
      </trkpt>
      <trkpt lat="47.14412" lon="7.06232">
        <ele>1498.83</ele>
        <time>2012-05-27T09:39:29Z</time>
      </trkpt>
      <trkpt lat="47.14406" lon="7.06222">
        <ele>1501.72</ele>
        <time>2012-05-27T09:39:42Z</time>
      </trkpt>
      <trkpt lat="47.14402" lon="7.06216">
        <ele>1503.16</ele>
        <time>2012-05-27T09:39:49Z</time>
      </trkpt>
      <trkpt lat="47.14397" lon="7.06217">
        <ele>1504.12</ele>
        <time>2012-05-27T09:39:58Z</time>
      </trkpt>
      <trkpt lat="47.14395" lon="7.0622">
        <ele>1504.12</ele>
        <time>2012-05-27T09:40:10Z</time>
      </trkpt>
      <trkpt lat="47.14394" lon="7.06219">
        <ele>1501.72</ele>
        <time>2012-05-27T09:40:30Z</time>
      </trkpt>
      <trkpt lat="47.14395" lon="7.06221">
        <ele>1498.35</ele>
        <time>2012-05-27T09:40:56Z</time>
      </trkpt>
      <trkpt lat="47.14395" lon="7.06222">
        <ele>1499.79</ele>
        <time>2012-05-27T09:41:09Z</time>
      </trkpt>
      <trkpt lat="47.14394" lon="7.06225">
        <ele>1499.31</ele>
        <time>2012-05-27T09:41:12Z</time>
      </trkpt>
      <trkpt lat="47.1439" lon="7.06241">
        <ele>1496.91</ele>
        <time>2012-05-27T09:41:26Z</time>
      </trkpt>
      <trkpt lat="47.14388" lon="7.06257">
        <ele>1494.99</ele>
        <time>2012-05-27T09:41:40Z</time>
      </trkpt>
      <trkpt lat="47.14386" lon="7.0627">
        <ele>1494.51</ele>
        <time>2012-05-27T09:41:50Z</time>
      </trkpt>
      <trkpt lat="47.14384" lon="7.06283">
        <ele>1491.14</ele>
        <time>2012-05-27T09:42:03Z</time>
      </trkpt>
      <trkpt lat="47.14383" lon="7.06287">
        <ele>1490.66</ele>
        <time>2012-05-27T09:42:06Z</time>
      </trkpt>
      <trkpt lat="47.14382" lon="7.06294">
        <ele>1490.18</ele>
        <time>2012-05-27T09:42:12Z</time>
      </trkpt>
      <trkpt lat="47.14379" lon="7.06304">
        <ele>1489.7</ele>
        <time>2012-05-27T09:42:22Z</time>
      </trkpt>
      <trkpt lat="47.14381" lon="7.06305">
        <ele>1484.89</ele>
        <time>2012-05-27T09:42:36Z</time>
      </trkpt>
      <trkpt lat="47.1438" lon="7.06316">
        <ele>1482.97</ele>
        <time>2012-05-27T09:42:47Z</time>
      </trkpt>
      <trkpt lat="47.14377" lon="7.06326">
        <ele>1481.53</ele>
        <time>2012-05-27T09:42:59Z</time>
      </trkpt>
      <trkpt lat="47.14375" lon="7.06337">
        <ele>1480.57</ele>
        <time>2012-05-27T09:43:10Z</time>
      </trkpt>
      <trkpt lat="47.14374" lon="7.06344">
        <ele>1479.61</ele>
        <time>2012-05-27T09:43:16Z</time>
      </trkpt>
      <trkpt lat="47.14371" lon="7.06357">
        <ele>1475.76</ele>
        <time>2012-05-27T09:43:29Z</time>
      </trkpt>
      <trkpt lat="47.14369" lon="7.06374">
        <ele>1473.36</ele>
        <time>2012-05-27T09:43:42Z</time>
      </trkpt>
      <trkpt lat="47.14367" lon="7.06387">
        <ele>1471.92</ele>
        <time>2012-05-27T09:43:52Z</time>
      </trkpt>
      <trkpt lat="47.14365" lon="7.064">
        <ele>1470.47</ele>
        <time>2012-05-27T09:44:03Z</time>
      </trkpt>
      <trkpt lat="47.14362" lon="7.06415">
        <ele>1468.07</ele>
        <time>2012-05-27T09:44:15Z</time>
      </trkpt>
      <trkpt lat="47.14361" lon="7.06418">
        <ele>1467.59</ele>
        <time>2012-05-27T09:44:17Z</time>
      </trkpt>
      <trkpt lat="47.1436" lon="7.06434">
        <ele>1467.11</ele>
        <time>2012-05-27T09:44:29Z</time>
      </trkpt>
      <trkpt lat="47.1436" lon="7.06436">
        <ele>1467.59</ele>
        <time>2012-05-27T09:44:31Z</time>
      </trkpt>
      <trkpt lat="47.14356" lon="7.06451">
        <ele>1468.07</ele>
        <time>2012-05-27T09:44:43Z</time>
      </trkpt>
      <trkpt lat="47.1435" lon="7.06468">
        <ele>1466.15</ele>
        <time>2012-05-27T09:44:55Z</time>
      </trkpt>
      <trkpt lat="47.14349" lon="7.06483">
        <ele>1465.67</ele>
        <time>2012-05-27T09:45:05Z</time>
      </trkpt>
      <trkpt lat="47.14347" lon="7.06491">
        <ele>1464.71</ele>
        <time>2012-05-27T09:45:12Z</time>
      </trkpt>
      <trkpt lat="47.14344" lon="7.06504">
        <ele>1463.26</ele>
        <time>2012-05-27T09:45:24Z</time>
      </trkpt>
      <trkpt lat="47.14343" lon="7.06508">
        <ele>1462.78</ele>
        <time>2012-05-27T09:45:27Z</time>
      </trkpt>
      <trkpt lat="47.14338" lon="7.06518">
        <ele>1459.42</ele>
        <time>2012-05-27T09:45:37Z</time>
      </trkpt>
      <trkpt lat="47.1433" lon="7.06526">
        <ele>1457.02</ele>
        <time>2012-05-27T09:45:49Z</time>
      </trkpt>
      <trkpt lat="47.1433" lon="7.06527">
        <ele>1457.02</ele>
        <time>2012-05-27T09:45:50Z</time>
      </trkpt>
      <trkpt lat="47.14329" lon="7.06531">
        <ele>1457.5</ele>
        <time>2012-05-27T09:45:53Z</time>
      </trkpt>
      <trkpt lat="47.14329" lon="7.06538">
        <ele>1457.5</ele>
        <time>2012-05-27T09:45:58Z</time>
      </trkpt>
      <trkpt lat="47.1433" lon="7.06555">
        <ele>1458.94</ele>
        <time>2012-05-27T09:46:11Z</time>
      </trkpt>
      <trkpt lat="47.14332" lon="7.06573">
        <ele>1458.94</ele>
        <time>2012-05-27T09:46:23Z</time>
      </trkpt>
      <trkpt lat="47.14332" lon="7.06581">
        <ele>1458.46</ele>
        <time>2012-05-27T09:46:28Z</time>
      </trkpt>
      <trkpt lat="47.14334" lon="7.06589">
        <ele>1457.5</ele>
        <time>2012-05-27T09:46:34Z</time>
      </trkpt>
      <trkpt lat="47.14335" lon="7.066">
        <ele>1456.05</ele>
        <time>2012-05-27T09:46:41Z</time>
      </trkpt>
      <trkpt lat="47.14335" lon="7.06609">
        <ele>1454.13</ele>
        <time>2012-05-27T09:46:47Z</time>
      </trkpt>
      <trkpt lat="47.14329" lon="7.06623">
        <ele>1454.13</ele>
        <time>2012-05-27T09:46:57Z</time>
      </trkpt>
      <trkpt lat="47.14323" lon="7.06647">
        <ele>1454.13</ele>
        <time>2012-05-27T09:47:12Z</time>
      </trkpt>
      <trkpt lat="47.14323" lon="7.06648">
        <ele>1454.13</ele>
        <time>2012-05-27T09:47:13Z</time>
      </trkpt>
      <trkpt lat="47.14318" lon="7.0665">
        <ele>1454.13</ele>
        <time>2012-05-27T09:47:17Z</time>
      </trkpt>
      <trkpt lat="47.14305" lon="7.0666">
        <ele>1457.5</ele>
        <time>2012-05-27T09:47:29Z</time>
      </trkpt>
      <trkpt lat="47.14293" lon="7.06663">
        <ele>1456.53</ele>
        <time>2012-05-27T09:47:41Z</time>
      </trkpt>
      <trkpt lat="47.14293" lon="7.06662">
        <ele>1456.05</ele>
        <time>2012-05-27T09:47:48Z</time>
      </trkpt>
      <trkpt lat="47.14288" lon="7.06663">
        <ele>1456.53</ele>
        <time>2012-05-27T09:47:54Z</time>
      </trkpt>
      <trkpt lat="47.14276" lon="7.06665">
        <ele>1456.53</ele>
        <time>2012-05-27T09:48:06Z</time>
      </trkpt>
      <trkpt lat="47.14267" lon="7.06664">
        <ele>1457.98</ele>
        <time>2012-05-27T09:48:16Z</time>
      </trkpt>
      <trkpt lat="47.14262" lon="7.06661">
        <ele>1459.9</ele>
        <time>2012-05-27T09:48:24Z</time>
      </trkpt>
      <trkpt lat="47.14257" lon="7.06649">
        <ele>1460.86</ele>
        <time>2012-05-27T09:48:35Z</time>
      </trkpt>
      <trkpt lat="47.1425" lon="7.0664">
        <ele>1462.78</ele>
        <time>2012-05-27T09:48:46Z</time>
      </trkpt>
      <trkpt lat="47.14243" lon="7.0663">
        <ele>1463.26</ele>
        <time>2012-05-27T09:48:56Z</time>
      </trkpt>
      <trkpt lat="47.14238" lon="7.06622">
        <ele>1464.23</ele>
        <time>2012-05-27T09:49:05Z</time>
      </trkpt>
      <trkpt lat="47.14233" lon="7.06615">
        <ele>1465.19</ele>
        <time>2012-05-27T09:49:14Z</time>
      </trkpt>
      <trkpt lat="47.14227" lon="7.0661">
        <ele>1466.63</ele>
        <time>2012-05-27T09:49:23Z</time>
      </trkpt>
      <trkpt lat="47.14219" lon="7.06603">
        <ele>1469.51</ele>
        <time>2012-05-27T09:49:33Z</time>
      </trkpt>
      <trkpt lat="47.14207" lon="7.06601">
        <ele>1473.36</ele>
        <time>2012-05-27T09:49:49Z</time>
      </trkpt>
      <trkpt lat="47.14197" lon="7.06599">
        <ele>1475.76</ele>
        <time>2012-05-27T09:50:04Z</time>
      </trkpt>
      <trkpt lat="47.14189" lon="7.06599">
        <ele>1476.24</ele>
        <time>2012-05-27T09:50:12Z</time>
      </trkpt>
      <trkpt lat="47.14187" lon="7.06597">
        <ele>1476.24</ele>
        <time>2012-05-27T09:50:15Z</time>
      </trkpt>
      <trkpt lat="47.14177" lon="7.06592">
        <ele>1475.28</ele>
        <time>2012-05-27T09:50:26Z</time>
      </trkpt>
      <trkpt lat="47.14168" lon="7.06593">
        <ele>1477.2</ele>
        <time>2012-05-27T09:50:37Z</time>
      </trkpt>
      <trkpt lat="47.14163" lon="7.06588">
        <ele>1480.09</ele>
        <time>2012-05-27T09:50:47Z</time>
      </trkpt>
      <trkpt lat="47.14163" lon="7.06587">
        <ele>1480.57</ele>
        <time>2012-05-27T09:50:48Z</time>
      </trkpt>
      <trkpt lat="47.14157" lon="7.06583">
        <ele>1482.49</ele>
        <time>2012-05-27T09:50:58Z</time>
      </trkpt>
      <trkpt lat="47.14151" lon="7.06583">
        <ele>1483.93</ele>
        <time>2012-05-27T09:51:09Z</time>
      </trkpt>
      <trkpt lat="47.1415" lon="7.06581">
        <ele>1484.89</ele>
        <time>2012-05-27T09:51:12Z</time>
      </trkpt>
      <trkpt lat="47.14144" lon="7.06572">
        <ele>1487.3</ele>
        <time>2012-05-27T09:51:24Z</time>
      </trkpt>
      <trkpt lat="47.14137" lon="7.06564">
        <ele>1489.22</ele>
        <time>2012-05-27T09:51:36Z</time>
      </trkpt>
      <trkpt lat="47.14137" lon="7.06564">
        <ele>1489.7</ele>
        <time>2012-05-27T09:51:37Z</time>
      </trkpt>
      <trkpt lat="47.1413" lon="7.06559">
        <ele>1490.66</ele>
        <time>2012-05-27T09:51:47Z</time>
      </trkpt>
      <trkpt lat="47.14127" lon="7.06556">
        <ele>1492.1</ele>
        <time>2012-05-27T09:51:57Z</time>
      </trkpt>
      <trkpt lat="47.14125" lon="7.06555">
        <ele>1492.58</ele>
        <time>2012-05-27T09:52:09Z</time>
      </trkpt>
      <trkpt lat="47.1412" lon="7.06552">
        <ele>1493.55</ele>
        <time>2012-05-27T09:52:20Z</time>
      </trkpt>
      <trkpt lat="47.14114" lon="7.06548">
        <ele>1494.99</ele>
        <time>2012-05-27T09:52:31Z</time>
      </trkpt>
      <trkpt lat="47.14113" lon="7.06546">
        <ele>1495.47</ele>
        <time>2012-05-27T09:52:34Z</time>
      </trkpt>
      <trkpt lat="47.14111" lon="7.06541">
        <ele>1495.95</ele>
        <time>2012-05-27T09:52:43Z</time>
      </trkpt>
      <trkpt lat="47.14107" lon="7.06535">
        <ele>1496.43</ele>
        <time>2012-05-27T09:52:54Z</time>
      </trkpt>
      <trkpt lat="47.14103" lon="7.06533">
        <ele>1498.35</ele>
        <time>2012-05-27T09:53:05Z</time>
      </trkpt>
      <trkpt lat="47.14096" lon="7.06536">
        <ele>1498.35</ele>
        <time>2012-05-27T09:53:18Z</time>
      </trkpt>
      <trkpt lat="47.1409" lon="7.06538">
        <ele>1498.35</ele>
        <time>2012-05-27T09:53:28Z</time>
      </trkpt>
      <trkpt lat="47.14089" lon="7.06539">
        <ele>1498.35</ele>
        <time>2012-05-27T09:53:30Z</time>
      </trkpt>
      <trkpt lat="47.14079" lon="7.06545">
        <ele>1501.24</ele>
        <time>2012-05-27T09:53:43Z</time>
      </trkpt>
      <trkpt lat="47.14078" lon="7.06547">
        <ele>1502.68</ele>
        <time>2012-05-27T09:53:47Z</time>
      </trkpt>
      <trkpt lat="47.14072" lon="7.06545">
        <ele>1505.08</ele>
        <time>2012-05-27T09:53:55Z</time>
      </trkpt>
      <trkpt lat="47.1407" lon="7.06538">
        <ele>1507.97</ele>
        <time>2012-05-27T09:54:08Z</time>
      </trkpt>
      <trkpt lat="47.14069" lon="7.06533">
        <ele>1509.89</ele>
        <time>2012-05-27T09:54:18Z</time>
      </trkpt>
      <trkpt lat="47.14058" lon="7.06529">
        <ele>1511.33</ele>
        <time>2012-05-27T09:54:29Z</time>
      </trkpt>
      <trkpt lat="47.14057" lon="7.06528">
        <ele>1511.33</ele>
        <time>2012-05-27T09:54:31Z</time>
      </trkpt>
      <trkpt lat="47.14056" lon="7.06524">
        <ele>1510.37</ele>
        <time>2012-05-27T09:54:32Z</time>
      </trkpt>
      <trkpt lat="47.14054" lon="7.06522">
        <ele>1509.41</ele>
        <time>2012-05-27T09:54:35Z</time>
      </trkpt>
      <trkpt lat="47.1405" lon="7.0652">
        <ele>1508.93</ele>
        <time>2012-05-27T09:54:40Z</time>
      </trkpt>
      <trkpt lat="47.14046" lon="7.0652">
        <ele>1508.45</ele>
        <time>2012-05-27T09:54:44Z</time>
      </trkpt>
      <trkpt lat="47.14045" lon="7.06519">
        <ele>1509.41</ele>
        <time>2012-05-27T09:54:46Z</time>
      </trkpt>
      <trkpt lat="47.14043" lon="7.06516">
        <ele>1509.41</ele>
        <time>2012-05-27T09:54:48Z</time>
      </trkpt>
      <trkpt lat="47.14037" lon="7.06507">
        <ele>1509.89</ele>
        <time>2012-05-27T09:54:56Z</time>
      </trkpt>
      <trkpt lat="47.14036" lon="7.06506">
        <ele>1510.37</ele>
        <time>2012-05-27T09:54:58Z</time>
      </trkpt>
      <trkpt lat="47.14033" lon="7.06505">
        <ele>1511.81</ele>
        <time>2012-05-27T09:55:01Z</time>
      </trkpt>
      <trkpt lat="47.14027" lon="7.06496">
        <ele>1514.21</ele>
        <time>2012-05-27T09:55:12Z</time>
      </trkpt>
      <trkpt lat="47.14021" lon="7.06488">
        <ele>1516.62</ele>
        <time>2012-05-27T09:55:22Z</time>
      </trkpt>
      <trkpt lat="47.14013" lon="7.06479">
        <ele>1519.98</ele>
        <time>2012-05-27T09:55:31Z</time>
      </trkpt>
      <trkpt lat="47.14007" lon="7.0647">
        <ele>1521.9</ele>
        <time>2012-05-27T09:55:42Z</time>
      </trkpt>
      <trkpt lat="47.14005" lon="7.06468">
        <ele>1522.87</ele>
        <time>2012-05-27T09:55:45Z</time>
      </trkpt>
      <trkpt lat="47.13997" lon="7.0646">
        <ele>1525.27</ele>
        <time>2012-05-27T09:55:55Z</time>
      </trkpt>
      <trkpt lat="47.13989" lon="7.06449">
        <ele>1526.71</ele>
        <time>2012-05-27T09:56:07Z</time>
      </trkpt>
      <trkpt lat="47.13988" lon="7.06449">
        <ele>1527.19</ele>
        <time>2012-05-27T09:56:08Z</time>
      </trkpt>
      <trkpt lat="47.13983" lon="7.06444">
        <ele>1527.19</ele>
        <time>2012-05-27T09:56:14Z</time>
      </trkpt>
      <trkpt lat="47.13982" lon="7.06441">
        <ele>1527.67</ele>
        <time>2012-05-27T09:56:17Z</time>
      </trkpt>
      <trkpt lat="47.1398" lon="7.0644">
        <ele>1527.67</ele>
        <time>2012-05-27T09:56:18Z</time>
      </trkpt>
      <trkpt lat="47.13971" lon="7.06437">
        <ele>1528.15</ele>
        <time>2012-05-27T09:56:28Z</time>
      </trkpt>
      <trkpt lat="47.13958" lon="7.06438">
        <ele>1528.63</ele>
        <time>2012-05-27T09:56:41Z</time>
      </trkpt>
      <trkpt lat="47.13948" lon="7.06438">
        <ele>1529.59</ele>
        <time>2012-05-27T09:56:51Z</time>
      </trkpt>
      <trkpt lat="47.13939" lon="7.06436">
        <ele>1531.52</ele>
        <time>2012-05-27T09:57:01Z</time>
      </trkpt>
      <trkpt lat="47.13931" lon="7.0643">
        <ele>1533.92</ele>
        <time>2012-05-27T09:57:12Z</time>
      </trkpt>
      <trkpt lat="47.13929" lon="7.06428">
        <ele>1535.36</ele>
        <time>2012-05-27T09:57:23Z</time>
      </trkpt>
      <trkpt lat="47.13929" lon="7.06428">
        <ele>1535.84</ele>
        <time>2012-05-27T09:57:43Z</time>
      </trkpt>
      <trkpt lat="47.13927" lon="7.06429">
        <ele>1535.84</ele>
        <time>2012-05-27T09:57:46Z</time>
      </trkpt>
      <trkpt lat="47.13919" lon="7.06425">
        <ele>1537.29</ele>
        <time>2012-05-27T09:57:59Z</time>
      </trkpt>
      <trkpt lat="47.13918" lon="7.06425">
        <ele>1537.29</ele>
        <time>2012-05-27T09:58:00Z</time>
      </trkpt>
      <trkpt lat="47.13906" lon="7.06422">
        <ele>1539.69</ele>
        <time>2012-05-27T09:58:11Z</time>
      </trkpt>
      <trkpt lat="47.13905" lon="7.06422">
        <ele>1539.69</ele>
        <time>2012-05-27T09:58:12Z</time>
      </trkpt>
      <trkpt lat="47.13894" lon="7.06413">
        <ele>1541.61</ele>
        <time>2012-05-27T09:58:23Z</time>
      </trkpt>
      <trkpt lat="47.13892" lon="7.06412">
        <ele>1542.09</ele>
        <time>2012-05-27T09:58:25Z</time>
      </trkpt>
      <trkpt lat="47.13884" lon="7.06404">
        <ele>1544.01</ele>
        <time>2012-05-27T09:58:35Z</time>
      </trkpt>
      <trkpt lat="47.13882" lon="7.06402">
        <ele>1544.5</ele>
        <time>2012-05-27T09:58:37Z</time>
      </trkpt>
      <trkpt lat="47.13872" lon="7.06396">
        <ele>1546.42</ele>
        <time>2012-05-27T09:58:47Z</time>
      </trkpt>
      <trkpt lat="47.13862" lon="7.06388">
        <ele>1547.86</ele>
        <time>2012-05-27T09:58:57Z</time>
      </trkpt>
      <trkpt lat="47.1386" lon="7.06386">
        <ele>1548.34</ele>
        <time>2012-05-27T09:58:59Z</time>
      </trkpt>
      <trkpt lat="47.13856" lon="7.06382">
        <ele>1548.82</ele>
        <time>2012-05-27T09:59:04Z</time>
      </trkpt>
      <trkpt lat="47.13851" lon="7.06378">
        <ele>1549.3</ele>
        <time>2012-05-27T09:59:13Z</time>
      </trkpt>
      <trkpt lat="47.13849" lon="7.06376">
        <ele>1549.3</ele>
        <time>2012-05-27T09:59:27Z</time>
      </trkpt>
      <trkpt lat="47.13849" lon="7.06376">
        <ele>1548.82</ele>
        <time>2012-05-27T09:59:31Z</time>
      </trkpt>
      <trkpt lat="47.1385" lon="7.06372">
        <ele>1548.82</ele>
        <time>2012-05-27T09:59:43Z</time>
      </trkpt>
      <trkpt lat="47.13849" lon="7.06371">
        <ele>1547.38</ele>
        <time>2012-05-27T10:00:17Z</time>
      </trkpt>
      <trkpt lat="47.13838" lon="7.06364">
        <ele>1547.86</ele>
        <time>2012-05-27T10:00:28Z</time>
      </trkpt>
      <trkpt lat="47.13834" lon="7.06357">
        <ele>1549.3</ele>
        <time>2012-05-27T10:00:40Z</time>
      </trkpt>
      <trkpt lat="47.13827" lon="7.06342">
        <ele>1549.3</ele>
        <time>2012-05-27T10:00:57Z</time>
      </trkpt>
      <trkpt lat="47.13825" lon="7.06337">
        <ele>1548.82</ele>
        <time>2012-05-27T10:01:09Z</time>
      </trkpt>
      <trkpt lat="47.13818" lon="7.06324">
        <ele>1549.3</ele>
        <time>2012-05-27T10:01:21Z</time>
      </trkpt>
      <trkpt lat="47.13809" lon="7.06311">
        <ele>1551.22</ele>
        <time>2012-05-27T10:01:31Z</time>
      </trkpt>
      <trkpt lat="47.13801" lon="7.06298">
        <ele>1553.15</ele>
        <time>2012-05-27T10:01:41Z</time>
      </trkpt>
      <trkpt lat="47.13794" lon="7.06279">
        <ele>1553.63</ele>
        <time>2012-05-27T10:01:52Z</time>
      </trkpt>
      <trkpt lat="47.13792" lon="7.06274">
        <ele>1553.15</ele>
        <time>2012-05-27T10:01:56Z</time>
      </trkpt>
      <trkpt lat="47.13781" lon="7.06261">
        <ele>1553.63</ele>
        <time>2012-05-27T10:02:06Z</time>
      </trkpt>
      <trkpt lat="47.13774" lon="7.0625">
        <ele>1554.59</ele>
        <time>2012-05-27T10:02:15Z</time>
      </trkpt>
      <trkpt lat="47.13771" lon="7.06244">
        <ele>1554.59</ele>
        <time>2012-05-27T10:02:19Z</time>
      </trkpt>
      <trkpt lat="47.13767" lon="7.06241">
        <ele>1555.07</ele>
        <time>2012-05-27T10:02:24Z</time>
      </trkpt>
      <trkpt lat="47.1376" lon="7.06239">
        <ele>1555.07</ele>
        <time>2012-05-27T10:02:33Z</time>
      </trkpt>
      <trkpt lat="47.13752" lon="7.06235">
        <ele>1554.59</ele>
        <time>2012-05-27T10:02:39Z</time>
      </trkpt>
      <trkpt lat="47.13741" lon="7.06229">
        <ele>1553.63</ele>
        <time>2012-05-27T10:02:48Z</time>
      </trkpt>
      <trkpt lat="47.13739" lon="7.06215">
        <ele>1552.67</ele>
        <time>2012-05-27T10:02:56Z</time>
      </trkpt>
      <trkpt lat="47.13735" lon="7.06204">
        <ele>1553.15</ele>
        <time>2012-05-27T10:03:02Z</time>
      </trkpt>
      <trkpt lat="47.13728" lon="7.06187">
        <ele>1553.15</ele>
        <time>2012-05-27T10:03:15Z</time>
      </trkpt>
      <trkpt lat="47.13724" lon="7.06183">
        <ele>1553.15</ele>
        <time>2012-05-27T10:03:20Z</time>
      </trkpt>
      <trkpt lat="47.13717" lon="7.06175">
        <ele>1552.19</ele>
        <time>2012-05-27T10:03:31Z</time>
      </trkpt>
      <trkpt lat="47.13707" lon="7.06168">
        <ele>1550.74</ele>
        <time>2012-05-27T10:03:43Z</time>
      </trkpt>
      <trkpt lat="47.13706" lon="7.06158">
        <ele>1551.22</ele>
        <time>2012-05-27T10:03:49Z</time>
      </trkpt>
      <trkpt lat="47.13697" lon="7.06136">
        <ele>1548.34</ele>
        <time>2012-05-27T10:04:03Z</time>
      </trkpt>
      <trkpt lat="47.13695" lon="7.06133">
        <ele>1547.86</ele>
        <time>2012-05-27T10:04:06Z</time>
      </trkpt>
      <trkpt lat="47.13693" lon="7.06124">
        <ele>1548.34</ele>
        <time>2012-05-27T10:04:11Z</time>
      </trkpt>
      <trkpt lat="47.13682" lon="7.06103">
        <ele>1547.38</ele>
        <time>2012-05-27T10:04:26Z</time>
      </trkpt>
      <trkpt lat="47.13673" lon="7.06089">
        <ele>1545.94</ele>
        <time>2012-05-27T10:04:38Z</time>
      </trkpt>
      <trkpt lat="47.1366" lon="7.06078">
        <ele>1544.5</ele>
        <time>2012-05-27T10:04:51Z</time>
      </trkpt>
      <trkpt lat="47.13656" lon="7.06076">
        <ele>1544.98</ele>
        <time>2012-05-27T10:05:02Z</time>
      </trkpt>
      <trkpt lat="47.13651" lon="7.06077">
        <ele>1545.46</ele>
        <time>2012-05-27T10:05:13Z</time>
      </trkpt>
      <trkpt lat="47.13643" lon="7.06076">
        <ele>1545.94</ele>
        <time>2012-05-27T10:05:26Z</time>
      </trkpt>
      <trkpt lat="47.1363" lon="7.06081">
        <ele>1544.98</ele>
        <time>2012-05-27T10:05:37Z</time>
      </trkpt>
      <trkpt lat="47.13612" lon="7.06092">
        <ele>1544.5</ele>
        <time>2012-05-27T10:05:51Z</time>
      </trkpt>
      <trkpt lat="47.13598" lon="7.06099">
        <ele>1543.53</ele>
        <time>2012-05-27T10:06:04Z</time>
      </trkpt>
      <trkpt lat="47.13583" lon="7.06109">
        <ele>1542.57</ele>
        <time>2012-05-27T10:06:18Z</time>
      </trkpt>
      <trkpt lat="47.13568" lon="7.06115">
        <ele>1540.65</ele>
        <time>2012-05-27T10:06:30Z</time>
      </trkpt>
      <trkpt lat="47.13559" lon="7.06118">
        <ele>1540.17</ele>
        <time>2012-05-27T10:06:38Z</time>
      </trkpt>
      <trkpt lat="47.13551" lon="7.06115">
        <ele>1540.17</ele>
        <time>2012-05-27T10:06:45Z</time>
      </trkpt>
      <trkpt lat="47.13547" lon="7.06111">
        <ele>1538.73</ele>
        <time>2012-05-27T10:06:51Z</time>
      </trkpt>
      <trkpt lat="47.1354" lon="7.06113">
        <ele>1538.25</ele>
        <time>2012-05-27T10:06:56Z</time>
      </trkpt>
      <trkpt lat="47.13537" lon="7.06114">
        <ele>1538.25</ele>
        <time>2012-05-27T10:06:59Z</time>
      </trkpt>
      <trkpt lat="47.13526" lon="7.06126">
        <ele>1537.77</ele>
        <time>2012-05-27T10:07:12Z</time>
      </trkpt>
      <trkpt lat="47.13521" lon="7.0613">
        <ele>1537.29</ele>
        <time>2012-05-27T10:07:17Z</time>
      </trkpt>
      <trkpt lat="47.1351" lon="7.06144">
        <ele>1535.36</ele>
        <time>2012-05-27T10:07:29Z</time>
      </trkpt>
      <trkpt lat="47.135" lon="7.06154">
        <ele>1534.88</ele>
        <time>2012-05-27T10:07:40Z</time>
      </trkpt>
      <trkpt lat="47.13497" lon="7.06157">
        <ele>1534.88</ele>
        <time>2012-05-27T10:07:44Z</time>
      </trkpt>
      <trkpt lat="47.13489" lon="7.06166">
        <ele>1534.88</ele>
        <time>2012-05-27T10:07:53Z</time>
      </trkpt>
      <trkpt lat="47.13481" lon="7.06175">
        <ele>1534.88</ele>
        <time>2012-05-27T10:08:03Z</time>
      </trkpt>
      <trkpt lat="47.13474" lon="7.06184">
        <ele>1534.88</ele>
        <time>2012-05-27T10:08:13Z</time>
      </trkpt>
      <trkpt lat="47.13467" lon="7.06193">
        <ele>1535.84</ele>
        <time>2012-05-27T10:08:23Z</time>
      </trkpt>
      <trkpt lat="47.13459" lon="7.06201">
        <ele>1536.8</ele>
        <time>2012-05-27T10:08:34Z</time>
      </trkpt>
      <trkpt lat="47.13455" lon="7.06205">
        <ele>1537.29</ele>
        <time>2012-05-27T10:08:45Z</time>
      </trkpt>
      <trkpt lat="47.1345" lon="7.06209">
        <ele>1539.69</ele>
        <time>2012-05-27T10:08:56Z</time>
      </trkpt>
      <trkpt lat="47.13449" lon="7.06208">
        <ele>1541.61</ele>
        <time>2012-05-27T10:09:09Z</time>
      </trkpt>
      <trkpt lat="47.13448" lon="7.06207">
        <ele>1543.05</ele>
        <time>2012-05-27T10:09:20Z</time>
      </trkpt>
      <trkpt lat="47.13447" lon="7.06206">
        <ele>1544.5</ele>
        <time>2012-05-27T10:09:32Z</time>
      </trkpt>
      <trkpt lat="47.13445" lon="7.06204">
        <ele>1544.01</ele>
        <time>2012-05-27T10:09:47Z</time>
      </trkpt>
      <trkpt lat="47.13444" lon="7.06204">
        <ele>1544.98</ele>
        <time>2012-05-27T10:10:01Z</time>
      </trkpt>
      <trkpt lat="47.13442" lon="7.06206">
        <ele>1545.46</ele>
        <time>2012-05-27T10:10:11Z</time>
      </trkpt>
      <trkpt lat="47.13437" lon="7.06202">
        <ele>1547.38</ele>
        <time>2012-05-27T10:10:22Z</time>
      </trkpt>
      <trkpt lat="47.13433" lon="7.06201">
        <ele>1550.26</ele>
        <time>2012-05-27T10:10:32Z</time>
      </trkpt>
      <trkpt lat="47.1343" lon="7.062">
        <ele>1552.19</ele>
        <time>2012-05-27T10:10:44Z</time>
      </trkpt>
      <trkpt lat="47.13427" lon="7.06201">
        <ele>1553.15</ele>
        <time>2012-05-27T10:10:55Z</time>
      </trkpt>
      <trkpt lat="47.13424" lon="7.06202">
        <ele>1554.59</ele>
        <time>2012-05-27T10:11:08Z</time>
      </trkpt>
      <trkpt lat="47.13421" lon="7.06206">
        <ele>1556.03</ele>
        <time>2012-05-27T10:11:20Z</time>
      </trkpt>
      <trkpt lat="47.13417" lon="7.06211">
        <ele>1557.47</ele>
        <time>2012-05-27T10:11:28Z</time>
      </trkpt>
      <trkpt lat="47.1341" lon="7.06213">
        <ele>1560.36</ele>
        <time>2012-05-27T10:11:38Z</time>
      </trkpt>
      <trkpt lat="47.13406" lon="7.06212">
        <ele>1562.28</ele>
        <time>2012-05-27T10:11:49Z</time>
      </trkpt>
      <trkpt lat="47.13404" lon="7.06213">
        <ele>1563.24</ele>
        <time>2012-05-27T10:12:00Z</time>
      </trkpt>
      <trkpt lat="47.13404" lon="7.06213">
        <ele>1563.24</ele>
        <time>2012-05-27T10:12:01Z</time>
      </trkpt>
      <trkpt lat="47.13401" lon="7.06208">
        <ele>1567.57</ele>
        <time>2012-05-27T10:12:12Z</time>
      </trkpt>
      <trkpt lat="47.13401" lon="7.06208">
        <ele>1567.57</ele>
        <time>2012-05-27T10:12:13Z</time>
      </trkpt>
      <trkpt lat="47.13394" lon="7.06209">
        <ele>1569.01</ele>
        <time>2012-05-27T10:12:24Z</time>
      </trkpt>
      <trkpt lat="47.13391" lon="7.06209">
        <ele>1570.45</ele>
        <time>2012-05-27T10:12:35Z</time>
      </trkpt>
      <trkpt lat="47.13387" lon="7.06206">
        <ele>1573.82</ele>
        <time>2012-05-27T10:12:45Z</time>
      </trkpt>
      <trkpt lat="47.13385" lon="7.06209">
        <ele>1575.26</ele>
        <time>2012-05-27T10:12:54Z</time>
      </trkpt>
      <trkpt lat="47.13382" lon="7.06212">
        <ele>1576.7</ele>
        <time>2012-05-27T10:13:03Z</time>
      </trkpt>
      <trkpt lat="47.1338" lon="7.06215">
        <ele>1577.66</ele>
        <time>2012-05-27T10:13:10Z</time>
      </trkpt>
      <trkpt lat="47.13379" lon="7.06225">
        <ele>1579.58</ele>
        <time>2012-05-27T10:13:21Z</time>
      </trkpt>
      <trkpt lat="47.13378" lon="7.06228">
        <ele>1580.06</ele>
        <time>2012-05-27T10:13:26Z</time>
      </trkpt>
      <trkpt lat="47.13376" lon="7.06232">
        <ele>1581.03</ele>
        <time>2012-05-27T10:13:35Z</time>
      </trkpt>
      <trkpt lat="47.13372" lon="7.06239">
        <ele>1581.99</ele>
        <time>2012-05-27T10:13:46Z</time>
      </trkpt>
      <trkpt lat="47.13367" lon="7.06244">
        <ele>1583.43</ele>
        <time>2012-05-27T10:13:59Z</time>
      </trkpt>
      <trkpt lat="47.13364" lon="7.0625">
        <ele>1585.35</ele>
        <time>2012-05-27T10:14:13Z</time>
      </trkpt>
      <trkpt lat="47.13363" lon="7.06251">
        <ele>1586.79</ele>
        <time>2012-05-27T10:14:17Z</time>
      </trkpt>
      <trkpt lat="47.13361" lon="7.06252">
        <ele>1587.27</ele>
        <time>2012-05-27T10:14:20Z</time>
      </trkpt>
      <trkpt lat="47.13358" lon="7.06247">
        <ele>1588.72</ele>
        <time>2012-05-27T10:14:30Z</time>
      </trkpt>
      <trkpt lat="47.13358" lon="7.06244">
        <ele>1590.16</ele>
        <time>2012-05-27T10:14:39Z</time>
      </trkpt>
      <trkpt lat="47.13359" lon="7.06242">
        <ele>1590.16</ele>
        <time>2012-05-27T10:14:58Z</time>
      </trkpt>
      <trkpt lat="47.13358" lon="7.06239">
        <ele>1591.6</ele>
        <time>2012-05-27T10:15:09Z</time>
      </trkpt>
      <trkpt lat="47.13357" lon="7.06232">
        <ele>1591.6</ele>
        <time>2012-05-27T10:15:16Z</time>
      </trkpt>
      <trkpt lat="47.13355" lon="7.06216">
        <ele>1592.56</ele>
        <time>2012-05-27T10:15:27Z</time>
      </trkpt>
      <trkpt lat="47.13353" lon="7.06208">
        <ele>1593.52</ele>
        <time>2012-05-27T10:15:33Z</time>
      </trkpt>
      <trkpt lat="47.13351" lon="7.06198">
        <ele>1594.48</ele>
        <time>2012-05-27T10:15:44Z</time>
      </trkpt>
      <trkpt lat="47.13351" lon="7.06197">
        <ele>1594.96</ele>
        <time>2012-05-27T10:15:47Z</time>
      </trkpt>
      <trkpt lat="47.13349" lon="7.06196">
        <ele>1594.96</ele>
        <time>2012-05-27T10:15:50Z</time>
      </trkpt>
      <trkpt lat="47.13341" lon="7.06191">
        <ele>1594</ele>
        <time>2012-05-27T10:16:02Z</time>
      </trkpt>
      <trkpt lat="47.13337" lon="7.06187">
        <ele>1593.52</ele>
        <time>2012-05-27T10:16:16Z</time>
      </trkpt>
      <trkpt lat="47.13334" lon="7.06183">
        <ele>1594</ele>
        <time>2012-05-27T10:16:19Z</time>
      </trkpt>
      <trkpt lat="47.13327" lon="7.06175">
        <ele>1593.52</ele>
        <time>2012-05-27T10:16:27Z</time>
      </trkpt>
      <trkpt lat="47.13324" lon="7.06172">
        <ele>1593.52</ele>
        <time>2012-05-27T10:16:31Z</time>
      </trkpt>
      <trkpt lat="47.13317" lon="7.06167">
        <ele>1591.6</ele>
        <time>2012-05-27T10:16:41Z</time>
      </trkpt>
      <trkpt lat="47.13316" lon="7.06164">
        <ele>1590.64</ele>
        <time>2012-05-27T10:16:55Z</time>
      </trkpt>
      <trkpt lat="47.13315" lon="7.06164">
        <ele>1589.68</ele>
        <time>2012-05-27T10:17:14Z</time>
      </trkpt>
      <trkpt lat="47.13314" lon="7.06164">
        <ele>1589.68</ele>
        <time>2012-05-27T10:17:38Z</time>
      </trkpt>
      <trkpt lat="47.13314" lon="7.06164">
        <ele>1589.68</ele>
        <time>2012-05-27T10:18:05Z</time>
      </trkpt>
      <trkpt lat="47.13314" lon="7.06165">
        <ele>1590.16</ele>
        <time>2012-05-27T10:18:31Z</time>
      </trkpt>
      <trkpt lat="47.13314" lon="7.06166">
        <ele>1590.64</ele>
        <time>2012-05-27T10:18:58Z</time>
      </trkpt>
      <trkpt lat="47.13313" lon="7.06167">
        <ele>1591.6</ele>
        <time>2012-05-27T10:19:23Z</time>
      </trkpt>
      <trkpt lat="47.13313" lon="7.06168">
        <ele>1592.08</ele>
        <time>2012-05-27T10:19:55Z</time>
      </trkpt>
      <trkpt lat="47.13313" lon="7.06169">
        <ele>1593.04</ele>
        <time>2012-05-27T10:20:39Z</time>
      </trkpt>
      <trkpt lat="47.13314" lon="7.06169">
        <ele>1594</ele>
        <time>2012-05-27T10:21:22Z</time>
      </trkpt>
      <trkpt lat="47.13313" lon="7.06169">
        <ele>1594.48</ele>
        <time>2012-05-27T10:21:59Z</time>
      </trkpt>
      <trkpt lat="47.13313" lon="7.0617">
        <ele>1594.48</ele>
        <time>2012-05-27T10:22:39Z</time>
      </trkpt>
      <trkpt lat="47.13313" lon="7.06171">
        <ele>1594.48</ele>
        <time>2012-05-27T10:23:15Z</time>
      </trkpt>
      <trkpt lat="47.13313" lon="7.06171">
        <ele>1594.48</ele>
        <time>2012-05-27T10:23:56Z</time>
      </trkpt>
      <trkpt lat="47.13313" lon="7.06171">
        <ele>1594</ele>
        <time>2012-05-27T10:24:30Z</time>
      </trkpt>
      <trkpt lat="47.13313" lon="7.06172">
        <ele>1593.52</ele>
        <time>2012-05-27T10:25:11Z</time>
      </trkpt>
      <trkpt lat="47.13312" lon="7.06171">
        <ele>1593.04</ele>
        <time>2012-05-27T10:25:46Z</time>
      </trkpt>
      <trkpt lat="47.13312" lon="7.06172">
        <ele>1593.04</ele>
        <time>2012-05-27T10:26:29Z</time>
      </trkpt>
      <trkpt lat="47.13313" lon="7.06172">
        <ele>1594</ele>
        <time>2012-05-27T10:27:09Z</time>
      </trkpt>
      <trkpt lat="47.13313" lon="7.06172">
        <ele>1594.96</ele>
        <time>2012-05-27T10:27:50Z</time>
      </trkpt>
      <trkpt lat="47.13313" lon="7.06172">
        <ele>1595.93</ele>
        <time>2012-05-27T10:28:29Z</time>
      </trkpt>
      <trkpt lat="47.13314" lon="7.06172">
        <ele>1595.93</ele>
        <time>2012-05-27T10:29:12Z</time>
      </trkpt>
      <trkpt lat="47.13314" lon="7.06173">
        <ele>1595.93</ele>
        <time>2012-05-27T10:29:44Z</time>
      </trkpt>
      <trkpt lat="47.13314" lon="7.06173">
        <ele>1596.41</ele>
        <time>2012-05-27T10:30:20Z</time>
      </trkpt>
      <trkpt lat="47.13313" lon="7.06172">
        <ele>1595.45</ele>
        <time>2012-05-27T10:30:56Z</time>
      </trkpt>
      <trkpt lat="47.13313" lon="7.06171">
        <ele>1594.96</ele>
        <time>2012-05-27T10:31:37Z</time>
      </trkpt>
      <trkpt lat="47.13313" lon="7.06171">
        <ele>1594</ele>
        <time>2012-05-27T10:32:13Z</time>
      </trkpt>
      <trkpt lat="47.13313" lon="7.06171">
        <ele>1593.52</ele>
        <time>2012-05-27T10:32:50Z</time>
      </trkpt>
      <trkpt lat="47.13313" lon="7.06172">
        <ele>1593.52</ele>
        <time>2012-05-27T10:33:30Z</time>
      </trkpt>
      <trkpt lat="47.13313" lon="7.06171">
        <ele>1593.52</ele>
        <time>2012-05-27T10:34:12Z</time>
      </trkpt>
      <trkpt lat="47.13313" lon="7.06172">
        <ele>1593.52</ele>
        <time>2012-05-27T10:34:49Z</time>
      </trkpt>
      <trkpt lat="47.13312" lon="7.06172">
        <ele>1594</ele>
        <time>2012-05-27T10:35:35Z</time>
      </trkpt>
      <trkpt lat="47.13313" lon="7.06173">
        <ele>1594</ele>
        <time>2012-05-27T10:36:17Z</time>
      </trkpt>
      <trkpt lat="47.13313" lon="7.06172">
        <ele>1594</ele>
        <time>2012-05-27T10:36:47Z</time>
      </trkpt>
      <trkpt lat="47.13313" lon="7.06171">
        <ele>1593.04</ele>
        <time>2012-05-27T10:37:23Z</time>
      </trkpt>
      <trkpt lat="47.13313" lon="7.06171">
        <ele>1592.56</ele>
        <time>2012-05-27T10:38:04Z</time>
      </trkpt>
      <trkpt lat="47.13312" lon="7.06171">
        <ele>1592.56</ele>
        <time>2012-05-27T10:38:45Z</time>
      </trkpt>
      <trkpt lat="47.13313" lon="7.0617">
        <ele>1591.6</ele>
        <time>2012-05-27T10:39:33Z</time>
      </trkpt>
      <trkpt lat="47.13313" lon="7.06169">
        <ele>1591.6</ele>
        <time>2012-05-27T10:40:19Z</time>
      </trkpt>
      <trkpt lat="47.13313" lon="7.06169">
        <ele>1590.16</ele>
        <time>2012-05-27T10:40:57Z</time>
      </trkpt>
      <trkpt lat="47.13313" lon="7.06168">
        <ele>1589.68</ele>
        <time>2012-05-27T10:41:36Z</time>
      </trkpt>
      <trkpt lat="47.13312" lon="7.06167">
        <ele>1589.2</ele>
        <time>2012-05-27T10:42:13Z</time>
      </trkpt>
      <trkpt lat="47.13312" lon="7.06166">
        <ele>1588.72</ele>
        <time>2012-05-27T10:42:49Z</time>
      </trkpt>
      <trkpt lat="47.13312" lon="7.06166">
        <ele>1587.75</ele>
        <time>2012-05-27T10:43:15Z</time>
      </trkpt>
      <trkpt lat="47.13312" lon="7.06166">
        <ele>1587.27</ele>
        <time>2012-05-27T10:43:45Z</time>
      </trkpt>
      <trkpt lat="47.13312" lon="7.06166">
        <ele>1587.75</ele>
        <time>2012-05-27T10:44:24Z</time>
      </trkpt>
      <trkpt lat="47.13312" lon="7.06166">
        <ele>1588.24</ele>
        <time>2012-05-27T10:44:54Z</time>
      </trkpt>
      <trkpt lat="47.13311" lon="7.06166">
        <ele>1587.27</ele>
        <time>2012-05-27T10:45:36Z</time>
      </trkpt>
      <trkpt lat="47.13312" lon="7.06166">
        <ele>1586.79</ele>
        <time>2012-05-27T10:46:27Z</time>
      </trkpt>
      <trkpt lat="47.13312" lon="7.06166">
        <ele>1586.79</ele>
        <time>2012-05-27T10:47:10Z</time>
      </trkpt>
      <trkpt lat="47.13312" lon="7.06166">
        <ele>1586.31</ele>
        <time>2012-05-27T10:47:51Z</time>
      </trkpt>
      <trkpt lat="47.13311" lon="7.06166">
        <ele>1586.79</ele>
        <time>2012-05-27T10:48:42Z</time>
      </trkpt>
      <trkpt lat="47.13312" lon="7.06166">
        <ele>1586.79</ele>
        <time>2012-05-27T10:49:10Z</time>
      </trkpt>
      <trkpt lat="47.13311" lon="7.06167">
        <ele>1586.31</ele>
        <time>2012-05-27T10:49:51Z</time>
      </trkpt>
      <trkpt lat="47.13311" lon="7.06167">
        <ele>1585.83</ele>
        <time>2012-05-27T10:50:23Z</time>
      </trkpt>
      <trkpt lat="47.13312" lon="7.06167">
        <ele>1586.31</ele>
        <time>2012-05-27T10:50:57Z</time>
      </trkpt>
      <trkpt lat="47.13311" lon="7.06166">
        <ele>1585.83</ele>
        <time>2012-05-27T10:51:27Z</time>
      </trkpt>
      <trkpt lat="47.13312" lon="7.06167">
        <ele>1586.31</ele>
        <time>2012-05-27T10:51:56Z</time>
      </trkpt>
      <trkpt lat="47.13313" lon="7.06167">
        <ele>1586.79</ele>
        <time>2012-05-27T10:52:10Z</time>
      </trkpt>
      <trkpt lat="47.13316" lon="7.06166">
        <ele>1587.75</ele>
        <time>2012-05-27T10:52:20Z</time>
      </trkpt>
      <trkpt lat="47.1332" lon="7.06164">
        <ele>1589.2</ele>
        <time>2012-05-27T10:52:30Z</time>
      </trkpt>
      <trkpt lat="47.13321" lon="7.06164">
        <ele>1589.2</ele>
        <time>2012-05-27T10:52:31Z</time>
      </trkpt>
      <trkpt lat="47.13328" lon="7.0616">
        <ele>1592.08</ele>
        <time>2012-05-27T10:52:44Z</time>
      </trkpt>
      <trkpt lat="47.1333" lon="7.06157">
        <ele>1592.56</ele>
        <time>2012-05-27T10:52:49Z</time>
      </trkpt>
      <trkpt lat="47.13335" lon="7.06145">
        <ele>1594.96</ele>
        <time>2012-05-27T10:53:01Z</time>
      </trkpt>
      <trkpt lat="47.13338" lon="7.06136">
        <ele>1596.89</ele>
        <time>2012-05-27T10:53:14Z</time>
      </trkpt>
      <trkpt lat="47.13338" lon="7.06136">
        <ele>1597.37</ele>
        <time>2012-05-27T10:53:15Z</time>
      </trkpt>
      <trkpt lat="47.13337" lon="7.06133">
        <ele>1597.37</ele>
        <time>2012-05-27T10:53:17Z</time>
      </trkpt>
      <trkpt lat="47.13337" lon="7.06125">
        <ele>1597.85</ele>
        <time>2012-05-27T10:53:25Z</time>
      </trkpt>
      <trkpt lat="47.13334" lon="7.06119">
        <ele>1597.85</ele>
        <time>2012-05-27T10:53:30Z</time>
      </trkpt>
      <trkpt lat="47.1333" lon="7.06099">
        <ele>1598.81</ele>
        <time>2012-05-27T10:53:43Z</time>
      </trkpt>
      <trkpt lat="47.13328" lon="7.06089">
        <ele>1599.77</ele>
        <time>2012-05-27T10:53:56Z</time>
      </trkpt>
      <trkpt lat="47.13326" lon="7.06075">
        <ele>1601.21</ele>
        <time>2012-05-27T10:54:11Z</time>
      </trkpt>
      <trkpt lat="47.13324" lon="7.06062">
        <ele>1599.29</ele>
        <time>2012-05-27T10:54:19Z</time>
      </trkpt>
      <trkpt lat="47.13326" lon="7.06045">
        <ele>1597.85</ele>
        <time>2012-05-27T10:54:26Z</time>
      </trkpt>
      <trkpt lat="47.13327" lon="7.06043">
        <ele>1597.37</ele>
        <time>2012-05-27T10:54:35Z</time>
      </trkpt>
      <trkpt lat="47.13323" lon="7.06039">
        <ele>1593.52</ele>
        <time>2012-05-27T10:54:44Z</time>
      </trkpt>
      <trkpt lat="47.13313" lon="7.06019">
        <ele>1592.56</ele>
        <time>2012-05-27T10:54:57Z</time>
      </trkpt>
      <trkpt lat="47.13314" lon="7.06016">
        <ele>1592.08</ele>
        <time>2012-05-27T10:54:59Z</time>
      </trkpt>
      <trkpt lat="47.1331" lon="7.05989">
        <ele>1592.08</ele>
        <time>2012-05-27T10:55:12Z</time>
      </trkpt>
      <trkpt lat="47.13304" lon="7.05974">
        <ele>1594</ele>
        <time>2012-05-27T10:55:23Z</time>
      </trkpt>
      <trkpt lat="47.13301" lon="7.05949">
        <ele>1596.41</ele>
        <time>2012-05-27T10:55:36Z</time>
      </trkpt>
      <trkpt lat="47.13303" lon="7.05933">
        <ele>1598.81</ele>
        <time>2012-05-27T10:55:47Z</time>
      </trkpt>
      <trkpt lat="47.13299" lon="7.05918">
        <ele>1598.81</ele>
        <time>2012-05-27T10:55:57Z</time>
      </trkpt>
      <trkpt lat="47.13295" lon="7.05895">
        <ele>1595.93</ele>
        <time>2012-05-27T10:56:12Z</time>
      </trkpt>
      <trkpt lat="47.13289" lon="7.05865">
        <ele>1591.12</ele>
        <time>2012-05-27T10:56:29Z</time>
      </trkpt>
      <trkpt lat="47.13283" lon="7.05839">
        <ele>1588.72</ele>
        <time>2012-05-27T10:56:45Z</time>
      </trkpt>
      <trkpt lat="47.13278" lon="7.05809">
        <ele>1589.2</ele>
        <time>2012-05-27T10:57:01Z</time>
      </trkpt>
      <trkpt lat="47.13272" lon="7.05778">
        <ele>1588.72</ele>
        <time>2012-05-27T10:57:18Z</time>
      </trkpt>
      <trkpt lat="47.13263" lon="7.0575">
        <ele>1590.16</ele>
        <time>2012-05-27T10:57:34Z</time>
      </trkpt>
      <trkpt lat="47.13258" lon="7.05726">
        <ele>1593.04</ele>
        <time>2012-05-27T10:57:47Z</time>
      </trkpt>
      <trkpt lat="47.13261" lon="7.05716">
        <ele>1593.52</ele>
        <time>2012-05-27T10:57:58Z</time>
      </trkpt>
      <trkpt lat="47.13261" lon="7.0571">
        <ele>1594</ele>
        <time>2012-05-27T10:58:07Z</time>
      </trkpt>
      <trkpt lat="47.1326" lon="7.05707">
        <ele>1593.52</ele>
        <time>2012-05-27T10:58:22Z</time>
      </trkpt>
      <trkpt lat="47.1326" lon="7.05709">
        <ele>1592.56</ele>
        <time>2012-05-27T10:58:45Z</time>
      </trkpt>
      <trkpt lat="47.13261" lon="7.05709">
        <ele>1593.04</ele>
        <time>2012-05-27T10:59:03Z</time>
      </trkpt>
      <trkpt lat="47.1326" lon="7.05706">
        <ele>1593.04</ele>
        <time>2012-05-27T10:59:23Z</time>
      </trkpt>
      <trkpt lat="47.13259" lon="7.05703">
        <ele>1593.04</ele>
        <time>2012-05-27T10:59:26Z</time>
      </trkpt>
      <trkpt lat="47.13254" lon="7.05686">
        <ele>1593.04</ele>
        <time>2012-05-27T10:59:37Z</time>
      </trkpt>
      <trkpt lat="47.13248" lon="7.05657">
        <ele>1594</ele>
        <time>2012-05-27T10:59:52Z</time>
      </trkpt>
      <trkpt lat="47.1324" lon="7.05628">
        <ele>1593.04</ele>
        <time>2012-05-27T11:00:08Z</time>
      </trkpt>
      <trkpt lat="47.13233" lon="7.05606">
        <ele>1593.52</ele>
        <time>2012-05-27T11:00:22Z</time>
      </trkpt>
      <trkpt lat="47.13227" lon="7.0558">
        <ele>1593.04</ele>
        <time>2012-05-27T11:00:37Z</time>
      </trkpt>
      <trkpt lat="47.13223" lon="7.0556">
        <ele>1592.56</ele>
        <time>2012-05-27T11:00:48Z</time>
      </trkpt>
      <trkpt lat="47.13221" lon="7.05548">
        <ele>1593.04</ele>
        <time>2012-05-27T11:00:54Z</time>
      </trkpt>
      <trkpt lat="47.13212" lon="7.05529">
        <ele>1594</ele>
        <time>2012-05-27T11:01:06Z</time>
      </trkpt>
      <trkpt lat="47.13207" lon="7.05515">
        <ele>1594.48</ele>
        <time>2012-05-27T11:01:16Z</time>
      </trkpt>
      <trkpt lat="47.13206" lon="7.05506">
        <ele>1594.48</ele>
        <time>2012-05-27T11:01:21Z</time>
      </trkpt>
      <trkpt lat="47.13203" lon="7.05489">
        <ele>1592.08</ele>
        <time>2012-05-27T11:01:34Z</time>
      </trkpt>
      <trkpt lat="47.13202" lon="7.05466">
        <ele>1589.68</ele>
        <time>2012-05-27T11:01:47Z</time>
      </trkpt>
      <trkpt lat="47.13201" lon="7.05448">
        <ele>1588.72</ele>
        <time>2012-05-27T11:01:57Z</time>
      </trkpt>
      <trkpt lat="47.13197" lon="7.05438">
        <ele>1587.75</ele>
        <time>2012-05-27T11:02:03Z</time>
      </trkpt>
      <trkpt lat="47.13185" lon="7.05411">
        <ele>1586.79</ele>
        <time>2012-05-27T11:02:18Z</time>
      </trkpt>
      <trkpt lat="47.13173" lon="7.05384">
        <ele>1584.39</ele>
        <time>2012-05-27T11:02:36Z</time>
      </trkpt>
      <trkpt lat="47.13164" lon="7.05356">
        <ele>1580.54</ele>
        <time>2012-05-27T11:02:54Z</time>
      </trkpt>
      <trkpt lat="47.13152" lon="7.05322">
        <ele>1575.26</ele>
        <time>2012-05-27T11:03:15Z</time>
      </trkpt>
      <trkpt lat="47.13147" lon="7.05294">
        <ele>1572.85</ele>
        <time>2012-05-27T11:03:31Z</time>
      </trkpt>
      <trkpt lat="47.13141" lon="7.05274">
        <ele>1571.41</ele>
        <time>2012-05-27T11:03:45Z</time>
      </trkpt>
      <trkpt lat="47.13135" lon="7.0525">
        <ele>1570.45</ele>
        <time>2012-05-27T11:03:59Z</time>
      </trkpt>
      <trkpt lat="47.13123" lon="7.0523">
        <ele>1569.97</ele>
        <time>2012-05-27T11:04:14Z</time>
      </trkpt>
      <trkpt lat="47.13118" lon="7.05222">
        <ele>1569.01</ele>
        <time>2012-05-27T11:04:27Z</time>
      </trkpt>
      <trkpt lat="47.13118" lon="7.05217">
        <ele>1570.45</ele>
        <time>2012-05-27T11:04:47Z</time>
      </trkpt>
      <trkpt lat="47.13119" lon="7.05216">
        <ele>1572.85</ele>
        <time>2012-05-27T11:05:15Z</time>
      </trkpt>
      <trkpt lat="47.13118" lon="7.05212">
        <ele>1573.33</ele>
        <time>2012-05-27T11:05:32Z</time>
      </trkpt>
      <trkpt lat="47.13108" lon="7.05199">
        <ele>1571.41</ele>
        <time>2012-05-27T11:05:45Z</time>
      </trkpt>
      <trkpt lat="47.13096" lon="7.05173">
        <ele>1567.09</ele>
        <time>2012-05-27T11:06:01Z</time>
      </trkpt>
      <trkpt lat="47.13087" lon="7.05156">
        <ele>1568.05</ele>
        <time>2012-05-27T11:06:16Z</time>
      </trkpt>
      <trkpt lat="47.13081" lon="7.05147">
        <ele>1568.53</ele>
        <time>2012-05-27T11:06:25Z</time>
      </trkpt>
      <trkpt lat="47.13072" lon="7.05123">
        <ele>1570.93</ele>
        <time>2012-05-27T11:06:42Z</time>
      </trkpt>
      <trkpt lat="47.13059" lon="7.05101">
        <ele>1571.89</ele>
        <time>2012-05-27T11:06:59Z</time>
      </trkpt>
      <trkpt lat="47.13055" lon="7.05095">
        <ele>1571.41</ele>
        <time>2012-05-27T11:07:06Z</time>
      </trkpt>
      <trkpt lat="47.13053" lon="7.05091">
        <ele>1570.93</ele>
        <time>2012-05-27T11:07:09Z</time>
      </trkpt>
      <trkpt lat="47.1304" lon="7.05074">
        <ele>1569.97</ele>
        <time>2012-05-27T11:07:24Z</time>
      </trkpt>
      <trkpt lat="47.13029" lon="7.05052">
        <ele>1568.05</ele>
        <time>2012-05-27T11:07:40Z</time>
      </trkpt>
      <trkpt lat="47.13016" lon="7.05032">
        <ele>1567.57</ele>
        <time>2012-05-27T11:07:55Z</time>
      </trkpt>
      <trkpt lat="47.13004" lon="7.05006">
        <ele>1567.09</ele>
        <time>2012-05-27T11:08:11Z</time>
      </trkpt>
      <trkpt lat="47.12991" lon="7.04979">
        <ele>1568.05</ele>
        <time>2012-05-27T11:08:29Z</time>
      </trkpt>
      <trkpt lat="47.1298" lon="7.04958">
        <ele>1566.61</ele>
        <time>2012-05-27T11:08:45Z</time>
      </trkpt>
      <trkpt lat="47.1298" lon="7.04957">
        <ele>1566.61</ele>
        <time>2012-05-27T11:08:46Z</time>
      </trkpt>
      <trkpt lat="47.12963" lon="7.04932">
        <ele>1563.72</ele>
        <time>2012-05-27T11:09:06Z</time>
      </trkpt>
      <trkpt lat="47.12952" lon="7.04914">
        <ele>1563.24</ele>
        <time>2012-05-27T11:09:20Z</time>
      </trkpt>
      <trkpt lat="47.12938" lon="7.04891">
        <ele>1559.88</ele>
        <time>2012-05-27T11:09:37Z</time>
      </trkpt>
      <trkpt lat="47.12925" lon="7.04871">
        <ele>1558.43</ele>
        <time>2012-05-27T11:09:53Z</time>
      </trkpt>
      <trkpt lat="47.12912" lon="7.04847">
        <ele>1556.03</ele>
        <time>2012-05-27T11:10:10Z</time>
      </trkpt>
      <trkpt lat="47.12903" lon="7.04827">
        <ele>1555.07</ele>
        <time>2012-05-27T11:10:24Z</time>
      </trkpt>
      <trkpt lat="47.12903" lon="7.04825">
        <ele>1555.07</ele>
        <time>2012-05-27T11:10:25Z</time>
      </trkpt>
      <trkpt lat="47.129" lon="7.04819">
        <ele>1555.07</ele>
        <time>2012-05-27T11:10:34Z</time>
      </trkpt>
      <trkpt lat="47.1289" lon="7.04812">
        <ele>1554.59</ele>
        <time>2012-05-27T11:10:44Z</time>
      </trkpt>
      <trkpt lat="47.12881" lon="7.04804">
        <ele>1551.71</ele>
        <time>2012-05-27T11:10:54Z</time>
      </trkpt>
      <trkpt lat="47.12877" lon="7.04801">
        <ele>1550.74</ele>
        <time>2012-05-27T11:10:59Z</time>
      </trkpt>
      <trkpt lat="47.1287" lon="7.04778">
        <ele>1550.26</ele>
        <time>2012-05-27T11:11:15Z</time>
      </trkpt>
      <trkpt lat="47.12869" lon="7.04776">
        <ele>1550.26</ele>
        <time>2012-05-27T11:11:17Z</time>
      </trkpt>
      <trkpt lat="47.12852" lon="7.04761">
        <ele>1548.82</ele>
        <time>2012-05-27T11:11:32Z</time>
      </trkpt>
      <trkpt lat="47.12836" lon="7.04732">
        <ele>1546.42</ele>
        <time>2012-05-27T11:11:53Z</time>
      </trkpt>
      <trkpt lat="47.1282" lon="7.04708">
        <ele>1544.98</ele>
        <time>2012-05-27T11:12:12Z</time>
      </trkpt>
      <trkpt lat="47.12806" lon="7.04686">
        <ele>1543.53</ele>
        <time>2012-05-27T11:12:30Z</time>
      </trkpt>
      <trkpt lat="47.12799" lon="7.04681">
        <ele>1542.57</ele>
        <time>2012-05-27T11:12:37Z</time>
      </trkpt>
      <trkpt lat="47.12777" lon="7.04658">
        <ele>1540.65</ele>
        <time>2012-05-27T11:12:58Z</time>
      </trkpt>
      <trkpt lat="47.12763" lon="7.04642">
        <ele>1541.13</ele>
        <time>2012-05-27T11:13:15Z</time>
      </trkpt>
      <trkpt lat="47.12754" lon="7.04635">
        <ele>1537.77</ele>
        <time>2012-05-27T11:13:28Z</time>
      </trkpt>
      <trkpt lat="47.12738" lon="7.04616">
        <ele>1536.32</ele>
        <time>2012-05-27T11:13:45Z</time>
      </trkpt>
      <trkpt lat="47.12725" lon="7.04598">
        <ele>1537.77</ele>
        <time>2012-05-27T11:14:02Z</time>
      </trkpt>
      <trkpt lat="47.12715" lon="7.04586">
        <ele>1535.84</ele>
        <time>2012-05-27T11:14:19Z</time>
      </trkpt>
      <trkpt lat="47.12712" lon="7.04585">
        <ele>1537.77</ele>
        <time>2012-05-27T11:14:48Z</time>
      </trkpt>
      <trkpt lat="47.12711" lon="7.04583">
        <ele>1538.25</ele>
        <time>2012-05-27T11:15:29Z</time>
      </trkpt>
      <trkpt lat="47.1271" lon="7.04582">
        <ele>1538.25</ele>
        <time>2012-05-27T11:16:07Z</time>
      </trkpt>
      <trkpt lat="47.1271" lon="7.04581">
        <ele>1538.73</ele>
        <time>2012-05-27T11:16:44Z</time>
      </trkpt>
      <trkpt lat="47.1271" lon="7.0458">
        <ele>1538.73</ele>
        <time>2012-05-27T11:17:20Z</time>
      </trkpt>
      <trkpt lat="47.1272" lon="7.04579">
        <ele>1540.65</ele>
        <time>2012-05-27T11:17:35Z</time>
      </trkpt>
      <trkpt lat="47.12724" lon="7.04564">
        <ele>1542.09</ele>
        <time>2012-05-27T11:17:47Z</time>
      </trkpt>
      <trkpt lat="47.12719" lon="7.04537">
        <ele>1542.57</ele>
        <time>2012-05-27T11:18:04Z</time>
      </trkpt>
      <trkpt lat="47.12712" lon="7.0451">
        <ele>1542.57</ele>
        <time>2012-05-27T11:18:21Z</time>
      </trkpt>
      <trkpt lat="47.12712" lon="7.04507">
        <ele>1542.09</ele>
        <time>2012-05-27T11:18:23Z</time>
      </trkpt>
      <trkpt lat="47.12705" lon="7.04482">
        <ele>1540.17</ele>
        <time>2012-05-27T11:18:39Z</time>
      </trkpt>
      <trkpt lat="47.12705" lon="7.04477">
        <ele>1539.69</ele>
        <time>2012-05-27T11:18:42Z</time>
      </trkpt>
      <trkpt lat="47.12705" lon="7.04471">
        <ele>1538.25</ele>
        <time>2012-05-27T11:18:46Z</time>
      </trkpt>
      <trkpt lat="47.12702" lon="7.04463">
        <ele>1538.73</ele>
        <time>2012-05-27T11:18:51Z</time>
      </trkpt>
      <trkpt lat="47.12699" lon="7.0446">
        <ele>1538.25</ele>
        <time>2012-05-27T11:18:54Z</time>
      </trkpt>
      <trkpt lat="47.12687" lon="7.04438">
        <ele>1538.25</ele>
        <time>2012-05-27T11:19:11Z</time>
      </trkpt>
      <trkpt lat="47.12677" lon="7.0442">
        <ele>1540.17</ele>
        <time>2012-05-27T11:19:27Z</time>
      </trkpt>
      <trkpt lat="47.12675" lon="7.04417">
        <ele>1540.65</ele>
        <time>2012-05-27T11:19:31Z</time>
      </trkpt>
      <trkpt lat="47.1267" lon="7.04412">
        <ele>1542.09</ele>
        <time>2012-05-27T11:19:37Z</time>
      </trkpt>
      <trkpt lat="47.12666" lon="7.04405">
        <ele>1543.05</ele>
        <time>2012-05-27T11:19:45Z</time>
      </trkpt>
      <trkpt lat="47.12662" lon="7.04397">
        <ele>1543.53</ele>
        <time>2012-05-27T11:19:56Z</time>
      </trkpt>
      <trkpt lat="47.12656" lon="7.04385">
        <ele>1546.42</ele>
        <time>2012-05-27T11:20:09Z</time>
      </trkpt>
      <trkpt lat="47.12645" lon="7.0437">
        <ele>1548.82</ele>
        <time>2012-05-27T11:20:25Z</time>
      </trkpt>
      <trkpt lat="47.12644" lon="7.04366">
        <ele>1549.78</ele>
        <time>2012-05-27T11:20:36Z</time>
      </trkpt>
      <trkpt lat="47.12645" lon="7.04368">
        <ele>1550.26</ele>
        <time>2012-05-27T11:21:02Z</time>
      </trkpt>
      <trkpt lat="47.12645" lon="7.04367">
        <ele>1550.74</ele>
        <time>2012-05-27T11:21:27Z</time>
      </trkpt>
      <trkpt lat="47.12641" lon="7.04361">
        <ele>1551.22</ele>
        <time>2012-05-27T11:21:35Z</time>
      </trkpt>
      <trkpt lat="47.12633" lon="7.04346">
        <ele>1550.74</ele>
        <time>2012-05-27T11:21:47Z</time>
      </trkpt>
      <trkpt lat="47.12626" lon="7.04331">
        <ele>1551.71</ele>
        <time>2012-05-27T11:21:58Z</time>
      </trkpt>
      <trkpt lat="47.12619" lon="7.04314">
        <ele>1552.19</ele>
        <time>2012-05-27T11:22:09Z</time>
      </trkpt>
      <trkpt lat="47.12615" lon="7.04305">
        <ele>1552.67</ele>
        <time>2012-05-27T11:22:16Z</time>
      </trkpt>
      <trkpt lat="47.12606" lon="7.04291">
        <ele>1551.22</ele>
        <time>2012-05-27T11:22:27Z</time>
      </trkpt>
      <trkpt lat="47.12604" lon="7.04285">
        <ele>1551.22</ele>
        <time>2012-05-27T11:22:31Z</time>
      </trkpt>
      <trkpt lat="47.12598" lon="7.04272">
        <ele>1550.26</ele>
        <time>2012-05-27T11:22:42Z</time>
      </trkpt>
      <trkpt lat="47.1259" lon="7.04254">
        <ele>1549.3</ele>
        <time>2012-05-27T11:22:54Z</time>
      </trkpt>
      <trkpt lat="47.12589" lon="7.04252">
        <ele>1548.82</ele>
        <time>2012-05-27T11:22:55Z</time>
      </trkpt>
      <trkpt lat="47.12577" lon="7.04233">
        <ele>1545.46</ele>
        <time>2012-05-27T11:23:09Z</time>
      </trkpt>
      <trkpt lat="47.12569" lon="7.04217">
        <ele>1544.98</ele>
        <time>2012-05-27T11:23:21Z</time>
      </trkpt>
      <trkpt lat="47.12559" lon="7.042">
        <ele>1544.5</ele>
        <time>2012-05-27T11:23:33Z</time>
      </trkpt>
      <trkpt lat="47.12554" lon="7.04186">
        <ele>1544.5</ele>
        <time>2012-05-27T11:23:43Z</time>
      </trkpt>
      <trkpt lat="47.1255" lon="7.04178">
        <ele>1544.5</ele>
        <time>2012-05-27T11:23:50Z</time>
      </trkpt>
      <trkpt lat="47.12548" lon="7.04172">
        <ele>1544.5</ele>
        <time>2012-05-27T11:23:55Z</time>
      </trkpt>
      <trkpt lat="47.12544" lon="7.04165">
        <ele>1544.5</ele>
        <time>2012-05-27T11:23:59Z</time>
      </trkpt>
      <trkpt lat="47.12537" lon="7.04149">
        <ele>1543.05</ele>
        <time>2012-05-27T11:24:12Z</time>
      </trkpt>
      <trkpt lat="47.12533" lon="7.04144">
        <ele>1542.57</ele>
        <time>2012-05-27T11:24:16Z</time>
      </trkpt>
      <trkpt lat="47.12524" lon="7.04125">
        <ele>1542.09</ele>
        <time>2012-05-27T11:24:28Z</time>
      </trkpt>
      <trkpt lat="47.12516" lon="7.04113">
        <ele>1540.17</ele>
        <time>2012-05-27T11:24:38Z</time>
      </trkpt>
      <trkpt lat="47.12513" lon="7.04105">
        <ele>1539.69</ele>
        <time>2012-05-27T11:24:43Z</time>
      </trkpt>
      <trkpt lat="47.12501" lon="7.04085">
        <ele>1537.77</ele>
        <time>2012-05-27T11:24:57Z</time>
      </trkpt>
      <trkpt lat="47.12493" lon="7.04069">
        <ele>1537.77</ele>
        <time>2012-05-27T11:25:09Z</time>
      </trkpt>
      <trkpt lat="47.12489" lon="7.04061">
        <ele>1537.29</ele>
        <time>2012-05-27T11:25:14Z</time>
      </trkpt>
      <trkpt lat="47.12479" lon="7.04039">
        <ele>1537.77</ele>
        <time>2012-05-27T11:25:28Z</time>
      </trkpt>
      <trkpt lat="47.12472" lon="7.04026">
        <ele>1538.73</ele>
        <time>2012-05-27T11:25:39Z</time>
      </trkpt>
      <trkpt lat="47.12468" lon="7.04015">
        <ele>1539.69</ele>
        <time>2012-05-27T11:25:47Z</time>
      </trkpt>
      <trkpt lat="47.12464" lon="7.04005">
        <ele>1540.17</ele>
        <time>2012-05-27T11:25:56Z</time>
      </trkpt>
      <trkpt lat="47.12462" lon="7.04002">
        <ele>1540.17</ele>
        <time>2012-05-27T11:25:59Z</time>
      </trkpt>
      <trkpt lat="47.12453" lon="7.0398">
        <ele>1542.09</ele>
        <time>2012-05-27T11:26:14Z</time>
      </trkpt>
      <trkpt lat="47.12445" lon="7.03964">
        <ele>1540.65</ele>
        <time>2012-05-27T11:26:29Z</time>
      </trkpt>
      <trkpt lat="47.12436" lon="7.03945">
        <ele>1539.21</ele>
        <time>2012-05-27T11:26:43Z</time>
      </trkpt>
      <trkpt lat="47.12428" lon="7.03933">
        <ele>1538.73</ele>
        <time>2012-05-27T11:26:54Z</time>
      </trkpt>
      <trkpt lat="47.12421" lon="7.03923">
        <ele>1537.29</ele>
        <time>2012-05-27T11:27:03Z</time>
      </trkpt>
      <trkpt lat="47.12412" lon="7.03906">
        <ele>1536.32</ele>
        <time>2012-05-27T11:27:17Z</time>
      </trkpt>
      <trkpt lat="47.12406" lon="7.03895">
        <ele>1536.32</ele>
        <time>2012-05-27T11:27:26Z</time>
      </trkpt>
      <trkpt lat="47.12397" lon="7.0388">
        <ele>1535.84</ele>
        <time>2012-05-27T11:27:39Z</time>
      </trkpt>
      <trkpt lat="47.1239" lon="7.03866">
        <ele>1535.84</ele>
        <time>2012-05-27T11:27:50Z</time>
      </trkpt>
      <trkpt lat="47.12382" lon="7.03851">
        <ele>1535.84</ele>
        <time>2012-05-27T11:28:01Z</time>
      </trkpt>
      <trkpt lat="47.12375" lon="7.03836">
        <ele>1535.84</ele>
        <time>2012-05-27T11:28:11Z</time>
      </trkpt>
      <trkpt lat="47.12367" lon="7.03821">
        <ele>1535.36</ele>
        <time>2012-05-27T11:28:22Z</time>
      </trkpt>
      <trkpt lat="47.12366" lon="7.03819">
        <ele>1535.36</ele>
        <time>2012-05-27T11:28:24Z</time>
      </trkpt>
      <trkpt lat="47.12365" lon="7.03814">
        <ele>1535.36</ele>
        <time>2012-05-27T11:28:29Z</time>
      </trkpt>
      <trkpt lat="47.12364" lon="7.0381">
        <ele>1535.84</ele>
        <time>2012-05-27T11:28:46Z</time>
      </trkpt>
      <trkpt lat="47.12363" lon="7.0381">
        <ele>1535.84</ele>
        <time>2012-05-27T11:29:13Z</time>
      </trkpt>
      <trkpt lat="47.12364" lon="7.0381">
        <ele>1535.84</ele>
        <time>2012-05-27T11:29:16Z</time>
      </trkpt>
      <trkpt lat="47.12361" lon="7.038">
        <ele>1535.36</ele>
        <time>2012-05-27T11:29:28Z</time>
      </trkpt>
      <trkpt lat="47.12361" lon="7.038">
        <ele>1534.88</ele>
        <time>2012-05-27T11:29:44Z</time>
      </trkpt>
      <trkpt lat="47.12359" lon="7.03799">
        <ele>1535.36</ele>
        <time>2012-05-27T11:29:47Z</time>
      </trkpt>
      <trkpt lat="47.12346" lon="7.03781">
        <ele>1536.32</ele>
        <time>2012-05-27T11:30:02Z</time>
      </trkpt>
      <trkpt lat="47.12343" lon="7.03779">
        <ele>1536.32</ele>
        <time>2012-05-27T11:30:05Z</time>
      </trkpt>
      <trkpt lat="47.12335" lon="7.03766">
        <ele>1537.77</ele>
        <time>2012-05-27T11:30:17Z</time>
      </trkpt>
      <trkpt lat="47.12334" lon="7.03765">
        <ele>1537.77</ele>
        <time>2012-05-27T11:30:18Z</time>
      </trkpt>
      <trkpt lat="47.12328" lon="7.0375">
        <ele>1538.73</ele>
        <time>2012-05-27T11:30:30Z</time>
      </trkpt>
      <trkpt lat="47.12317" lon="7.03735">
        <ele>1539.69</ele>
        <time>2012-05-27T11:30:41Z</time>
      </trkpt>
      <trkpt lat="47.12311" lon="7.03727">
        <ele>1539.69</ele>
        <time>2012-05-27T11:30:52Z</time>
      </trkpt>
      <trkpt lat="47.12303" lon="7.03713">
        <ele>1540.65</ele>
        <time>2012-05-27T11:31:05Z</time>
      </trkpt>
      <trkpt lat="47.12294" lon="7.03701">
        <ele>1541.13</ele>
        <time>2012-05-27T11:31:17Z</time>
      </trkpt>
      <trkpt lat="47.12287" lon="7.03691">
        <ele>1541.13</ele>
        <time>2012-05-27T11:31:25Z</time>
      </trkpt>
      <trkpt lat="47.12279" lon="7.03677">
        <ele>1542.09</ele>
        <time>2012-05-27T11:31:36Z</time>
      </trkpt>
      <trkpt lat="47.12273" lon="7.03665">
        <ele>1543.05</ele>
        <time>2012-05-27T11:31:46Z</time>
      </trkpt>
      <trkpt lat="47.12272" lon="7.03663">
        <ele>1543.53</ele>
        <time>2012-05-27T11:31:48Z</time>
      </trkpt>
      <trkpt lat="47.12267" lon="7.03655">
        <ele>1545.46</ele>
        <time>2012-05-27T11:32:00Z</time>
      </trkpt>
      <trkpt lat="47.12265" lon="7.03653">
        <ele>1545.46</ele>
        <time>2012-05-27T11:32:04Z</time>
      </trkpt>
      <trkpt lat="47.12258" lon="7.03646">
        <ele>1544.98</ele>
        <time>2012-05-27T11:32:13Z</time>
      </trkpt>
      <trkpt lat="47.12252" lon="7.03638">
        <ele>1544.01</ele>
        <time>2012-05-27T11:32:19Z</time>
      </trkpt>
      <trkpt lat="47.12249" lon="7.03633">
        <ele>1543.53</ele>
        <time>2012-05-27T11:32:23Z</time>
      </trkpt>
      <trkpt lat="47.12238" lon="7.0362">
        <ele>1543.53</ele>
        <time>2012-05-27T11:32:36Z</time>
      </trkpt>
      <trkpt lat="47.12232" lon="7.03614">
        <ele>1543.53</ele>
        <time>2012-05-27T11:32:42Z</time>
      </trkpt>
      <trkpt lat="47.12228" lon="7.03611">
        <ele>1544.01</ele>
        <time>2012-05-27T11:32:46Z</time>
      </trkpt>
      <trkpt lat="47.12215" lon="7.03602">
        <ele>1544.01</ele>
        <time>2012-05-27T11:32:59Z</time>
      </trkpt>
      <trkpt lat="47.12202" lon="7.03588">
        <ele>1543.53</ele>
        <time>2012-05-27T11:33:11Z</time>
      </trkpt>
      <trkpt lat="47.12192" lon="7.03577">
        <ele>1544.01</ele>
        <time>2012-05-27T11:33:23Z</time>
      </trkpt>
      <trkpt lat="47.12187" lon="7.03562">
        <ele>1545.94</ele>
        <time>2012-05-27T11:33:33Z</time>
      </trkpt>
      <trkpt lat="47.12184" lon="7.03556">
        <ele>1547.38</ele>
        <time>2012-05-27T11:33:39Z</time>
      </trkpt>
      <trkpt lat="47.12178" lon="7.03549">
        <ele>1547.38</ele>
        <time>2012-05-27T11:33:46Z</time>
      </trkpt>
      <trkpt lat="47.12174" lon="7.03544">
        <ele>1545.46</ele>
        <time>2012-05-27T11:33:52Z</time>
      </trkpt>
      <trkpt lat="47.12172" lon="7.03542">
        <ele>1544.01</ele>
        <time>2012-05-27T11:33:55Z</time>
      </trkpt>
      <trkpt lat="47.12157" lon="7.03552">
        <ele>1540.65</ele>
        <time>2012-05-27T11:34:05Z</time>
      </trkpt>
      <trkpt lat="47.12139" lon="7.03561">
        <ele>1537.29</ele>
        <time>2012-05-27T11:34:18Z</time>
      </trkpt>
      <trkpt lat="47.12138" lon="7.03561">
        <ele>1535.84</ele>
        <time>2012-05-27T11:34:33Z</time>
      </trkpt>
      <trkpt lat="47.12138" lon="7.03557">
        <ele>1535.36</ele>
        <time>2012-05-27T11:34:47Z</time>
      </trkpt>
      <trkpt lat="47.12136" lon="7.0354">
        <ele>1534.88</ele>
        <time>2012-05-27T11:34:59Z</time>
      </trkpt>
      <trkpt lat="47.12135" lon="7.03532">
        <ele>1534.4</ele>
        <time>2012-05-27T11:35:04Z</time>
      </trkpt>
      <trkpt lat="47.12135" lon="7.03521">
        <ele>1533.44</ele>
        <time>2012-05-27T11:35:11Z</time>
      </trkpt>
      <trkpt lat="47.12129" lon="7.03501">
        <ele>1531.04</ele>
        <time>2012-05-27T11:35:26Z</time>
      </trkpt>
      <trkpt lat="47.12123" lon="7.03487">
        <ele>1528.63</ele>
        <time>2012-05-27T11:35:39Z</time>
      </trkpt>
      <trkpt lat="47.12111" lon="7.03478">
        <ele>1527.19</ele>
        <time>2012-05-27T11:35:52Z</time>
      </trkpt>
      <trkpt lat="47.12098" lon="7.03463">
        <ele>1525.27</ele>
        <time>2012-05-27T11:36:05Z</time>
      </trkpt>
      <trkpt lat="47.12086" lon="7.03443">
        <ele>1522.87</ele>
        <time>2012-05-27T11:36:19Z</time>
      </trkpt>
      <trkpt lat="47.12077" lon="7.03426">
        <ele>1520.94</ele>
        <time>2012-05-27T11:36:33Z</time>
      </trkpt>
      <trkpt lat="47.12073" lon="7.03415">
        <ele>1519.02</ele>
        <time>2012-05-27T11:36:42Z</time>
      </trkpt>
      <trkpt lat="47.12066" lon="7.034">
        <ele>1515.18</ele>
        <time>2012-05-27T11:36:56Z</time>
      </trkpt>
      <trkpt lat="47.1206" lon="7.03388">
        <ele>1513.73</ele>
        <time>2012-05-27T11:37:07Z</time>
      </trkpt>
      <trkpt lat="47.12056" lon="7.03375">
        <ele>1511.33</ele>
        <time>2012-05-27T11:37:19Z</time>
      </trkpt>
      <trkpt lat="47.12051" lon="7.03364">
        <ele>1507.97</ele>
        <time>2012-05-27T11:37:38Z</time>
      </trkpt>
      <trkpt lat="47.12038" lon="7.0335">
        <ele>1507</ele>
        <time>2012-05-27T11:37:52Z</time>
      </trkpt>
      <trkpt lat="47.12028" lon="7.03333">
        <ele>1506.04</ele>
        <time>2012-05-27T11:38:04Z</time>
      </trkpt>
      <trkpt lat="47.12019" lon="7.03322">
        <ele>1507</ele>
        <time>2012-05-27T11:38:14Z</time>
      </trkpt>
      <trkpt lat="47.12008" lon="7.0331">
        <ele>1506.04</ele>
        <time>2012-05-27T11:38:25Z</time>
      </trkpt>
      <trkpt lat="47.12004" lon="7.03306">
        <ele>1505.56</ele>
        <time>2012-05-27T11:38:29Z</time>
      </trkpt>
      <trkpt lat="47.11987" lon="7.03292">
        <ele>1504.12</ele>
        <time>2012-05-27T11:38:44Z</time>
      </trkpt>
      <trkpt lat="47.11968" lon="7.03272">
        <ele>1502.2</ele>
        <time>2012-05-27T11:39:03Z</time>
      </trkpt>
      <trkpt lat="47.11956" lon="7.03253">
        <ele>1501.72</ele>
        <time>2012-05-27T11:39:18Z</time>
      </trkpt>
      <trkpt lat="47.11948" lon="7.03228">
        <ele>1499.79</ele>
        <time>2012-05-27T11:39:35Z</time>
      </trkpt>
      <trkpt lat="47.11948" lon="7.03227">
        <ele>1499.79</ele>
        <time>2012-05-27T11:39:36Z</time>
      </trkpt>
      <trkpt lat="47.11946" lon="7.03222">
        <ele>1499.31</ele>
        <time>2012-05-27T11:39:50Z</time>
      </trkpt>
      <trkpt lat="47.11945" lon="7.0322">
        <ele>1499.79</ele>
        <time>2012-05-27T11:40:12Z</time>
      </trkpt>
      <trkpt lat="47.11946" lon="7.0322">
        <ele>1500.76</ele>
        <time>2012-05-27T11:40:24Z</time>
      </trkpt>
      <trkpt lat="47.11945" lon="7.03221">
        <ele>1499.79</ele>
        <time>2012-05-27T11:40:40Z</time>
      </trkpt>
      <trkpt lat="47.11949" lon="7.03217">
        <ele>1499.79</ele>
        <time>2012-05-27T11:40:52Z</time>
      </trkpt>
      <trkpt lat="47.11952" lon="7.03216">
        <ele>1499.79</ele>
        <time>2012-05-27T11:41:13Z</time>
      </trkpt>
      <trkpt lat="47.11957" lon="7.03216">
        <ele>1500.27</ele>
        <time>2012-05-27T11:41:18Z</time>
      </trkpt>
      <trkpt lat="47.11977" lon="7.03222">
        <ele>1498.83</ele>
        <time>2012-05-27T11:41:37Z</time>
      </trkpt>
      <trkpt lat="47.11982" lon="7.03222">
        <ele>1497.87</ele>
        <time>2012-05-27T11:41:48Z</time>
      </trkpt>
      <trkpt lat="47.11999" lon="7.03222">
        <ele>1494.03</ele>
        <time>2012-05-27T11:42:03Z</time>
      </trkpt>
      <trkpt lat="47.12006" lon="7.03224">
        <ele>1492.58</ele>
        <time>2012-05-27T11:42:10Z</time>
      </trkpt>
      <trkpt lat="47.12021" lon="7.03233">
        <ele>1488.74</ele>
        <time>2012-05-27T11:42:24Z</time>
      </trkpt>
      <trkpt lat="47.12037" lon="7.0324">
        <ele>1487.3</ele>
        <time>2012-05-27T11:42:37Z</time>
      </trkpt>
      <trkpt lat="47.1205" lon="7.03246">
        <ele>1487.3</ele>
        <time>2012-05-27T11:42:49Z</time>
      </trkpt>
      <trkpt lat="47.12059" lon="7.03249">
        <ele>1486.82</ele>
        <time>2012-05-27T11:42:57Z</time>
      </trkpt>
      <trkpt lat="47.12065" lon="7.03253">
        <ele>1486.34</ele>
        <time>2012-05-27T11:43:03Z</time>
      </trkpt>
      <trkpt lat="47.12077" lon="7.03255">
        <ele>1485.37</ele>
        <time>2012-05-27T11:43:16Z</time>
      </trkpt>
      <trkpt lat="47.12077" lon="7.03254">
        <ele>1484.41</ele>
        <time>2012-05-27T11:43:29Z</time>
      </trkpt>
      <trkpt lat="47.12083" lon="7.03261">
        <ele>1483.45</ele>
        <time>2012-05-27T11:43:43Z</time>
      </trkpt>
      <trkpt lat="47.12089" lon="7.03268">
        <ele>1482.97</ele>
        <time>2012-05-27T11:43:50Z</time>
      </trkpt>
      <trkpt lat="47.12093" lon="7.0327">
        <ele>1482.49</ele>
        <time>2012-05-27T11:43:53Z</time>
      </trkpt>
      <trkpt lat="47.12099" lon="7.03274">
        <ele>1481.53</ele>
        <time>2012-05-27T11:43:59Z</time>
      </trkpt>
      <trkpt lat="47.12115" lon="7.03282">
        <ele>1478.16</ele>
        <time>2012-05-27T11:44:16Z</time>
      </trkpt>
      <trkpt lat="47.12119" lon="7.03287">
        <ele>1477.2</ele>
        <time>2012-05-27T11:44:20Z</time>
      </trkpt>
      <trkpt lat="47.12131" lon="7.03297">
        <ele>1474.8</ele>
        <time>2012-05-27T11:44:33Z</time>
      </trkpt>
      <trkpt lat="47.12138" lon="7.03298">
        <ele>1473.84</ele>
        <time>2012-05-27T11:44:47Z</time>
      </trkpt>
      <trkpt lat="47.12142" lon="7.033">
        <ele>1473.84</ele>
        <time>2012-05-27T11:45:18Z</time>
      </trkpt>
      <trkpt lat="47.12143" lon="7.03301">
        <ele>1473.36</ele>
        <time>2012-05-27T11:45:20Z</time>
      </trkpt>
      <trkpt lat="47.12149" lon="7.03306">
        <ele>1472.88</ele>
        <time>2012-05-27T11:45:25Z</time>
      </trkpt>
      <trkpt lat="47.12169" lon="7.03323">
        <ele>1470.47</ele>
        <time>2012-05-27T11:45:40Z</time>
      </trkpt>
      <trkpt lat="47.12183" lon="7.03332">
        <ele>1467.59</ele>
        <time>2012-05-27T11:45:53Z</time>
      </trkpt>
      <trkpt lat="47.12198" lon="7.03342">
        <ele>1466.63</ele>
        <time>2012-05-27T11:46:06Z</time>
      </trkpt>
      <trkpt lat="47.12212" lon="7.03351">
        <ele>1465.19</ele>
        <time>2012-05-27T11:46:19Z</time>
      </trkpt>
      <trkpt lat="47.12221" lon="7.03355">
        <ele>1463.74</ele>
        <time>2012-05-27T11:46:26Z</time>
      </trkpt>
      <trkpt lat="47.12223" lon="7.03357">
        <ele>1463.26</ele>
        <time>2012-05-27T11:46:29Z</time>
      </trkpt>
      <trkpt lat="47.12225" lon="7.03357">
        <ele>1462.78</ele>
        <time>2012-05-27T11:46:30Z</time>
      </trkpt>
      <trkpt lat="47.12226" lon="7.03357">
        <ele>1463.26</ele>
        <time>2012-05-27T11:46:31Z</time>
      </trkpt>
      <trkpt lat="47.12227" lon="7.03358">
        <ele>1463.26</ele>
        <time>2012-05-27T11:46:32Z</time>
      </trkpt>
      <trkpt lat="47.12228" lon="7.03359">
        <ele>1462.78</ele>
        <time>2012-05-27T11:46:33Z</time>
      </trkpt>
      <trkpt lat="47.12244" lon="7.03373">
        <ele>1460.86</ele>
        <time>2012-05-27T11:46:47Z</time>
      </trkpt>
      <trkpt lat="47.12259" lon="7.03383">
        <ele>1459.9</ele>
        <time>2012-05-27T11:47:01Z</time>
      </trkpt>
      <trkpt lat="47.12272" lon="7.03393">
        <ele>1459.9</ele>
        <time>2012-05-27T11:47:15Z</time>
      </trkpt>
      <trkpt lat="47.12275" lon="7.03396">
        <ele>1459.9</ele>
        <time>2012-05-27T11:47:18Z</time>
      </trkpt>
      <trkpt lat="47.12276" lon="7.03396">
        <ele>1460.38</ele>
        <time>2012-05-27T11:47:19Z</time>
      </trkpt>
      <trkpt lat="47.12277" lon="7.03397">
        <ele>1459.9</ele>
        <time>2012-05-27T11:47:20Z</time>
      </trkpt>
      <trkpt lat="47.12293" lon="7.03406">
        <ele>1457.98</ele>
        <time>2012-05-27T11:47:35Z</time>
      </trkpt>
      <trkpt lat="47.12305" lon="7.03412">
        <ele>1457.5</ele>
        <time>2012-05-27T11:47:48Z</time>
      </trkpt>
      <trkpt lat="47.12306" lon="7.03413">
        <ele>1457.5</ele>
        <time>2012-05-27T11:47:49Z</time>
      </trkpt>
      <trkpt lat="47.12307" lon="7.03415">
        <ele>1457.02</ele>
        <time>2012-05-27T11:47:50Z</time>
      </trkpt>
      <trkpt lat="47.12308" lon="7.03416">
        <ele>1456.53</ele>
        <time>2012-05-27T11:47:51Z</time>
      </trkpt>
      <trkpt lat="47.12319" lon="7.03421">
        <ele>1453.65</ele>
        <time>2012-05-27T11:48:02Z</time>
      </trkpt>
      <trkpt lat="47.12322" lon="7.03423">
        <ele>1453.17</ele>
        <time>2012-05-27T11:48:06Z</time>
      </trkpt>
      <trkpt lat="47.12324" lon="7.03424">
        <ele>1452.69</ele>
        <time>2012-05-27T11:48:08Z</time>
      </trkpt>
      <trkpt lat="47.12337" lon="7.03431">
        <ele>1448.36</ele>
        <time>2012-05-27T11:48:20Z</time>
      </trkpt>
      <trkpt lat="47.12339" lon="7.03431">
        <ele>1447.4</ele>
        <time>2012-05-27T11:48:22Z</time>
      </trkpt>
      <trkpt lat="47.1234" lon="7.03432">
        <ele>1447.4</ele>
        <time>2012-05-27T11:48:23Z</time>
      </trkpt>
      <trkpt lat="47.12341" lon="7.03433">
        <ele>1446.44</ele>
        <time>2012-05-27T11:48:24Z</time>
      </trkpt>
      <trkpt lat="47.12342" lon="7.03433">
        <ele>1446.44</ele>
        <time>2012-05-27T11:48:25Z</time>
      </trkpt>
      <trkpt lat="47.12357" lon="7.03437">
        <ele>1443.56</ele>
        <time>2012-05-27T11:48:38Z</time>
      </trkpt>
      <trkpt lat="47.12371" lon="7.03442">
        <ele>1439.71</ele>
        <time>2012-05-27T11:48:50Z</time>
      </trkpt>
      <trkpt lat="47.12382" lon="7.03452">
        <ele>1438.27</ele>
        <time>2012-05-27T11:49:02Z</time>
      </trkpt>
      <trkpt lat="47.12394" lon="7.03465">
        <ele>1437.31</ele>
        <time>2012-05-27T11:49:15Z</time>
      </trkpt>
      <trkpt lat="47.12406" lon="7.03478">
        <ele>1435.39</ele>
        <time>2012-05-27T11:49:27Z</time>
      </trkpt>
      <trkpt lat="47.12417" lon="7.03491">
        <ele>1434.91</ele>
        <time>2012-05-27T11:49:40Z</time>
      </trkpt>
      <trkpt lat="47.12432" lon="7.03503">
        <ele>1433.46</ele>
        <time>2012-05-27T11:49:54Z</time>
      </trkpt>
      <trkpt lat="47.12442" lon="7.03513">
        <ele>1427.7</ele>
        <time>2012-05-27T11:50:06Z</time>
      </trkpt>
      <trkpt lat="47.12454" lon="7.03525">
        <ele>1424.81</ele>
        <time>2012-05-27T11:50:18Z</time>
      </trkpt>
      <trkpt lat="47.12467" lon="7.0354">
        <ele>1423.37</ele>
        <time>2012-05-27T11:50:31Z</time>
      </trkpt>
      <trkpt lat="47.12481" lon="7.03549">
        <ele>1423.37</ele>
        <time>2012-05-27T11:50:43Z</time>
      </trkpt>
      <trkpt lat="47.12491" lon="7.03561">
        <ele>1422.89</ele>
        <time>2012-05-27T11:50:54Z</time>
      </trkpt>
      <trkpt lat="47.12497" lon="7.03572">
        <ele>1422.89</ele>
        <time>2012-05-27T11:51:02Z</time>
      </trkpt>
      <trkpt lat="47.12502" lon="7.03577">
        <ele>1422.89</ele>
        <time>2012-05-27T11:51:07Z</time>
      </trkpt>
      <trkpt lat="47.12506" lon="7.03581">
        <ele>1422.89</ele>
        <time>2012-05-27T11:51:11Z</time>
      </trkpt>
      <trkpt lat="47.1252" lon="7.03593">
        <ele>1422.89</ele>
        <time>2012-05-27T11:51:24Z</time>
      </trkpt>
      <trkpt lat="47.12532" lon="7.03601">
        <ele>1421.93</ele>
        <time>2012-05-27T11:51:36Z</time>
      </trkpt>
      <trkpt lat="47.12545" lon="7.03607">
        <ele>1420.97</ele>
        <time>2012-05-27T11:51:48Z</time>
      </trkpt>
      <trkpt lat="47.12556" lon="7.03608">
        <ele>1419.52</ele>
        <time>2012-05-27T11:51:59Z</time>
      </trkpt>
      <trkpt lat="47.12558" lon="7.03608">
        <ele>1419.04</ele>
        <time>2012-05-27T11:52:00Z</time>
      </trkpt>
      <trkpt lat="47.1257" lon="7.03604">
        <ele>1417.12</ele>
        <time>2012-05-27T11:52:12Z</time>
      </trkpt>
      <trkpt lat="47.12581" lon="7.03598">
        <ele>1414.72</ele>
        <time>2012-05-27T11:52:23Z</time>
      </trkpt>
      <trkpt lat="47.1259" lon="7.03584">
        <ele>1412.31</ele>
        <time>2012-05-27T11:52:36Z</time>
      </trkpt>
      <trkpt lat="47.12598" lon="7.03574">
        <ele>1408.95</ele>
        <time>2012-05-27T11:52:46Z</time>
      </trkpt>
      <trkpt lat="47.12605" lon="7.03558">
        <ele>1407.03</ele>
        <time>2012-05-27T11:52:57Z</time>
      </trkpt>
      <trkpt lat="47.1261" lon="7.03552">
        <ele>1405.1</ele>
        <time>2012-05-27T11:53:04Z</time>
      </trkpt>
      <trkpt lat="47.12621" lon="7.03537">
        <ele>1402.7</ele>
        <time>2012-05-27T11:53:17Z</time>
      </trkpt>
      <trkpt lat="47.1263" lon="7.03525">
        <ele>1400.78</ele>
        <time>2012-05-27T11:53:28Z</time>
      </trkpt>
      <trkpt lat="47.12638" lon="7.03509">
        <ele>1398.37</ele>
        <time>2012-05-27T11:53:41Z</time>
      </trkpt>
      <trkpt lat="47.12645" lon="7.03491">
        <ele>1395.97</ele>
        <time>2012-05-27T11:53:54Z</time>
      </trkpt>
      <trkpt lat="47.12653" lon="7.03474">
        <ele>1394.05</ele>
        <time>2012-05-27T11:54:06Z</time>
      </trkpt>
      <trkpt lat="47.12657" lon="7.03455">
        <ele>1393.09</ele>
        <time>2012-05-27T11:54:19Z</time>
      </trkpt>
      <trkpt lat="47.12661" lon="7.03433">
        <ele>1390.68</ele>
        <time>2012-05-27T11:54:33Z</time>
      </trkpt>
      <trkpt lat="47.12664" lon="7.03414">
        <ele>1388.76</ele>
        <time>2012-05-27T11:54:45Z</time>
      </trkpt>
      <trkpt lat="47.12666" lon="7.03408">
        <ele>1387.8</ele>
        <time>2012-05-27T11:54:50Z</time>
      </trkpt>
      <trkpt lat="47.12672" lon="7.03384">
        <ele>1384.92</ele>
        <time>2012-05-27T11:55:05Z</time>
      </trkpt>
      <trkpt lat="47.12676" lon="7.03374">
        <ele>1384.92</ele>
        <time>2012-05-27T11:55:12Z</time>
      </trkpt>
      <trkpt lat="47.12679" lon="7.03352">
        <ele>1384.44</ele>
        <time>2012-05-27T11:55:25Z</time>
      </trkpt>
      <trkpt lat="47.12682" lon="7.03332">
        <ele>1382.51</ele>
        <time>2012-05-27T11:55:37Z</time>
      </trkpt>
      <trkpt lat="47.12681" lon="7.03328">
        <ele>1382.51</ele>
        <time>2012-05-27T11:55:40Z</time>
      </trkpt>
      <trkpt lat="47.1268" lon="7.03307">
        <ele>1381.07</ele>
        <time>2012-05-27T11:55:53Z</time>
      </trkpt>
      <trkpt lat="47.12679" lon="7.03288">
        <ele>1378.19</ele>
        <time>2012-05-27T11:56:05Z</time>
      </trkpt>
      <trkpt lat="47.12678" lon="7.03272">
        <ele>1376.75</ele>
        <time>2012-05-27T11:56:18Z</time>
      </trkpt>
      <trkpt lat="47.12677" lon="7.03269">
        <ele>1376.26</ele>
        <time>2012-05-27T11:56:27Z</time>
      </trkpt>
      <trkpt lat="47.12676" lon="7.03262">
        <ele>1375.3</ele>
        <time>2012-05-27T11:56:40Z</time>
      </trkpt>
      <trkpt lat="47.12676" lon="7.03246">
        <ele>1374.34</ele>
        <time>2012-05-27T11:56:54Z</time>
      </trkpt>
      <trkpt lat="47.12676" lon="7.03244">
        <ele>1374.34</ele>
        <time>2012-05-27T11:56:55Z</time>
      </trkpt>
      <trkpt lat="47.12675" lon="7.03225">
        <ele>1374.34</ele>
        <time>2012-05-27T11:57:07Z</time>
      </trkpt>
      <trkpt lat="47.12671" lon="7.03205">
        <ele>1375.3</ele>
        <time>2012-05-27T11:57:20Z</time>
      </trkpt>
      <trkpt lat="47.12673" lon="7.03189">
        <ele>1375.3</ele>
        <time>2012-05-27T11:57:31Z</time>
      </trkpt>
      <trkpt lat="47.12677" lon="7.03181">
        <ele>1376.26</ele>
        <time>2012-05-27T11:57:41Z</time>
      </trkpt>
      <trkpt lat="47.12678" lon="7.0318">
        <ele>1376.26</ele>
        <time>2012-05-27T11:57:42Z</time>
      </trkpt>
      <trkpt lat="47.12686" lon="7.03171">
        <ele>1376.26</ele>
        <time>2012-05-27T11:57:55Z</time>
      </trkpt>
      <trkpt lat="47.12691" lon="7.03165">
        <ele>1377.23</ele>
        <time>2012-05-27T11:58:05Z</time>
      </trkpt>
      <trkpt lat="47.12696" lon="7.0316">
        <ele>1377.71</ele>
        <time>2012-05-27T11:58:15Z</time>
      </trkpt>
      <trkpt lat="47.127" lon="7.03154">
        <ele>1378.67</ele>
        <time>2012-05-27T11:58:25Z</time>
      </trkpt>
      <trkpt lat="47.12706" lon="7.03146">
        <ele>1380.59</ele>
        <time>2012-05-27T11:58:37Z</time>
      </trkpt>
      <trkpt lat="47.1271" lon="7.0314">
        <ele>1382.51</ele>
        <time>2012-05-27T11:58:47Z</time>
      </trkpt>
      <trkpt lat="47.12716" lon="7.03133">
        <ele>1384.44</ele>
        <time>2012-05-27T11:58:59Z</time>
      </trkpt>
      <trkpt lat="47.12721" lon="7.03125">
        <ele>1386.84</ele>
        <time>2012-05-27T11:59:16Z</time>
      </trkpt>
      <trkpt lat="47.12723" lon="7.03121">
        <ele>1388.76</ele>
        <time>2012-05-27T11:59:25Z</time>
      </trkpt>
      <trkpt lat="47.12726" lon="7.03116">
        <ele>1390.68</ele>
        <time>2012-05-27T11:59:35Z</time>
      </trkpt>
      <trkpt lat="47.12732" lon="7.03109">
        <ele>1393.09</ele>
        <time>2012-05-27T11:59:49Z</time>
      </trkpt>
      <trkpt lat="47.12733" lon="7.03106">
        <ele>1394.53</ele>
        <time>2012-05-27T11:59:59Z</time>
      </trkpt>
      <trkpt lat="47.12737" lon="7.03108">
        <ele>1394.05</ele>
        <time>2012-05-27T12:00:16Z</time>
      </trkpt>
      <trkpt lat="47.12738" lon="7.03107">
        <ele>1394.05</ele>
        <time>2012-05-27T12:00:28Z</time>
      </trkpt>
      <trkpt lat="47.12737" lon="7.03105">
        <ele>1394.05</ele>
        <time>2012-05-27T12:00:41Z</time>
      </trkpt>
      <trkpt lat="47.12737" lon="7.03102">
        <ele>1395.01</ele>
        <time>2012-05-27T12:00:47Z</time>
      </trkpt>
      <trkpt lat="47.12738" lon="7.03087">
        <ele>1396.45</ele>
        <time>2012-05-27T12:00:57Z</time>
      </trkpt>
      <trkpt lat="47.1274" lon="7.03078">
        <ele>1398.86</ele>
        <time>2012-05-27T12:01:10Z</time>
      </trkpt>
      <trkpt lat="47.12739" lon="7.03069">
        <ele>1399.34</ele>
        <time>2012-05-27T12:01:20Z</time>
      </trkpt>
      <trkpt lat="47.12741" lon="7.0306">
        <ele>1399.34</ele>
        <time>2012-05-27T12:01:31Z</time>
      </trkpt>
      <trkpt lat="47.12742" lon="7.03051">
        <ele>1396.45</ele>
        <time>2012-05-27T12:01:42Z</time>
      </trkpt>
      <trkpt lat="47.12742" lon="7.0304">
        <ele>1397.41</ele>
        <time>2012-05-27T12:01:53Z</time>
      </trkpt>
      <trkpt lat="47.12743" lon="7.03036">
        <ele>1398.37</ele>
        <time>2012-05-27T12:02:02Z</time>
      </trkpt>
      <trkpt lat="47.12742" lon="7.0303">
        <ele>1398.37</ele>
        <time>2012-05-27T12:02:15Z</time>
      </trkpt>
      <trkpt lat="47.12742" lon="7.03027">
        <ele>1399.82</ele>
        <time>2012-05-27T12:02:28Z</time>
      </trkpt>
      <trkpt lat="47.12742" lon="7.0301">
        <ele>1401.74</ele>
        <time>2012-05-27T12:02:41Z</time>
      </trkpt>
      <trkpt lat="47.1274" lon="7.03003">
        <ele>1403.18</ele>
        <time>2012-05-27T12:02:53Z</time>
      </trkpt>
      <trkpt lat="47.12737" lon="7.02993">
        <ele>1404.62</ele>
        <time>2012-05-27T12:03:08Z</time>
      </trkpt>
      <trkpt lat="47.12736" lon="7.02986">
        <ele>1406.55</ele>
        <time>2012-05-27T12:03:21Z</time>
      </trkpt>
      <trkpt lat="47.12735" lon="7.0298">
        <ele>1407.99</ele>
        <time>2012-05-27T12:03:33Z</time>
      </trkpt>
      <trkpt lat="47.12732" lon="7.02967">
        <ele>1410.87</ele>
        <time>2012-05-27T12:03:46Z</time>
      </trkpt>
      <trkpt lat="47.12727" lon="7.0295">
        <ele>1417.12</ele>
        <time>2012-05-27T12:03:59Z</time>
      </trkpt>
      <trkpt lat="47.12723" lon="7.02939">
        <ele>1420.49</ele>
        <time>2012-05-27T12:04:12Z</time>
      </trkpt>
      <trkpt lat="47.12721" lon="7.02932">
        <ele>1423.37</ele>
        <time>2012-05-27T12:04:23Z</time>
      </trkpt>
      <trkpt lat="47.12719" lon="7.02919">
        <ele>1428.18</ele>
        <time>2012-05-27T12:04:34Z</time>
      </trkpt>
      <trkpt lat="47.12717" lon="7.02908">
        <ele>1430.58</ele>
        <time>2012-05-27T12:04:44Z</time>
      </trkpt>
      <trkpt lat="47.12713" lon="7.02901">
        <ele>1432.02</ele>
        <time>2012-05-27T12:04:58Z</time>
      </trkpt>
      <trkpt lat="47.12711" lon="7.02894">
        <ele>1433.94</ele>
        <time>2012-05-27T12:05:15Z</time>
      </trkpt>
      <trkpt lat="47.12709" lon="7.02886">
        <ele>1435.39</ele>
        <time>2012-05-27T12:05:24Z</time>
      </trkpt>
      <trkpt lat="47.12709" lon="7.02879">
        <ele>1437.31</ele>
        <time>2012-05-27T12:05:36Z</time>
      </trkpt>
      <trkpt lat="47.12709" lon="7.02869">
        <ele>1440.67</ele>
        <time>2012-05-27T12:05:47Z</time>
      </trkpt>
      <trkpt lat="47.12709" lon="7.02869">
        <ele>1441.63</ele>
        <time>2012-05-27T12:05:58Z</time>
      </trkpt>
      <trkpt lat="47.12708" lon="7.02867">
        <ele>1442.6</ele>
        <time>2012-05-27T12:06:14Z</time>
      </trkpt>
      <trkpt lat="47.12709" lon="7.02866">
        <ele>1442.11</ele>
        <time>2012-05-27T12:06:32Z</time>
      </trkpt>
      <trkpt lat="47.12709" lon="7.02863">
        <ele>1443.08</ele>
        <time>2012-05-27T12:06:47Z</time>
      </trkpt>
      <trkpt lat="47.1271" lon="7.0286">
        <ele>1443.56</ele>
        <time>2012-05-27T12:06:55Z</time>
      </trkpt>
      <trkpt lat="47.12712" lon="7.02853">
        <ele>1443.08</ele>
        <time>2012-05-27T12:07:12Z</time>
      </trkpt>
      <trkpt lat="47.12712" lon="7.02851">
        <ele>1443.56</ele>
        <time>2012-05-27T12:07:30Z</time>
      </trkpt>
      <trkpt lat="47.12712" lon="7.02851">
        <ele>1444.52</ele>
        <time>2012-05-27T12:07:58Z</time>
      </trkpt>
      <trkpt lat="47.12717" lon="7.02848">
        <ele>1444.04</ele>
        <time>2012-05-27T12:08:25Z</time>
      </trkpt>
      <trkpt lat="47.12726" lon="7.02847">
        <ele>1448.36</ele>
        <time>2012-05-27T12:08:50Z</time>
      </trkpt>
      <trkpt lat="47.12731" lon="7.02843">
        <ele>1446.44</ele>
        <time>2012-05-27T12:08:57Z</time>
      </trkpt>
      <trkpt lat="47.12734" lon="7.02837">
        <ele>1444.52</ele>
        <time>2012-05-27T12:09:01Z</time>
      </trkpt>
      <trkpt lat="47.12746" lon="7.02823">
        <ele>1440.19</ele>
        <time>2012-05-27T12:09:15Z</time>
      </trkpt>
      <trkpt lat="47.12752" lon="7.02807">
        <ele>1438.75</ele>
        <time>2012-05-27T12:09:27Z</time>
      </trkpt>
      <trkpt lat="47.12758" lon="7.02787">
        <ele>1435.39</ele>
        <time>2012-05-27T12:09:39Z</time>
      </trkpt>
      <trkpt lat="47.12759" lon="7.02779">
        <ele>1433.94</ele>
        <time>2012-05-27T12:09:44Z</time>
      </trkpt>
      <trkpt lat="47.12766" lon="7.02782">
        <ele>1430.58</ele>
        <time>2012-05-27T12:09:53Z</time>
      </trkpt>
      <trkpt lat="47.12781" lon="7.02794">
        <ele>1427.21</ele>
        <time>2012-05-27T12:10:08Z</time>
      </trkpt>
      <trkpt lat="47.12792" lon="7.02799">
        <ele>1423.37</ele>
        <time>2012-05-27T12:10:19Z</time>
      </trkpt>
      <trkpt lat="47.12803" lon="7.02802">
        <ele>1420.97</ele>
        <time>2012-05-27T12:10:29Z</time>
      </trkpt>
      <trkpt lat="47.12814" lon="7.02808">
        <ele>1416.64</ele>
        <time>2012-05-27T12:10:40Z</time>
      </trkpt>
      <trkpt lat="47.12817" lon="7.02811">
        <ele>1416.64</ele>
        <time>2012-05-27T12:10:42Z</time>
      </trkpt>
      <trkpt lat="47.1283" lon="7.02819">
        <ele>1415.68</ele>
        <time>2012-05-27T12:10:54Z</time>
      </trkpt>
      <trkpt lat="47.12844" lon="7.02827">
        <ele>1413.28</ele>
        <time>2012-05-27T12:11:07Z</time>
      </trkpt>
      <trkpt lat="47.12845" lon="7.02828">
        <ele>1413.28</ele>
        <time>2012-05-27T12:11:08Z</time>
      </trkpt>
      <trkpt lat="47.12847" lon="7.02828">
        <ele>1412.79</ele>
        <time>2012-05-27T12:11:09Z</time>
      </trkpt>
      <trkpt lat="47.12848" lon="7.02829">
        <ele>1412.79</ele>
        <time>2012-05-27T12:11:10Z</time>
      </trkpt>
      <trkpt lat="47.1285" lon="7.02829">
        <ele>1412.79</ele>
        <time>2012-05-27T12:11:11Z</time>
      </trkpt>
      <trkpt lat="47.12863" lon="7.02832">
        <ele>1411.35</ele>
        <time>2012-05-27T12:11:22Z</time>
      </trkpt>
      <trkpt lat="47.12865" lon="7.02834">
        <ele>1410.87</ele>
        <time>2012-05-27T12:11:24Z</time>
      </trkpt>
      <trkpt lat="47.12866" lon="7.02835">
        <ele>1410.87</ele>
        <time>2012-05-27T12:11:25Z</time>
      </trkpt>
      <trkpt lat="47.12867" lon="7.02837">
        <ele>1410.87</ele>
        <time>2012-05-27T12:11:26Z</time>
      </trkpt>
      <trkpt lat="47.12869" lon="7.02839">
        <ele>1410.87</ele>
        <time>2012-05-27T12:11:28Z</time>
      </trkpt>
      <trkpt lat="47.12881" lon="7.02843">
        <ele>1409.91</ele>
        <time>2012-05-27T12:11:37Z</time>
      </trkpt>
      <trkpt lat="47.12885" lon="7.0284">
        <ele>1408.47</ele>
        <time>2012-05-27T12:11:41Z</time>
      </trkpt>
      <trkpt lat="47.12885" lon="7.02838">
        <ele>1408.47</ele>
        <time>2012-05-27T12:11:42Z</time>
      </trkpt>
      <trkpt lat="47.12884" lon="7.02829">
        <ele>1407.03</ele>
        <time>2012-05-27T12:11:49Z</time>
      </trkpt>
      <trkpt lat="47.1287" lon="7.02806">
        <ele>1403.18</ele>
        <time>2012-05-27T12:12:08Z</time>
      </trkpt>
      <trkpt lat="47.12866" lon="7.02799">
        <ele>1402.22</ele>
        <time>2012-05-27T12:12:14Z</time>
      </trkpt>
      <trkpt lat="47.12865" lon="7.02797">
        <ele>1402.22</ele>
        <time>2012-05-27T12:12:15Z</time>
      </trkpt>
      <trkpt lat="47.12853" lon="7.02778">
        <ele>1400.3</ele>
        <time>2012-05-27T12:12:30Z</time>
      </trkpt>
      <trkpt lat="47.12849" lon="7.02771">
        <ele>1398.86</ele>
        <time>2012-05-27T12:12:36Z</time>
      </trkpt>
      <trkpt lat="47.12849" lon="7.02769">
        <ele>1398.86</ele>
        <time>2012-05-27T12:12:37Z</time>
      </trkpt>
      <trkpt lat="47.12848" lon="7.02768">
        <ele>1398.86</ele>
        <time>2012-05-27T12:12:38Z</time>
      </trkpt>
      <trkpt lat="47.12847" lon="7.02767">
        <ele>1398.86</ele>
        <time>2012-05-27T12:12:39Z</time>
      </trkpt>
      <trkpt lat="47.12846" lon="7.02766">
        <ele>1398.86</ele>
        <time>2012-05-27T12:12:40Z</time>
      </trkpt>
      <trkpt lat="47.12846" lon="7.02764">
        <ele>1398.37</ele>
        <time>2012-05-27T12:12:41Z</time>
      </trkpt>
      <trkpt lat="47.12842" lon="7.02746">
        <ele>1395.97</ele>
        <time>2012-05-27T12:12:55Z</time>
      </trkpt>
      <trkpt lat="47.12844" lon="7.02726">
        <ele>1393.09</ele>
        <time>2012-05-27T12:13:07Z</time>
      </trkpt>
      <trkpt lat="47.12846" lon="7.02706">
        <ele>1390.68</ele>
        <time>2012-05-27T12:13:21Z</time>
      </trkpt>
      <trkpt lat="47.12857" lon="7.02694">
        <ele>1387.8</ele>
        <time>2012-05-27T12:13:34Z</time>
      </trkpt>
      <trkpt lat="47.12872" lon="7.02686">
        <ele>1383.47</ele>
        <time>2012-05-27T12:13:48Z</time>
      </trkpt>
      <trkpt lat="47.12877" lon="7.02683">
        <ele>1382.03</ele>
        <time>2012-05-27T12:13:56Z</time>
      </trkpt>
      <trkpt lat="47.12883" lon="7.02685">
        <ele>1381.55</ele>
        <time>2012-05-27T12:14:01Z</time>
      </trkpt>
      <trkpt lat="47.12895" lon="7.02704">
        <ele>1381.55</ele>
        <time>2012-05-27T12:14:16Z</time>
      </trkpt>
      <trkpt lat="47.12908" lon="7.02721">
        <ele>1381.07</ele>
        <time>2012-05-27T12:14:31Z</time>
      </trkpt>
      <trkpt lat="47.12914" lon="7.02727">
        <ele>1381.07</ele>
        <time>2012-05-27T12:14:38Z</time>
      </trkpt>
      <trkpt lat="47.12919" lon="7.02734">
        <ele>1381.55</ele>
        <time>2012-05-27T12:14:45Z</time>
      </trkpt>
      <trkpt lat="47.12923" lon="7.02738">
        <ele>1381.07</ele>
        <time>2012-05-27T12:14:49Z</time>
      </trkpt>
      <trkpt lat="47.12936" lon="7.02754">
        <ele>1382.51</ele>
        <time>2012-05-27T12:15:03Z</time>
      </trkpt>
      <trkpt lat="47.12951" lon="7.02768">
        <ele>1383.96</ele>
        <time>2012-05-27T12:15:18Z</time>
      </trkpt>
      <trkpt lat="47.12956" lon="7.02772">
        <ele>1383.47</ele>
        <time>2012-05-27T12:15:23Z</time>
      </trkpt>
      <trkpt lat="47.12964" lon="7.02774">
        <ele>1382.03</ele>
        <time>2012-05-27T12:15:31Z</time>
      </trkpt>
      <trkpt lat="47.1297" lon="7.02783">
        <ele>1381.07</ele>
        <time>2012-05-27T12:15:38Z</time>
      </trkpt>
      <trkpt lat="47.12979" lon="7.028">
        <ele>1380.11</ele>
        <time>2012-05-27T12:15:50Z</time>
      </trkpt>
      <trkpt lat="47.12992" lon="7.02814">
        <ele>1379.63</ele>
        <time>2012-05-27T12:16:03Z</time>
      </trkpt>
      <trkpt lat="47.13008" lon="7.02822">
        <ele>1379.15</ele>
        <time>2012-05-27T12:16:16Z</time>
      </trkpt>
      <trkpt lat="47.13016" lon="7.02825">
        <ele>1378.19</ele>
        <time>2012-05-27T12:16:24Z</time>
      </trkpt>
      <trkpt lat="47.13033" lon="7.02835">
        <ele>1376.75</ele>
        <time>2012-05-27T12:16:39Z</time>
      </trkpt>
      <trkpt lat="47.13041" lon="7.02836">
        <ele>1375.3</ele>
        <time>2012-05-27T12:16:47Z</time>
      </trkpt>
      <trkpt lat="47.13054" lon="7.02845">
        <ele>1372.9</ele>
        <time>2012-05-27T12:16:58Z</time>
      </trkpt>
      <trkpt lat="47.13055" lon="7.02846">
        <ele>1372.9</ele>
        <time>2012-05-27T12:16:59Z</time>
      </trkpt>
      <trkpt lat="47.13069" lon="7.02858">
        <ele>1372.9</ele>
        <time>2012-05-27T12:17:12Z</time>
      </trkpt>
      <trkpt lat="47.13086" lon="7.02869">
        <ele>1373.38</ele>
        <time>2012-05-27T12:17:26Z</time>
      </trkpt>
      <trkpt lat="47.13089" lon="7.02872">
        <ele>1372.9</ele>
        <time>2012-05-27T12:17:28Z</time>
      </trkpt>
      <trkpt lat="47.13089" lon="7.02873">
        <ele>1372.9</ele>
        <time>2012-05-27T12:17:29Z</time>
      </trkpt>
      <trkpt lat="47.13102" lon="7.02885">
        <ele>1369.05</ele>
        <time>2012-05-27T12:17:43Z</time>
      </trkpt>
      <trkpt lat="47.13104" lon="7.02887">
        <ele>1368.57</ele>
        <time>2012-05-27T12:17:45Z</time>
      </trkpt>
      <trkpt lat="47.13117" lon="7.029">
        <ele>1364.25</ele>
        <time>2012-05-27T12:17:58Z</time>
      </trkpt>
      <trkpt lat="47.13133" lon="7.02914">
        <ele>1363.29</ele>
        <time>2012-05-27T12:18:11Z</time>
      </trkpt>
      <trkpt lat="47.13134" lon="7.02915">
        <ele>1363.29</ele>
        <time>2012-05-27T12:18:12Z</time>
      </trkpt>
      <trkpt lat="47.13149" lon="7.02928">
        <ele>1361.84</ele>
        <time>2012-05-27T12:18:25Z</time>
      </trkpt>
      <trkpt lat="47.13149" lon="7.0293">
        <ele>1361.36</ele>
        <time>2012-05-27T12:18:26Z</time>
      </trkpt>
      <trkpt lat="47.1316" lon="7.02941">
        <ele>1359.92</ele>
        <time>2012-05-27T12:18:38Z</time>
      </trkpt>
      <trkpt lat="47.13164" lon="7.02944">
        <ele>1358.96</ele>
        <time>2012-05-27T12:18:42Z</time>
      </trkpt>
      <trkpt lat="47.13165" lon="7.02946">
        <ele>1358.48</ele>
        <time>2012-05-27T12:18:43Z</time>
      </trkpt>
      <trkpt lat="47.13166" lon="7.02947">
        <ele>1358.48</ele>
        <time>2012-05-27T12:18:44Z</time>
      </trkpt>
      <trkpt lat="47.13167" lon="7.02948">
        <ele>1358</ele>
        <time>2012-05-27T12:18:45Z</time>
      </trkpt>
      <trkpt lat="47.13169" lon="7.0295">
        <ele>1357.52</ele>
        <time>2012-05-27T12:18:46Z</time>
      </trkpt>
      <trkpt lat="47.1317" lon="7.0295">
        <ele>1357.04</ele>
        <time>2012-05-27T12:18:47Z</time>
      </trkpt>
      <trkpt lat="47.13172" lon="7.02951">
        <ele>1356.56</ele>
        <time>2012-05-27T12:18:48Z</time>
      </trkpt>
      <trkpt lat="47.13185" lon="7.02962">
        <ele>1353.67</ele>
        <time>2012-05-27T12:19:01Z</time>
      </trkpt>
      <trkpt lat="47.13196" lon="7.02973">
        <ele>1351.75</ele>
        <time>2012-05-27T12:19:13Z</time>
      </trkpt>
      <trkpt lat="47.13199" lon="7.02975">
        <ele>1350.79</ele>
        <time>2012-05-27T12:19:16Z</time>
      </trkpt>
      <trkpt lat="47.132" lon="7.02977">
        <ele>1350.79</ele>
        <time>2012-05-27T12:19:17Z</time>
      </trkpt>
      <trkpt lat="47.13201" lon="7.02978">
        <ele>1350.31</ele>
        <time>2012-05-27T12:19:18Z</time>
      </trkpt>
      <trkpt lat="47.13202" lon="7.0298">
        <ele>1350.31</ele>
        <time>2012-05-27T12:19:19Z</time>
      </trkpt>
      <trkpt lat="47.13203" lon="7.02981">
        <ele>1350.31</ele>
        <time>2012-05-27T12:19:20Z</time>
      </trkpt>
      <trkpt lat="47.13204" lon="7.02982">
        <ele>1350.31</ele>
        <time>2012-05-27T12:19:21Z</time>
      </trkpt>
      <trkpt lat="47.13206" lon="7.02982">
        <ele>1349.83</ele>
        <time>2012-05-27T12:19:22Z</time>
      </trkpt>
      <trkpt lat="47.1322" lon="7.02987">
        <ele>1351.27</ele>
        <time>2012-05-27T12:19:35Z</time>
      </trkpt>
      <trkpt lat="47.13234" lon="7.0299">
        <ele>1350.79</ele>
        <time>2012-05-27T12:19:47Z</time>
      </trkpt>
      <trkpt lat="47.13241" lon="7.02993">
        <ele>1350.31</ele>
        <time>2012-05-27T12:19:53Z</time>
      </trkpt>
      <trkpt lat="47.13247" lon="7.02994">
        <ele>1348.39</ele>
        <time>2012-05-27T12:20:00Z</time>
      </trkpt>
      <trkpt lat="47.13248" lon="7.02995">
        <ele>1347.91</ele>
        <time>2012-05-27T12:20:01Z</time>
      </trkpt>
      <trkpt lat="47.13249" lon="7.02996">
        <ele>1347.91</ele>
        <time>2012-05-27T12:20:02Z</time>
      </trkpt>
      <trkpt lat="47.13251" lon="7.02996">
        <ele>1347.91</ele>
        <time>2012-05-27T12:20:03Z</time>
      </trkpt>
      <trkpt lat="47.13261" lon="7.03">
        <ele>1347.43</ele>
        <time>2012-05-27T12:20:13Z</time>
      </trkpt>
      <trkpt lat="47.13262" lon="7.03">
        <ele>1347.43</ele>
        <time>2012-05-27T12:20:20Z</time>
      </trkpt>
      <trkpt lat="47.13262" lon="7.02998">
        <ele>1347.43</ele>
        <time>2012-05-27T12:20:21Z</time>
      </trkpt>
      <trkpt lat="47.13261" lon="7.02997">
        <ele>1346.94</ele>
        <time>2012-05-27T12:20:22Z</time>
      </trkpt>
      <trkpt lat="47.13251" lon="7.02983">
        <ele>1342.14</ele>
        <time>2012-05-27T12:20:36Z</time>
      </trkpt>
      <trkpt lat="47.13243" lon="7.02969">
        <ele>1341.66</ele>
        <time>2012-05-27T12:20:48Z</time>
      </trkpt>
      <trkpt lat="47.13241" lon="7.02961">
        <ele>1341.66</ele>
        <time>2012-05-27T12:20:54Z</time>
      </trkpt>
      <trkpt lat="47.13251" lon="7.02954">
        <ele>1338.77</ele>
        <time>2012-05-27T12:21:05Z</time>
      </trkpt>
      <trkpt lat="47.13263" lon="7.02958">
        <ele>1334.45</ele>
        <time>2012-05-27T12:21:17Z</time>
      </trkpt>
      <trkpt lat="47.13263" lon="7.02956">
        <ele>1334.93</ele>
        <time>2012-05-27T12:21:20Z</time>
      </trkpt>
      <trkpt lat="47.13255" lon="7.02942">
        <ele>1332.04</ele>
        <time>2012-05-27T12:21:33Z</time>
      </trkpt>
      <trkpt lat="47.1325" lon="7.0293">
        <ele>1331.08</ele>
        <time>2012-05-27T12:21:42Z</time>
      </trkpt>
      <trkpt lat="47.13247" lon="7.02915">
        <ele>1328.68</ele>
        <time>2012-05-27T12:21:54Z</time>
      </trkpt>
      <trkpt lat="47.13253" lon="7.02916">
        <ele>1326.76</ele>
        <time>2012-05-27T12:21:59Z</time>
      </trkpt>
      <trkpt lat="47.1327" lon="7.02917">
        <ele>1321.95</ele>
        <time>2012-05-27T12:22:13Z</time>
      </trkpt>
      <trkpt lat="47.13286" lon="7.02924">
        <ele>1318.1</ele>
        <time>2012-05-27T12:22:31Z</time>
      </trkpt>
      <trkpt lat="47.13302" lon="7.02927">
        <ele>1314.74</ele>
        <time>2012-05-27T12:22:51Z</time>
      </trkpt>
      <trkpt lat="47.13319" lon="7.02926">
        <ele>1310.41</ele>
        <time>2012-05-27T12:23:08Z</time>
      </trkpt>
      <trkpt lat="47.13323" lon="7.02925">
        <ele>1310.41</ele>
        <time>2012-05-27T12:23:12Z</time>
      </trkpt>
      <trkpt lat="47.13323" lon="7.02917">
        <ele>1307.53</ele>
        <time>2012-05-27T12:23:20Z</time>
      </trkpt>
      <trkpt lat="47.1332" lon="7.0291">
        <ele>1305.61</ele>
        <time>2012-05-27T12:23:26Z</time>
      </trkpt>
      <trkpt lat="47.13315" lon="7.02897">
        <ele>1304.17</ele>
        <time>2012-05-27T12:23:35Z</time>
      </trkpt>
      <trkpt lat="47.13314" lon="7.02894">
        <ele>1304.17</ele>
        <time>2012-05-27T12:23:37Z</time>
      </trkpt>
      <trkpt lat="47.13309" lon="7.02882">
        <ele>1303.69</ele>
        <time>2012-05-27T12:23:46Z</time>
      </trkpt>
      <trkpt lat="47.13311" lon="7.02875">
        <ele>1302.72</ele>
        <time>2012-05-27T12:23:52Z</time>
      </trkpt>
      <trkpt lat="47.1332" lon="7.02873">
        <ele>1300.32</ele>
        <time>2012-05-27T12:24:00Z</time>
      </trkpt>
      <trkpt lat="47.13328" lon="7.02872">
        <ele>1297.44</ele>
        <time>2012-05-27T12:24:09Z</time>
      </trkpt>
      <trkpt lat="47.13331" lon="7.02871">
        <ele>1296.96</ele>
        <time>2012-05-27T12:24:11Z</time>
      </trkpt>
      <trkpt lat="47.13341" lon="7.02871">
        <ele>1294.07</ele>
        <time>2012-05-27T12:24:21Z</time>
      </trkpt>
      <trkpt lat="47.13348" lon="7.02867">
        <ele>1292.15</ele>
        <time>2012-05-27T12:24:30Z</time>
      </trkpt>
      <trkpt lat="47.13345" lon="7.02856">
        <ele>1290.71</ele>
        <time>2012-05-27T12:24:42Z</time>
      </trkpt>
      <trkpt lat="47.13344" lon="7.02852">
        <ele>1290.71</ele>
        <time>2012-05-27T12:24:48Z</time>
      </trkpt>
      <trkpt lat="47.13342" lon="7.02827">
        <ele>1287.82</ele>
        <time>2012-05-27T12:25:02Z</time>
      </trkpt>
      <trkpt lat="47.13343" lon="7.02818">
        <ele>1286.86</ele>
        <time>2012-05-27T12:25:08Z</time>
      </trkpt>
      <trkpt lat="47.13346" lon="7.02799">
        <ele>1285.9</ele>
        <time>2012-05-27T12:25:21Z</time>
      </trkpt>
      <trkpt lat="47.13353" lon="7.02792">
        <ele>1284.46</ele>
        <time>2012-05-27T12:25:28Z</time>
      </trkpt>
      <trkpt lat="47.13359" lon="7.02784">
        <ele>1284.94</ele>
        <time>2012-05-27T12:25:40Z</time>
      </trkpt>
      <trkpt lat="47.13359" lon="7.02784">
        <ele>1284.94</ele>
        <time>2012-05-27T12:25:50Z</time>
      </trkpt>
      <trkpt lat="47.13356" lon="7.02764">
        <ele>1281.09</ele>
        <time>2012-05-27T12:26:03Z</time>
      </trkpt>
      <trkpt lat="47.13358" lon="7.02736">
        <ele>1279.17</ele>
        <time>2012-05-27T12:26:17Z</time>
      </trkpt>
      <trkpt lat="47.13358" lon="7.02715">
        <ele>1276.77</ele>
        <time>2012-05-27T12:26:30Z</time>
      </trkpt>
      <trkpt lat="47.13358" lon="7.02691">
        <ele>1274.85</ele>
        <time>2012-05-27T12:26:45Z</time>
      </trkpt>
      <trkpt lat="47.1336" lon="7.02675">
        <ele>1273.4</ele>
        <time>2012-05-27T12:26:53Z</time>
      </trkpt>
      <trkpt lat="47.13358" lon="7.02653">
        <ele>1271.96</ele>
        <time>2012-05-27T12:27:07Z</time>
      </trkpt>
      <trkpt lat="47.13361" lon="7.02629">
        <ele>1268.6</ele>
        <time>2012-05-27T12:27:21Z</time>
      </trkpt>
      <trkpt lat="47.13363" lon="7.02608">
        <ele>1264.27</ele>
        <time>2012-05-27T12:27:33Z</time>
      </trkpt>
      <trkpt lat="47.13363" lon="7.02606">
        <ele>1263.79</ele>
        <time>2012-05-27T12:27:34Z</time>
      </trkpt>
      <trkpt lat="47.13363" lon="7.02595">
        <ele>1262.35</ele>
        <time>2012-05-27T12:27:41Z</time>
      </trkpt>
      <trkpt lat="47.13366" lon="7.02571">
        <ele>1260.43</ele>
        <time>2012-05-27T12:27:54Z</time>
      </trkpt>
      <trkpt lat="47.13369" lon="7.02552">
        <ele>1258.98</ele>
        <time>2012-05-27T12:28:08Z</time>
      </trkpt>
      <trkpt lat="47.13369" lon="7.02542">
        <ele>1258.5</ele>
        <time>2012-05-27T12:28:21Z</time>
      </trkpt>
      <trkpt lat="47.13368" lon="7.02536">
        <ele>1258.02</ele>
        <time>2012-05-27T12:28:25Z</time>
      </trkpt>
      <trkpt lat="47.13368" lon="7.02531">
        <ele>1258.02</ele>
        <time>2012-05-27T12:28:28Z</time>
      </trkpt>
      <trkpt lat="47.13365" lon="7.02512">
        <ele>1257.06</ele>
        <time>2012-05-27T12:28:39Z</time>
      </trkpt>
      <trkpt lat="47.13361" lon="7.0249">
        <ele>1252.74</ele>
        <time>2012-05-27T12:28:54Z</time>
      </trkpt>
      <trkpt lat="47.13359" lon="7.02463">
        <ele>1250.33</ele>
        <time>2012-05-27T12:29:08Z</time>
      </trkpt>
      <trkpt lat="47.13357" lon="7.02442">
        <ele>1247.93</ele>
        <time>2012-05-27T12:29:20Z</time>
      </trkpt>
      <trkpt lat="47.13355" lon="7.02416">
        <ele>1243.6</ele>
        <time>2012-05-27T12:29:34Z</time>
      </trkpt>
      <trkpt lat="47.13352" lon="7.02391">
        <ele>1243.12</ele>
        <time>2012-05-27T12:29:47Z</time>
      </trkpt>
      <trkpt lat="47.13351" lon="7.0237">
        <ele>1240.72</ele>
        <time>2012-05-27T12:30:00Z</time>
      </trkpt>
      <trkpt lat="47.1335" lon="7.02349">
        <ele>1240.72</ele>
        <time>2012-05-27T12:30:13Z</time>
      </trkpt>
      <trkpt lat="47.13349" lon="7.02342">
        <ele>1241.2</ele>
        <time>2012-05-27T12:30:17Z</time>
      </trkpt>
      <trkpt lat="47.13348" lon="7.02338">
        <ele>1241.2</ele>
        <time>2012-05-27T12:30:19Z</time>
      </trkpt>
      <trkpt lat="47.13346" lon="7.02324">
        <ele>1240.72</ele>
        <time>2012-05-27T12:30:29Z</time>
      </trkpt>
      <trkpt lat="47.13347" lon="7.0231">
        <ele>1240.24</ele>
        <time>2012-05-27T12:30:38Z</time>
      </trkpt>
      <trkpt lat="47.13348" lon="7.02288">
        <ele>1239.28</ele>
        <time>2012-05-27T12:30:51Z</time>
      </trkpt>
      <trkpt lat="47.13351" lon="7.02272">
        <ele>1238.32</ele>
        <time>2012-05-27T12:31:04Z</time>
      </trkpt>
      <trkpt lat="47.13351" lon="7.02265">
        <ele>1237.83</ele>
        <time>2012-05-27T12:31:11Z</time>
      </trkpt>
      <trkpt lat="47.13342" lon="7.02245">
        <ele>1234.47</ele>
        <time>2012-05-27T12:31:25Z</time>
      </trkpt>
      <trkpt lat="47.13339" lon="7.02232">
        <ele>1231.59</ele>
        <time>2012-05-27T12:31:34Z</time>
      </trkpt>
      <trkpt lat="47.13336" lon="7.02206">
        <ele>1229.18</ele>
        <time>2012-05-27T12:31:48Z</time>
      </trkpt>
      <trkpt lat="47.13335" lon="7.02203">
        <ele>1229.18</ele>
        <time>2012-05-27T12:31:50Z</time>
      </trkpt>
      <trkpt lat="47.13334" lon="7.02196">
        <ele>1228.22</ele>
        <time>2012-05-27T12:31:54Z</time>
      </trkpt>
      <trkpt lat="47.13331" lon="7.02183">
        <ele>1226.3</ele>
        <time>2012-05-27T12:32:04Z</time>
      </trkpt>
      <trkpt lat="47.13334" lon="7.02178">
        <ele>1224.86</ele>
        <time>2012-05-27T12:32:17Z</time>
      </trkpt>
      <trkpt lat="47.13338" lon="7.02175">
        <ele>1222.45</ele>
        <time>2012-05-27T12:32:29Z</time>
      </trkpt>
      <trkpt lat="47.13344" lon="7.02167">
        <ele>1219.57</ele>
        <time>2012-05-27T12:32:43Z</time>
      </trkpt>
      <trkpt lat="47.13348" lon="7.02163">
        <ele>1219.09</ele>
        <time>2012-05-27T12:32:59Z</time>
      </trkpt>
      <trkpt lat="47.13356" lon="7.02152">
        <ele>1218.61</ele>
        <time>2012-05-27T12:33:13Z</time>
      </trkpt>
      <trkpt lat="47.13371" lon="7.02141">
        <ele>1221.01</ele>
        <time>2012-05-27T12:33:29Z</time>
      </trkpt>
      <trkpt lat="47.13388" lon="7.02128">
        <ele>1219.09</ele>
        <time>2012-05-27T12:33:45Z</time>
      </trkpt>
      <trkpt lat="47.134" lon="7.02117">
        <ele>1216.21</ele>
        <time>2012-05-27T12:34:00Z</time>
      </trkpt>
      <trkpt lat="47.13408" lon="7.02114">
        <ele>1215.24</ele>
        <time>2012-05-27T12:34:12Z</time>
      </trkpt>
      <trkpt lat="47.1342" lon="7.02107">
        <ele>1214.76</ele>
        <time>2012-05-27T12:34:22Z</time>
      </trkpt>
      <trkpt lat="47.13434" lon="7.02098">
        <ele>1211.88</ele>
        <time>2012-05-27T12:34:37Z</time>
      </trkpt>
      <trkpt lat="47.13438" lon="7.02095">
        <ele>1208.03</ele>
        <time>2012-05-27T12:34:51Z</time>
      </trkpt>
      <trkpt lat="47.13449" lon="7.02097">
        <ele>1206.11</ele>
        <time>2012-05-27T12:35:05Z</time>
      </trkpt>
      <trkpt lat="47.13456" lon="7.02096">
        <ele>1202.75</ele>
        <time>2012-05-27T12:35:19Z</time>
      </trkpt>
      <trkpt lat="47.13461" lon="7.02098">
        <ele>1199.38</ele>
        <time>2012-05-27T12:35:31Z</time>
      </trkpt>
      <trkpt lat="47.13469" lon="7.021">
        <ele>1196.5</ele>
        <time>2012-05-27T12:35:46Z</time>
      </trkpt>
      <trkpt lat="47.13472" lon="7.02101">
        <ele>1196.5</ele>
        <time>2012-05-27T12:35:59Z</time>
      </trkpt>
      <trkpt lat="47.13468" lon="7.0209">
        <ele>1191.21</ele>
        <time>2012-05-27T12:36:15Z</time>
      </trkpt>
      <trkpt lat="47.13468" lon="7.02088">
        <ele>1190.25</ele>
        <time>2012-05-27T12:36:28Z</time>
      </trkpt>
      <trkpt lat="47.13467" lon="7.02086">
        <ele>1189.29</ele>
        <time>2012-05-27T12:36:38Z</time>
      </trkpt>
      <trkpt lat="47.13466" lon="7.02074">
        <ele>1185.44</ele>
        <time>2012-05-27T12:36:52Z</time>
      </trkpt>
      <trkpt lat="47.13466" lon="7.02072">
        <ele>1184.48</ele>
        <time>2012-05-27T12:36:55Z</time>
      </trkpt>
      <trkpt lat="47.1347" lon="7.02068">
        <ele>1179.19</ele>
        <time>2012-05-27T12:37:06Z</time>
      </trkpt>
      <trkpt lat="47.13474" lon="7.02065">
        <ele>1175.83</ele>
        <time>2012-05-27T12:37:19Z</time>
      </trkpt>
      <trkpt lat="47.13474" lon="7.02064">
        <ele>1175.83</ele>
        <time>2012-05-27T12:37:20Z</time>
      </trkpt>
      <trkpt lat="47.13485" lon="7.02068">
        <ele>1171.98</ele>
        <time>2012-05-27T12:37:32Z</time>
      </trkpt>
      <trkpt lat="47.1349" lon="7.0207">
        <ele>1170.06</ele>
        <time>2012-05-27T12:37:43Z</time>
      </trkpt>
      <trkpt lat="47.13496" lon="7.02073">
        <ele>1168.62</ele>
        <time>2012-05-27T12:37:56Z</time>
      </trkpt>
      <trkpt lat="47.13499" lon="7.02075">
        <ele>1167.18</ele>
        <time>2012-05-27T12:38:12Z</time>
      </trkpt>
      <trkpt lat="47.13502" lon="7.02074">
        <ele>1163.81</ele>
        <time>2012-05-27T12:38:28Z</time>
      </trkpt>
      <trkpt lat="47.13504" lon="7.02069">
        <ele>1159.97</ele>
        <time>2012-05-27T12:38:43Z</time>
      </trkpt>
      <trkpt lat="47.13504" lon="7.02061">
        <ele>1159.49</ele>
        <time>2012-05-27T12:38:52Z</time>
      </trkpt>
      <trkpt lat="47.13502" lon="7.02047">
        <ele>1159.49</ele>
        <time>2012-05-27T12:39:05Z</time>
      </trkpt>
      <trkpt lat="47.13507" lon="7.02041">
        <ele>1157.08</ele>
        <time>2012-05-27T12:39:21Z</time>
      </trkpt>
      <trkpt lat="47.13508" lon="7.02034">
        <ele>1153.72</ele>
        <time>2012-05-27T12:39:31Z</time>
      </trkpt>
      <trkpt lat="47.13516" lon="7.02025">
        <ele>1147.47</ele>
        <time>2012-05-27T12:39:42Z</time>
      </trkpt>
      <trkpt lat="47.13525" lon="7.02017">
        <ele>1146.99</ele>
        <time>2012-05-27T12:39:54Z</time>
      </trkpt>
      <trkpt lat="47.13533" lon="7.02012">
        <ele>1144.59</ele>
        <time>2012-05-27T12:40:05Z</time>
      </trkpt>
      <trkpt lat="47.13543" lon="7.02008">
        <ele>1142.66</ele>
        <time>2012-05-27T12:40:14Z</time>
      </trkpt>
      <trkpt lat="47.13548" lon="7.02002">
        <ele>1141.22</ele>
        <time>2012-05-27T12:40:21Z</time>
      </trkpt>
      <trkpt lat="47.1356" lon="7.02004">
        <ele>1130.65</ele>
        <time>2012-05-27T12:40:35Z</time>
      </trkpt>
      <trkpt lat="47.13572" lon="7.0201">
        <ele>1127.76</ele>
        <time>2012-05-27T12:40:45Z</time>
      </trkpt>
      <trkpt lat="47.13587" lon="7.02015">
        <ele>1126.8</ele>
        <time>2012-05-27T12:40:57Z</time>
      </trkpt>
      <trkpt lat="47.13599" lon="7.02018">
        <ele>1125.36</ele>
        <time>2012-05-27T12:41:08Z</time>
      </trkpt>
      <trkpt lat="47.136" lon="7.02018">
        <ele>1125.36</ele>
        <time>2012-05-27T12:41:09Z</time>
      </trkpt>
      <trkpt lat="47.13603" lon="7.02021">
        <ele>1123.44</ele>
        <time>2012-05-27T12:41:22Z</time>
      </trkpt>
      <trkpt lat="47.13605" lon="7.02023">
        <ele>1122</ele>
        <time>2012-05-27T12:41:55Z</time>
      </trkpt>
      <trkpt lat="47.13606" lon="7.02023">
        <ele>1120.55</ele>
        <time>2012-05-27T12:42:25Z</time>
      </trkpt>
      <trkpt lat="47.13604" lon="7.02003">
        <ele>1120.07</ele>
        <time>2012-05-27T12:42:39Z</time>
      </trkpt>
      <trkpt lat="47.13603" lon="7.02">
        <ele>1120.55</ele>
        <time>2012-05-27T12:42:42Z</time>
      </trkpt>
      <trkpt lat="47.136" lon="7.01981">
        <ele>1118.15</ele>
        <time>2012-05-27T12:42:54Z</time>
      </trkpt>
      <trkpt lat="47.136" lon="7.01972">
        <ele>1115.27</ele>
        <time>2012-05-27T12:43:01Z</time>
      </trkpt>
      <trkpt lat="47.13596" lon="7.01963">
        <ele>1113.34</ele>
        <time>2012-05-27T12:43:07Z</time>
      </trkpt>
      <trkpt lat="47.13595" lon="7.01955">
        <ele>1112.38</ele>
        <time>2012-05-27T12:43:11Z</time>
      </trkpt>
      <trkpt lat="47.13592" lon="7.01948">
        <ele>1111.42</ele>
        <time>2012-05-27T12:43:16Z</time>
      </trkpt>
      <trkpt lat="47.13592" lon="7.01926">
        <ele>1109.98</ele>
        <time>2012-05-27T12:43:28Z</time>
      </trkpt>
      <trkpt lat="47.13593" lon="7.01911">
        <ele>1109.5</ele>
        <time>2012-05-27T12:43:36Z</time>
      </trkpt>
      <trkpt lat="47.13588" lon="7.01886">
        <ele>1112.86</ele>
        <time>2012-05-27T12:43:50Z</time>
      </trkpt>
      <trkpt lat="47.13587" lon="7.01866">
        <ele>1112.86</ele>
        <time>2012-05-27T12:44:01Z</time>
      </trkpt>
      <trkpt lat="47.13586" lon="7.01857">
        <ele>1112.86</ele>
        <time>2012-05-27T12:44:06Z</time>
      </trkpt>
      <trkpt lat="47.13586" lon="7.01833">
        <ele>1112.38</ele>
        <time>2012-05-27T12:44:18Z</time>
      </trkpt>
      <trkpt lat="47.13586" lon="7.01826">
        <ele>1112.86</ele>
        <time>2012-05-27T12:44:21Z</time>
      </trkpt>
      <trkpt lat="47.13589" lon="7.01805">
        <ele>1113.34</ele>
        <time>2012-05-27T12:44:31Z</time>
      </trkpt>
      <trkpt lat="47.1359" lon="7.01801">
        <ele>1112.86</ele>
        <time>2012-05-27T12:44:33Z</time>
      </trkpt>
      <trkpt lat="47.13591" lon="7.01799">
        <ele>1112.86</ele>
        <time>2012-05-27T12:44:34Z</time>
      </trkpt>
      <trkpt lat="47.13591" lon="7.01797">
        <ele>1112.38</ele>
        <time>2012-05-27T12:44:35Z</time>
      </trkpt>
      <trkpt lat="47.13592" lon="7.01794">
        <ele>1112.38</ele>
        <time>2012-05-27T12:44:36Z</time>
      </trkpt>
      <trkpt lat="47.13593" lon="7.01793">
        <ele>1112.38</ele>
        <time>2012-05-27T12:44:37Z</time>
      </trkpt>
      <trkpt lat="47.13594" lon="7.01787">
        <ele>1112.38</ele>
        <time>2012-05-27T12:44:42Z</time>
      </trkpt>
      <trkpt lat="47.13595" lon="7.01785">
        <ele>1112.38</ele>
        <time>2012-05-27T12:44:43Z</time>
      </trkpt>
      <trkpt lat="47.13595" lon="7.01784">
        <ele>1112.38</ele>
        <time>2012-05-27T12:44:44Z</time>
      </trkpt>
      <trkpt lat="47.13596" lon="7.01782">
        <ele>1111.9</ele>
        <time>2012-05-27T12:44:45Z</time>
      </trkpt>
      <trkpt lat="47.13596" lon="7.0178">
        <ele>1111.9</ele>
        <time>2012-05-27T12:44:46Z</time>
      </trkpt>
      <trkpt lat="47.13596" lon="7.01778">
        <ele>1111.42</ele>
        <time>2012-05-27T12:44:47Z</time>
      </trkpt>
      <trkpt lat="47.13602" lon="7.01761">
        <ele>1109.5</ele>
        <time>2012-05-27T12:44:58Z</time>
      </trkpt>
      <trkpt lat="47.13619" lon="7.01749">
        <ele>1107.58</ele>
        <time>2012-05-27T12:45:11Z</time>
      </trkpt>
      <trkpt lat="47.13632" lon="7.01749">
        <ele>1107.58</ele>
        <time>2012-05-27T12:45:23Z</time>
      </trkpt>
      <trkpt lat="47.13646" lon="7.01751">
        <ele>1107.58</ele>
        <time>2012-05-27T12:45:35Z</time>
      </trkpt>
      <trkpt lat="47.1366" lon="7.01752">
        <ele>1107.1</ele>
        <time>2012-05-27T12:45:46Z</time>
      </trkpt>
      <trkpt lat="47.13677" lon="7.0175">
        <ele>1107.1</ele>
        <time>2012-05-27T12:45:59Z</time>
      </trkpt>
      <trkpt lat="47.13689" lon="7.01748">
        <ele>1108.54</ele>
        <time>2012-05-27T12:46:10Z</time>
      </trkpt>
      <trkpt lat="47.13705" lon="7.01742">
        <ele>1111.9</ele>
        <time>2012-05-27T12:46:22Z</time>
      </trkpt>
      <trkpt lat="47.13721" lon="7.01739">
        <ele>1112.38</ele>
        <time>2012-05-27T12:46:34Z</time>
      </trkpt>
      <trkpt lat="47.13736" lon="7.01738">
        <ele>1112.86</ele>
        <time>2012-05-27T12:46:47Z</time>
      </trkpt>
      <trkpt lat="47.13743" lon="7.01739">
        <ele>1113.34</ele>
        <time>2012-05-27T12:46:52Z</time>
      </trkpt>
      <trkpt lat="47.13759" lon="7.01737">
        <ele>1116.71</ele>
        <time>2012-05-27T12:47:06Z</time>
      </trkpt>
      <trkpt lat="47.13774" lon="7.01739">
        <ele>1119.59</ele>
        <time>2012-05-27T12:47:19Z</time>
      </trkpt>
      <trkpt lat="47.13777" lon="7.0174">
        <ele>1120.07</ele>
        <time>2012-05-27T12:47:21Z</time>
      </trkpt>
      <trkpt lat="47.13779" lon="7.01741">
        <ele>1120.07</ele>
        <time>2012-05-27T12:47:22Z</time>
      </trkpt>
      <trkpt lat="47.1378" lon="7.01742">
        <ele>1120.07</ele>
        <time>2012-05-27T12:47:23Z</time>
      </trkpt>
      <trkpt lat="47.13794" lon="7.01749">
        <ele>1121.52</ele>
        <time>2012-05-27T12:47:36Z</time>
      </trkpt>
      <trkpt lat="47.13807" lon="7.0176">
        <ele>1120.07</ele>
        <time>2012-05-27T12:47:49Z</time>
      </trkpt>
      <trkpt lat="47.13814" lon="7.01768">
        <ele>1119.11</ele>
        <time>2012-05-27T12:47:56Z</time>
      </trkpt>
      <trkpt lat="47.13822" lon="7.01774">
        <ele>1117.67</ele>
        <time>2012-05-27T12:48:09Z</time>
      </trkpt>
      <trkpt lat="47.13823" lon="7.01775">
        <ele>1117.67</ele>
        <time>2012-05-27T12:48:10Z</time>
      </trkpt>
      <trkpt lat="47.13825" lon="7.01776">
        <ele>1117.67</ele>
        <time>2012-05-27T12:48:11Z</time>
      </trkpt>
      <trkpt lat="47.13826" lon="7.01777">
        <ele>1117.67</ele>
        <time>2012-05-27T12:48:12Z</time>
      </trkpt>
      <trkpt lat="47.13829" lon="7.01777">
        <ele>1117.19</ele>
        <time>2012-05-27T12:48:13Z</time>
      </trkpt>
      <trkpt lat="47.13842" lon="7.01781">
        <ele>1116.23</ele>
        <time>2012-05-27T12:48:24Z</time>
      </trkpt>
      <trkpt lat="47.13854" lon="7.0179">
        <ele>1116.23</ele>
        <time>2012-05-27T12:48:37Z</time>
      </trkpt>
      <trkpt lat="47.13866" lon="7.01798">
        <ele>1116.23</ele>
        <time>2012-05-27T12:48:49Z</time>
      </trkpt>
      <trkpt lat="47.13875" lon="7.01802">
        <ele>1117.19</ele>
        <time>2012-05-27T12:49:00Z</time>
      </trkpt>
      <trkpt lat="47.13879" lon="7.01804">
        <ele>1117.67</ele>
        <time>2012-05-27T12:49:04Z</time>
      </trkpt>
      <trkpt lat="47.13881" lon="7.01805">
        <ele>1117.67</ele>
        <time>2012-05-27T12:49:05Z</time>
      </trkpt>
      <trkpt lat="47.13882" lon="7.01806">
        <ele>1117.67</ele>
        <time>2012-05-27T12:49:06Z</time>
      </trkpt>
      <trkpt lat="47.13897" lon="7.01818">
        <ele>1119.11</ele>
        <time>2012-05-27T12:49:22Z</time>
      </trkpt>
      <trkpt lat="47.13904" lon="7.01822">
        <ele>1119.59</ele>
        <time>2012-05-27T12:49:35Z</time>
      </trkpt>
      <trkpt lat="47.13909" lon="7.01824">
        <ele>1120.07</ele>
        <time>2012-05-27T12:49:47Z</time>
      </trkpt>
      <trkpt lat="47.13921" lon="7.01829">
        <ele>1117.67</ele>
        <time>2012-05-27T12:50:04Z</time>
      </trkpt>
      <trkpt lat="47.1394" lon="7.01834">
        <ele>1118.63</ele>
        <time>2012-05-27T12:50:16Z</time>
      </trkpt>
      <trkpt lat="47.13946" lon="7.01835">
        <ele>1119.11</ele>
        <time>2012-05-27T12:50:20Z</time>
      </trkpt>
      <trkpt lat="47.13948" lon="7.01835">
        <ele>1119.11</ele>
        <time>2012-05-27T12:50:21Z</time>
      </trkpt>
      <trkpt lat="47.13949" lon="7.01835">
        <ele>1119.59</ele>
        <time>2012-05-27T12:50:22Z</time>
      </trkpt>
      <trkpt lat="47.13951" lon="7.01835">
        <ele>1120.07</ele>
        <time>2012-05-27T12:50:23Z</time>
      </trkpt>
      <trkpt lat="47.13953" lon="7.01836">
        <ele>1120.55</ele>
        <time>2012-05-27T12:50:24Z</time>
      </trkpt>
      <trkpt lat="47.13977" lon="7.01838">
        <ele>1124.4</ele>
        <time>2012-05-27T12:50:37Z</time>
      </trkpt>
      <trkpt lat="47.1399" lon="7.01836">
        <ele>1126.32</ele>
        <time>2012-05-27T12:50:48Z</time>
      </trkpt>
      <trkpt lat="47.14002" lon="7.01829">
        <ele>1126.8</ele>
        <time>2012-05-27T12:51:01Z</time>
      </trkpt>
      <trkpt lat="47.14005" lon="7.01825">
        <ele>1127.28</ele>
        <time>2012-05-27T12:51:07Z</time>
      </trkpt>
      <trkpt lat="47.14011" lon="7.01806">
        <ele>1127.76</ele>
        <time>2012-05-27T12:51:20Z</time>
      </trkpt>
      <trkpt lat="47.14016" lon="7.01788">
        <ele>1126.8</ele>
        <time>2012-05-27T12:51:33Z</time>
      </trkpt>
      <trkpt lat="47.14018" lon="7.01781">
        <ele>1126.32</ele>
        <time>2012-05-27T12:51:37Z</time>
      </trkpt>
      <trkpt lat="47.14018" lon="7.01779">
        <ele>1125.84</ele>
        <time>2012-05-27T12:51:38Z</time>
      </trkpt>
      <trkpt lat="47.14019" lon="7.01778">
        <ele>1125.84</ele>
        <time>2012-05-27T12:51:39Z</time>
      </trkpt>
      <trkpt lat="47.14019" lon="7.01776">
        <ele>1125.36</ele>
        <time>2012-05-27T12:51:40Z</time>
      </trkpt>
      <trkpt lat="47.14019" lon="7.01773">
        <ele>1125.36</ele>
        <time>2012-05-27T12:51:41Z</time>
      </trkpt>
      <trkpt lat="47.1402" lon="7.01757">
        <ele>1124.4</ele>
        <time>2012-05-27T12:51:51Z</time>
      </trkpt>
      <trkpt lat="47.14021" lon="7.01754">
        <ele>1124.4</ele>
        <time>2012-05-27T12:51:52Z</time>
      </trkpt>
      <trkpt lat="47.14021" lon="7.01752">
        <ele>1123.92</ele>
        <time>2012-05-27T12:51:53Z</time>
      </trkpt>
      <trkpt lat="47.14031" lon="7.01732">
        <ele>1124.4</ele>
        <time>2012-05-27T12:52:06Z</time>
      </trkpt>
      <trkpt lat="47.14037" lon="7.01724">
        <ele>1123.92</ele>
        <time>2012-05-27T12:52:15Z</time>
      </trkpt>
      <trkpt lat="47.14039" lon="7.01725">
        <ele>1123.44</ele>
        <time>2012-05-27T12:52:16Z</time>
      </trkpt>
      <trkpt lat="47.14042" lon="7.01725">
        <ele>1122.96</ele>
        <time>2012-05-27T12:52:18Z</time>
      </trkpt>
      <trkpt lat="47.14044" lon="7.01727">
        <ele>1122.48</ele>
        <time>2012-05-27T12:52:19Z</time>
      </trkpt>
      <trkpt lat="47.14045" lon="7.01729">
        <ele>1122.48</ele>
        <time>2012-05-27T12:52:20Z</time>
      </trkpt>
      <trkpt lat="47.1405" lon="7.01747">
        <ele>1118.63</ele>
        <time>2012-05-27T12:52:32Z</time>
      </trkpt>
      <trkpt lat="47.14053" lon="7.01751">
        <ele>1118.15</ele>
        <time>2012-05-27T12:52:36Z</time>
      </trkpt>
      <trkpt lat="47.14053" lon="7.01752">
        <ele>1118.15</ele>
        <time>2012-05-27T12:52:37Z</time>
      </trkpt>
      <trkpt lat="47.14054" lon="7.01752">
        <ele>1118.15</ele>
        <time>2012-05-27T12:52:38Z</time>
      </trkpt>
      <trkpt lat="47.14068" lon="7.01759">
        <ele>1119.11</ele>
        <time>2012-05-27T12:52:50Z</time>
      </trkpt>
      <trkpt lat="47.14085" lon="7.01764">
        <ele>1117.19</ele>
        <time>2012-05-27T12:53:04Z</time>
      </trkpt>
      <trkpt lat="47.141" lon="7.01767">
        <ele>1114.31</ele>
        <time>2012-05-27T12:53:18Z</time>
      </trkpt>
      <trkpt lat="47.14115" lon="7.01771">
        <ele>1113.82</ele>
        <time>2012-05-27T12:53:31Z</time>
      </trkpt>
      <trkpt lat="47.14127" lon="7.01781">
        <ele>1111.9</ele>
        <time>2012-05-27T12:53:44Z</time>
      </trkpt>
      <trkpt lat="47.14129" lon="7.01786">
        <ele>1112.38</ele>
        <time>2012-05-27T12:53:57Z</time>
      </trkpt>
      <trkpt lat="47.14132" lon="7.01785">
        <ele>1112.86</ele>
        <time>2012-05-27T12:54:00Z</time>
      </trkpt>
      <trkpt lat="47.14144" lon="7.01769">
        <ele>1110.46</ele>
        <time>2012-05-27T12:54:15Z</time>
      </trkpt>
      <trkpt lat="47.14145" lon="7.01768">
        <ele>1109.98</ele>
        <time>2012-05-27T12:54:16Z</time>
      </trkpt>
      <trkpt lat="47.14158" lon="7.01749">
        <ele>1106.61</ele>
        <time>2012-05-27T12:54:32Z</time>
      </trkpt>
      <trkpt lat="47.14166" lon="7.01737">
        <ele>1105.65</ele>
        <time>2012-05-27T12:54:43Z</time>
      </trkpt>
      <trkpt lat="47.1417" lon="7.01734">
        <ele>1104.69</ele>
        <time>2012-05-27T12:54:47Z</time>
      </trkpt>
      <trkpt lat="47.14192" lon="7.01717">
        <ele>1103.25</ele>
        <time>2012-05-27T12:55:08Z</time>
      </trkpt>
      <trkpt lat="47.14211" lon="7.01707">
        <ele>1099.89</ele>
        <time>2012-05-27T12:55:26Z</time>
      </trkpt>
      <trkpt lat="47.14226" lon="7.01707">
        <ele>1099.89</ele>
        <time>2012-05-27T12:55:39Z</time>
      </trkpt>
      <trkpt lat="47.14239" lon="7.01711">
        <ele>1099.4</ele>
        <time>2012-05-27T12:55:52Z</time>
      </trkpt>
      <trkpt lat="47.1425" lon="7.01719">
        <ele>1097.96</ele>
        <time>2012-05-27T12:56:04Z</time>
      </trkpt>
      <trkpt lat="47.14254" lon="7.01728">
        <ele>1097</ele>
        <time>2012-05-27T12:56:11Z</time>
      </trkpt>
      <trkpt lat="47.14264" lon="7.01743">
        <ele>1096.04</ele>
        <time>2012-05-27T12:56:28Z</time>
      </trkpt>
      <trkpt lat="47.14265" lon="7.01745">
        <ele>1095.56</ele>
        <time>2012-05-27T12:56:30Z</time>
      </trkpt>
      <trkpt lat="47.14269" lon="7.01746">
        <ele>1095.56</ele>
        <time>2012-05-27T12:56:34Z</time>
      </trkpt>
      <trkpt lat="47.14272" lon="7.01749">
        <ele>1093.16</ele>
        <time>2012-05-27T12:56:47Z</time>
      </trkpt>
      <trkpt lat="47.14272" lon="7.0175">
        <ele>1093.16</ele>
        <time>2012-05-27T12:56:50Z</time>
      </trkpt>
      <trkpt lat="47.14273" lon="7.0176">
        <ele>1092.2</ele>
        <time>2012-05-27T12:56:56Z</time>
      </trkpt>
      <trkpt lat="47.14276" lon="7.0177">
        <ele>1092.2</ele>
        <time>2012-05-27T12:57:02Z</time>
      </trkpt>
      <trkpt lat="47.14291" lon="7.01792">
        <ele>1090.27</ele>
        <time>2012-05-27T12:57:19Z</time>
      </trkpt>
      <trkpt lat="47.14296" lon="7.018">
        <ele>1088.35</ele>
        <time>2012-05-27T12:57:33Z</time>
      </trkpt>
      <trkpt lat="47.14297" lon="7.01803">
        <ele>1088.35</ele>
        <time>2012-05-27T12:57:58Z</time>
      </trkpt>
      <trkpt lat="47.14298" lon="7.01803">
        <ele>1087.87</ele>
        <time>2012-05-27T12:58:01Z</time>
      </trkpt>
      <trkpt lat="47.14309" lon="7.01809">
        <ele>1087.87</ele>
        <time>2012-05-27T12:58:14Z</time>
      </trkpt>
      <trkpt lat="47.14318" lon="7.0182">
        <ele>1084.5</ele>
        <time>2012-05-27T12:58:28Z</time>
      </trkpt>
      <trkpt lat="47.14326" lon="7.01828">
        <ele>1082.1</ele>
        <time>2012-05-27T12:58:41Z</time>
      </trkpt>
      <trkpt lat="47.14333" lon="7.01834">
        <ele>1080.66</ele>
        <time>2012-05-27T12:58:54Z</time>
      </trkpt>
      <trkpt lat="47.1434" lon="7.01839">
        <ele>1077.78</ele>
        <time>2012-05-27T12:59:08Z</time>
      </trkpt>
      <trkpt lat="47.14349" lon="7.01847">
        <ele>1076.33</ele>
        <time>2012-05-27T12:59:22Z</time>
      </trkpt>
      <trkpt lat="47.14359" lon="7.01853">
        <ele>1073.45</ele>
        <time>2012-05-27T12:59:37Z</time>
      </trkpt>
      <trkpt lat="47.14364" lon="7.01858">
        <ele>1071.05</ele>
        <time>2012-05-27T12:59:50Z</time>
      </trkpt>
      <trkpt lat="47.14373" lon="7.01864">
        <ele>1067.2</ele>
        <time>2012-05-27T13:00:06Z</time>
      </trkpt>
      <trkpt lat="47.14385" lon="7.01875">
        <ele>1065.28</ele>
        <time>2012-05-27T13:00:23Z</time>
      </trkpt>
      <trkpt lat="47.14388" lon="7.01881">
        <ele>1063.36</ele>
        <time>2012-05-27T13:00:38Z</time>
      </trkpt>
      <trkpt lat="47.14395" lon="7.01891">
        <ele>1059.03</ele>
        <time>2012-05-27T13:00:53Z</time>
      </trkpt>
      <trkpt lat="47.144" lon="7.01896">
        <ele>1055.18</ele>
        <time>2012-05-27T13:01:07Z</time>
      </trkpt>
      <trkpt lat="47.14406" lon="7.01905">
        <ele>1051.82</ele>
        <time>2012-05-27T13:01:23Z</time>
      </trkpt>
      <trkpt lat="47.1441" lon="7.0191">
        <ele>1050.38</ele>
        <time>2012-05-27T13:01:37Z</time>
      </trkpt>
      <trkpt lat="47.14415" lon="7.01916">
        <ele>1047.97</ele>
        <time>2012-05-27T13:01:52Z</time>
      </trkpt>
      <trkpt lat="47.14421" lon="7.01923">
        <ele>1046.05</ele>
        <time>2012-05-27T13:02:06Z</time>
      </trkpt>
      <trkpt lat="47.14432" lon="7.01931">
        <ele>1044.13</ele>
        <time>2012-05-27T13:02:22Z</time>
      </trkpt>
      <trkpt lat="47.14443" lon="7.01936">
        <ele>1042.21</ele>
        <time>2012-05-27T13:02:35Z</time>
      </trkpt>
      <trkpt lat="47.14451" lon="7.01947">
        <ele>1037.88</ele>
        <time>2012-05-27T13:02:47Z</time>
      </trkpt>
      <trkpt lat="47.14458" lon="7.01955">
        <ele>1036.44</ele>
        <time>2012-05-27T13:03:00Z</time>
      </trkpt>
      <trkpt lat="47.14464" lon="7.01969">
        <ele>1033.07</ele>
        <time>2012-05-27T13:03:12Z</time>
      </trkpt>
      <trkpt lat="47.14471" lon="7.01973">
        <ele>1034.04</ele>
        <time>2012-05-27T13:03:25Z</time>
      </trkpt>
      <trkpt lat="47.14476" lon="7.01976">
        <ele>1032.59</ele>
        <time>2012-05-27T13:03:40Z</time>
      </trkpt>
      <trkpt lat="47.14491" lon="7.01987">
        <ele>1029.23</ele>
        <time>2012-05-27T13:03:57Z</time>
      </trkpt>
      <trkpt lat="47.14507" lon="7.01998">
        <ele>1026.34</ele>
        <time>2012-05-27T13:04:09Z</time>
      </trkpt>
      <trkpt lat="47.14517" lon="7.02002">
        <ele>1024.42</ele>
        <time>2012-05-27T13:04:20Z</time>
      </trkpt>
      <trkpt lat="47.14526" lon="7.02007">
        <ele>1022.02</ele>
        <time>2012-05-27T13:04:32Z</time>
      </trkpt>
      <trkpt lat="47.14534" lon="7.02016">
        <ele>1019.13</ele>
        <time>2012-05-27T13:04:44Z</time>
      </trkpt>
      <trkpt lat="47.14543" lon="7.02024">
        <ele>1016.73</ele>
        <time>2012-05-27T13:04:56Z</time>
      </trkpt>
      <trkpt lat="47.14556" lon="7.02028">
        <ele>1014.33</ele>
        <time>2012-05-27T13:05:08Z</time>
      </trkpt>
      <trkpt lat="47.14564" lon="7.02032">
        <ele>1011.44</ele>
        <time>2012-05-27T13:05:21Z</time>
      </trkpt>
      <trkpt lat="47.14569" lon="7.02035">
        <ele>1008.56</ele>
        <time>2012-05-27T13:05:36Z</time>
      </trkpt>
      <trkpt lat="47.1458" lon="7.02047">
        <ele>1005.68</ele>
        <time>2012-05-27T13:05:51Z</time>
      </trkpt>
      <trkpt lat="47.14593" lon="7.02058">
        <ele>1004.23</ele>
        <time>2012-05-27T13:06:04Z</time>
      </trkpt>
      <trkpt lat="47.14608" lon="7.02078">
        <ele>999.91</ele>
        <time>2012-05-27T13:06:22Z</time>
      </trkpt>
      <trkpt lat="47.14624" lon="7.02098">
        <ele>995.58</ele>
        <time>2012-05-27T13:06:41Z</time>
      </trkpt>
      <trkpt lat="47.14632" lon="7.0211">
        <ele>990.78</ele>
        <time>2012-05-27T13:06:56Z</time>
      </trkpt>
      <trkpt lat="47.14646" lon="7.02117">
        <ele>986.45</ele>
        <time>2012-05-27T13:07:10Z</time>
      </trkpt>
      <trkpt lat="47.14656" lon="7.02124">
        <ele>985.01</ele>
        <time>2012-05-27T13:07:21Z</time>
      </trkpt>
      <trkpt lat="47.14662" lon="7.02132">
        <ele>981.16</ele>
        <time>2012-05-27T13:07:36Z</time>
      </trkpt>
      <trkpt lat="47.1467" lon="7.02138">
        <ele>978.76</ele>
        <time>2012-05-27T13:07:49Z</time>
      </trkpt>
      <trkpt lat="47.14675" lon="7.02146">
        <ele>974.91</ele>
        <time>2012-05-27T13:08:07Z</time>
      </trkpt>
      <trkpt lat="47.14682" lon="7.02152">
        <ele>975.39</ele>
        <time>2012-05-27T13:08:30Z</time>
      </trkpt>
      <trkpt lat="47.14683" lon="7.02159">
        <ele>970.59</ele>
        <time>2012-05-27T13:08:54Z</time>
      </trkpt>
      <trkpt lat="47.14686" lon="7.0216">
        <ele>970.59</ele>
        <time>2012-05-27T13:09:17Z</time>
      </trkpt>
      <trkpt lat="47.14687" lon="7.0216">
        <ele>969.63</ele>
        <time>2012-05-27T13:09:39Z</time>
      </trkpt>
      <trkpt lat="47.14689" lon="7.02161">
        <ele>969.15</ele>
        <time>2012-05-27T13:10:05Z</time>
      </trkpt>
      <trkpt lat="47.147" lon="7.02166">
        <ele>966.26</ele>
        <time>2012-05-27T13:10:23Z</time>
      </trkpt>
      <trkpt lat="47.14716" lon="7.02172">
        <ele>963.86</ele>
        <time>2012-05-27T13:10:39Z</time>
      </trkpt>
      <trkpt lat="47.14726" lon="7.02177">
        <ele>961.94</ele>
        <time>2012-05-27T13:10:52Z</time>
      </trkpt>
      <trkpt lat="47.14737" lon="7.02184">
        <ele>958.57</ele>
        <time>2012-05-27T13:11:06Z</time>
      </trkpt>
      <trkpt lat="47.14745" lon="7.02189">
        <ele>952.8</ele>
        <time>2012-05-27T13:11:22Z</time>
      </trkpt>
      <trkpt lat="47.14753" lon="7.022">
        <ele>948</ele>
        <time>2012-05-27T13:11:35Z</time>
      </trkpt>
      <trkpt lat="47.14762" lon="7.02207">
        <ele>944.15</ele>
        <time>2012-05-27T13:11:48Z</time>
      </trkpt>
      <trkpt lat="47.14772" lon="7.02217">
        <ele>939.83</ele>
        <time>2012-05-27T13:12:03Z</time>
      </trkpt>
      <trkpt lat="47.14775" lon="7.02221">
        <ele>937.9</ele>
        <time>2012-05-27T13:12:16Z</time>
      </trkpt>
      <trkpt lat="47.14781" lon="7.02232">
        <ele>935.98</ele>
        <time>2012-05-27T13:12:34Z</time>
      </trkpt>
      <trkpt lat="47.14789" lon="7.02247">
        <ele>934.06</ele>
        <time>2012-05-27T13:12:49Z</time>
      </trkpt>
      <trkpt lat="47.14792" lon="7.0225">
        <ele>932.62</ele>
        <time>2012-05-27T13:13:06Z</time>
      </trkpt>
      <trkpt lat="47.14799" lon="7.02252">
        <ele>930.21</ele>
        <time>2012-05-27T13:13:25Z</time>
      </trkpt>
      <trkpt lat="47.14801" lon="7.02256">
        <ele>929.25</ele>
        <time>2012-05-27T13:13:47Z</time>
      </trkpt>
      <trkpt lat="47.14809" lon="7.02264">
        <ele>925.41</ele>
        <time>2012-05-27T13:13:59Z</time>
      </trkpt>
      <trkpt lat="47.14824" lon="7.02278">
        <ele>920.6</ele>
        <time>2012-05-27T13:14:13Z</time>
      </trkpt>
      <trkpt lat="47.14828" lon="7.02283">
        <ele>919.64</ele>
        <time>2012-05-27T13:14:17Z</time>
      </trkpt>
      <trkpt lat="47.14843" lon="7.02298">
        <ele>919.16</ele>
        <time>2012-05-27T13:14:33Z</time>
      </trkpt>
      <trkpt lat="47.14849" lon="7.02305">
        <ele>916.75</ele>
        <time>2012-05-27T13:14:46Z</time>
      </trkpt>
      <trkpt lat="47.14854" lon="7.02315">
        <ele>912.91</ele>
        <time>2012-05-27T13:14:59Z</time>
      </trkpt>
      <trkpt lat="47.14863" lon="7.02324">
        <ele>910.03</ele>
        <time>2012-05-27T13:15:12Z</time>
      </trkpt>
      <trkpt lat="47.14867" lon="7.02335">
        <ele>906.66</ele>
        <time>2012-05-27T13:15:26Z</time>
      </trkpt>
      <trkpt lat="47.14874" lon="7.02344">
        <ele>902.33</ele>
        <time>2012-05-27T13:15:39Z</time>
      </trkpt>
      <trkpt lat="47.14875" lon="7.02355">
        <ele>898.01</ele>
        <time>2012-05-27T13:15:53Z</time>
      </trkpt>
      <trkpt lat="47.14884" lon="7.02361">
        <ele>894.64</ele>
        <time>2012-05-27T13:16:10Z</time>
      </trkpt>
      <trkpt lat="47.14889" lon="7.02366">
        <ele>892.72</ele>
        <time>2012-05-27T13:16:28Z</time>
      </trkpt>
      <trkpt lat="47.14892" lon="7.02372">
        <ele>890.32</ele>
        <time>2012-05-27T13:16:40Z</time>
      </trkpt>
      <trkpt lat="47.14907" lon="7.02366">
        <ele>885.51</ele>
        <time>2012-05-27T13:17:00Z</time>
      </trkpt>
      <trkpt lat="47.14909" lon="7.02361">
        <ele>884.07</ele>
        <time>2012-05-27T13:17:15Z</time>
      </trkpt>
      <trkpt lat="47.14911" lon="7.02354">
        <ele>884.55</ele>
        <time>2012-05-27T13:17:23Z</time>
      </trkpt>
      <trkpt lat="47.14916" lon="7.02341">
        <ele>886.47</ele>
        <time>2012-05-27T13:17:37Z</time>
      </trkpt>
      <trkpt lat="47.14915" lon="7.02333">
        <ele>885.03</ele>
        <time>2012-05-27T13:17:48Z</time>
      </trkpt>
      <trkpt lat="47.14926" lon="7.02304">
        <ele>876.86</ele>
        <time>2012-05-27T13:18:03Z</time>
      </trkpt>
      <trkpt lat="47.14938" lon="7.02299">
        <ele>872.05</ele>
        <time>2012-05-27T13:18:18Z</time>
      </trkpt>
      <trkpt lat="47.14949" lon="7.02293">
        <ele>868.21</ele>
        <time>2012-05-27T13:18:29Z</time>
      </trkpt>
      <trkpt lat="47.14965" lon="7.02276">
        <ele>861.48</ele>
        <time>2012-05-27T13:18:44Z</time>
      </trkpt>
      <trkpt lat="47.14979" lon="7.02259">
        <ele>857.63</ele>
        <time>2012-05-27T13:18:58Z</time>
      </trkpt>
      <trkpt lat="47.14993" lon="7.02246">
        <ele>852.35</ele>
        <time>2012-05-27T13:19:11Z</time>
      </trkpt>
      <trkpt lat="47.15" lon="7.0224">
        <ele>849.46</ele>
        <time>2012-05-27T13:19:23Z</time>
      </trkpt>
      <trkpt lat="47.15015" lon="7.02237">
        <ele>844.18</ele>
        <time>2012-05-27T13:19:36Z</time>
      </trkpt>
      <trkpt lat="47.15018" lon="7.02252">
        <ele>838.89</ele>
        <time>2012-05-27T13:19:48Z</time>
      </trkpt>
      <trkpt lat="47.15018" lon="7.02277">
        <ele>834.08</ele>
        <time>2012-05-27T13:20:05Z</time>
      </trkpt>
      <trkpt lat="47.15017" lon="7.02309">
        <ele>830.24</ele>
        <time>2012-05-27T13:20:19Z</time>
      </trkpt>
      <trkpt lat="47.15018" lon="7.02323">
        <ele>829.27</ele>
        <time>2012-05-27T13:20:35Z</time>
      </trkpt>
      <trkpt lat="47.15015" lon="7.02343">
        <ele>826.87</ele>
        <time>2012-05-27T13:20:49Z</time>
      </trkpt>
      <trkpt lat="47.15017" lon="7.02354">
        <ele>824.47</ele>
        <time>2012-05-27T13:21:02Z</time>
      </trkpt>
      <trkpt lat="47.15012" lon="7.02374">
        <ele>823.03</ele>
        <time>2012-05-27T13:21:15Z</time>
      </trkpt>
      <trkpt lat="47.15012" lon="7.02376">
        <ele>822.55</ele>
        <time>2012-05-27T13:21:17Z</time>
      </trkpt>
      <trkpt lat="47.15005" lon="7.02399">
        <ele>822.55</ele>
        <time>2012-05-27T13:21:32Z</time>
      </trkpt>
      <trkpt lat="47.15005" lon="7.02419">
        <ele>820.14</ele>
        <time>2012-05-27T13:21:45Z</time>
      </trkpt>
      <trkpt lat="47.15" lon="7.02432">
        <ele>816.78</ele>
        <time>2012-05-27T13:21:58Z</time>
      </trkpt>
      <trkpt lat="47.14995" lon="7.02452">
        <ele>811.97</ele>
        <time>2012-05-27T13:22:15Z</time>
      </trkpt>
      <trkpt lat="47.14993" lon="7.02458">
        <ele>815.34</ele>
        <time>2012-05-27T13:22:33Z</time>
      </trkpt>
      <trkpt lat="47.14991" lon="7.02468">
        <ele>818.7</ele>
        <time>2012-05-27T13:23:04Z</time>
      </trkpt>
      <trkpt lat="47.14982" lon="7.02474">
        <ele>817.26</ele>
        <time>2012-05-27T13:23:24Z</time>
      </trkpt>
      <trkpt lat="47.14981" lon="7.02474">
        <ele>816.3</ele>
        <time>2012-05-27T13:23:46Z</time>
      </trkpt>
      <trkpt lat="47.14981" lon="7.02473">
        <ele>815.82</ele>
        <time>2012-05-27T13:24:00Z</time>
      </trkpt>
      <trkpt lat="47.14981" lon="7.02471">
        <ele>815.82</ele>
        <time>2012-05-27T13:24:15Z</time>
      </trkpt>
      <trkpt lat="47.14985" lon="7.02466">
        <ele>815.34</ele>
        <time>2012-05-27T13:24:21Z</time>
      </trkpt>
      <trkpt lat="47.14994" lon="7.02456">
        <ele>815.34</ele>
        <time>2012-05-27T13:24:36Z</time>
      </trkpt>
      <trkpt lat="47.15004" lon="7.02443">
        <ele>819.66</ele>
        <time>2012-05-27T13:24:50Z</time>
      </trkpt>
      <trkpt lat="47.15011" lon="7.02434">
        <ele>819.66</ele>
        <time>2012-05-27T13:25:05Z</time>
      </trkpt>
      <trkpt lat="47.15034" lon="7.02405">
        <ele>815.34</ele>
        <time>2012-05-27T13:25:22Z</time>
      </trkpt>
      <trkpt lat="47.1505" lon="7.0238">
        <ele>809.57</ele>
        <time>2012-05-27T13:25:38Z</time>
      </trkpt>
      <trkpt lat="47.15068" lon="7.02362">
        <ele>804.28</ele>
        <time>2012-05-27T13:25:53Z</time>
      </trkpt>
      <trkpt lat="47.15082" lon="7.02355">
        <ele>798.51</ele>
        <time>2012-05-27T13:26:04Z</time>
      </trkpt>
      <trkpt lat="47.15094" lon="7.02353">
        <ele>800.44</ele>
        <time>2012-05-27T13:26:18Z</time>
      </trkpt>
      <trkpt lat="47.15095" lon="7.02353">
        <ele>800.44</ele>
        <time>2012-05-27T13:26:19Z</time>
      </trkpt>
      <trkpt lat="47.15121" lon="7.02349">
        <ele>796.59</ele>
        <time>2012-05-27T13:26:34Z</time>
      </trkpt>
      <trkpt lat="47.15145" lon="7.02343">
        <ele>795.63</ele>
        <time>2012-05-27T13:26:49Z</time>
      </trkpt>
      <trkpt lat="47.15162" lon="7.02341">
        <ele>793.71</ele>
        <time>2012-05-27T13:27:02Z</time>
      </trkpt>
      <trkpt lat="47.15177" lon="7.02346">
        <ele>789.38</ele>
        <time>2012-05-27T13:27:14Z</time>
      </trkpt>
      <trkpt lat="47.15195" lon="7.02345">
        <ele>790.34</ele>
        <time>2012-05-27T13:27:30Z</time>
      </trkpt>
      <trkpt lat="47.15211" lon="7.02348">
        <ele>787.46</ele>
        <time>2012-05-27T13:27:43Z</time>
      </trkpt>
      <trkpt lat="47.15235" lon="7.0235">
        <ele>784.09</ele>
        <time>2012-05-27T13:27:57Z</time>
      </trkpt>
      <trkpt lat="47.1525" lon="7.02355">
        <ele>781.21</ele>
        <time>2012-05-27T13:28:09Z</time>
      </trkpt>
      <trkpt lat="47.1526" lon="7.02357">
        <ele>781.69</ele>
        <time>2012-05-27T13:28:17Z</time>
      </trkpt>
      <trkpt lat="47.15266" lon="7.02356">
        <ele>780.73</ele>
        <time>2012-05-27T13:28:21Z</time>
      </trkpt>
      <trkpt lat="47.15281" lon="7.02348">
        <ele>778.81</ele>
        <time>2012-05-27T13:28:36Z</time>
      </trkpt>
      <trkpt lat="47.153" lon="7.02337">
        <ele>776.4</ele>
        <time>2012-05-27T13:28:50Z</time>
      </trkpt>
      <trkpt lat="47.15314" lon="7.02326">
        <ele>774.96</ele>
        <time>2012-05-27T13:29:03Z</time>
      </trkpt>
      <trkpt lat="47.15324" lon="7.02319">
        <ele>773.04</ele>
        <time>2012-05-27T13:29:11Z</time>
      </trkpt>
      <trkpt lat="47.15331" lon="7.02312">
        <ele>770.15</ele>
        <time>2012-05-27T13:29:20Z</time>
      </trkpt>
      <trkpt lat="47.15344" lon="7.02304">
        <ele>767.75</ele>
        <time>2012-05-27T13:29:36Z</time>
      </trkpt>
      <trkpt lat="47.15365" lon="7.02292">
        <ele>767.27</ele>
        <time>2012-05-27T13:29:53Z</time>
      </trkpt>
      <trkpt lat="47.15366" lon="7.02291">
        <ele>767.75</ele>
        <time>2012-05-27T13:29:54Z</time>
      </trkpt>
      <trkpt lat="47.15374" lon="7.0229">
        <ele>769.19</ele>
        <time>2012-05-27T13:30:09Z</time>
      </trkpt>
    </trkseg>
  </trk>
</gpx>